<?xml version="1.0" encoding="UTF-8"?>
<gpx xmlns="http://www.topografix.com/GPX/1/1" xmlns:xsi="http://www.w3.org/2001/XMLSchema-instance" version="1.1" xsi:schemaLocation="http://www.topografix.com/GPX/1/1 http://www.topografix.com/GPX/1/1/gpx.xsd">
  <metadata>
    <name>100%Half L'Escala 2023 - Aquabike L</name>
  </metadata>
  <trk>
    <name>100%Half L'Escala 2023 - Aquabike L</name>
    <trkseg>
      <trkpt lat="42.125585" lon="3.124635">
        <ele>3.005401</ele>
        <time>2024-04-14T08:08:00.000Z</time>
      </trkpt>
      <trkpt lat="42.125542" lon="3.124363">
        <ele>3.005409</ele>
        <time>2024-04-14T08:08:02.000Z</time>
      </trkpt>
      <trkpt lat="42.125413" lon="3.123606">
        <ele>3.005407</ele>
        <time>2024-04-14T08:08:08.000Z</time>
      </trkpt>
      <trkpt lat="42.12541" lon="3.123603">
        <ele>3.005406</ele>
        <time>2024-04-14T08:08:08.000Z</time>
      </trkpt>
      <trkpt lat="42.125416" lon="3.123311">
        <ele>3.023687</ele>
        <time>2024-04-14T08:08:10.000Z</time>
      </trkpt>
      <trkpt lat="42.125436" lon="3.123225">
        <ele>3.036658</ele>
        <time>2024-04-14T08:08:11.000Z</time>
      </trkpt>
      <trkpt lat="42.125455" lon="3.123205">
        <ele>3.038592</ele>
        <time>2024-04-14T08:08:11.000Z</time>
      </trkpt>
      <trkpt lat="42.12545" lon="3.123207">
        <ele>3.039893</ele>
        <time>2024-04-14T08:08:11.000Z</time>
      </trkpt>
      <trkpt lat="42.125438" lon="3.12313">
        <ele>3.048093</ele>
        <time>2024-04-14T08:08:12.000Z</time>
      </trkpt>
      <trkpt lat="42.125399" lon="3.123038">
        <ele>3.065163</ele>
        <time>2024-04-14T08:08:13.000Z</time>
      </trkpt>
      <trkpt lat="42.125302" lon="3.123006">
        <ele>3.08126</ele>
        <time>2024-04-14T08:08:14.000Z</time>
      </trkpt>
      <trkpt lat="42.125269" lon="3.122822">
        <ele>3.104827</ele>
        <time>2024-04-14T08:08:16.000Z</time>
      </trkpt>
      <trkpt lat="42.125212" lon="3.122511">
        <ele>3.148118</ele>
        <time>2024-04-14T08:08:19.000Z</time>
      </trkpt>
      <trkpt lat="42.125185" lon="3.12231">
        <ele>3.174425</ele>
        <time>2024-04-14T08:08:21.000Z</time>
      </trkpt>
      <trkpt lat="42.125098" lon="3.121965">
        <ele>3.221591</ele>
        <time>2024-04-14T08:08:24.000Z</time>
      </trkpt>
      <trkpt lat="42.125039" lon="3.121796">
        <ele>3.247585</ele>
        <time>2024-04-14T08:08:26.000Z</time>
      </trkpt>
      <trkpt lat="42.125117" lon="3.121721">
        <ele>3.262118</ele>
        <time>2024-04-14T08:08:27.000Z</time>
      </trkpt>
      <trkpt lat="42.125161" lon="3.121689">
        <ele>3.273462</ele>
        <time>2024-04-14T08:08:28.000Z</time>
      </trkpt>
      <trkpt lat="42.125324" lon="3.12142">
        <ele>3.317054</ele>
        <time>2024-04-14T08:08:31.000Z</time>
      </trkpt>
      <trkpt lat="42.125462" lon="3.121093">
        <ele>3.607409</ele>
        <time>2024-04-14T08:08:34.000Z</time>
      </trkpt>
      <trkpt lat="42.125764" lon="3.120288">
        <ele>4.404284</ele>
        <time>2024-04-14T08:08:41.000Z</time>
      </trkpt>
      <trkpt lat="42.126034" lon="3.119622">
        <ele>5.081303</ele>
        <time>2024-04-14T08:08:47.000Z</time>
      </trkpt>
      <trkpt lat="42.126363" lon="3.118803">
        <ele>5.968095</ele>
        <time>2024-04-14T08:08:55.000Z</time>
      </trkpt>
      <trkpt lat="42.126832" lon="3.117669">
        <ele>7.301941</ele>
        <time>2024-04-14T08:09:06.000Z</time>
      </trkpt>
      <trkpt lat="42.127323" lon="3.116451">
        <ele>8.809267</ele>
        <time>2024-04-14T08:09:17.000Z</time>
      </trkpt>
      <trkpt lat="42.128036" lon="3.114626">
        <ele>10.553248</ele>
        <time>2024-04-14T08:09:34.000Z</time>
      </trkpt>
      <trkpt lat="42.128157" lon="3.114468">
        <ele>10.45115</ele>
        <time>2024-04-14T08:09:36.000Z</time>
      </trkpt>
      <trkpt lat="42.1285" lon="3.113775">
        <ele>10.064159</ele>
        <time>2024-04-14T08:09:43.000Z</time>
      </trkpt>
      <trkpt lat="42.128695" lon="3.113266">
        <ele>9.794866</ele>
        <time>2024-04-14T08:09:48.000Z</time>
      </trkpt>
      <trkpt lat="42.128812" lon="3.112895">
        <ele>9.609854</ele>
        <time>2024-04-14T08:09:51.000Z</time>
      </trkpt>
      <trkpt lat="42.128922" lon="3.112496">
        <ele>9.068015</ele>
        <time>2024-04-14T08:09:55.000Z</time>
      </trkpt>
      <trkpt lat="42.129111" lon="3.11198">
        <ele>8.314961</ele>
        <time>2024-04-14T08:10:00.000Z</time>
      </trkpt>
      <trkpt lat="42.129208" lon="3.111839">
        <ele>8.066327</ele>
        <time>2024-04-14T08:10:02.000Z</time>
      </trkpt>
      <trkpt lat="42.129339" lon="3.11178">
        <ele>7.831053</ele>
        <time>2024-04-14T08:10:04.000Z</time>
      </trkpt>
      <trkpt lat="42.129461" lon="3.111779">
        <ele>7.62859</ele>
        <time>2024-04-14T08:10:05.000Z</time>
      </trkpt>
      <trkpt lat="42.129805" lon="3.111926">
        <ele>6.998057</ele>
        <time>2024-04-14T08:10:09.000Z</time>
      </trkpt>
      <trkpt lat="42.12994" lon="3.111981">
        <ele>6.734649</ele>
        <time>2024-04-14T08:10:11.000Z</time>
      </trkpt>
      <trkpt lat="42.130127" lon="3.111958">
        <ele>6.458688</ele>
        <time>2024-04-14T08:10:13.000Z</time>
      </trkpt>
      <trkpt lat="42.130576" lon="3.111743">
        <ele>6.305572</ele>
        <time>2024-04-14T08:10:18.000Z</time>
      </trkpt>
      <trkpt lat="42.13089" lon="3.111534">
        <ele>6.195743</ele>
        <time>2024-04-14T08:10:22.000Z</time>
      </trkpt>
      <trkpt lat="42.131515" lon="3.111147">
        <ele>5.970473</ele>
        <time>2024-04-14T08:10:30.000Z</time>
      </trkpt>
      <trkpt lat="42.132282" lon="3.110883">
        <ele>6.104061</ele>
        <time>2024-04-14T08:10:39.000Z</time>
      </trkpt>
      <trkpt lat="42.132641" lon="3.110757">
        <ele>6.249671</ele>
        <time>2024-04-14T08:10:43.000Z</time>
      </trkpt>
      <trkpt lat="42.132921" lon="3.110677">
        <ele>6.364643</ele>
        <time>2024-04-14T08:10:46.000Z</time>
      </trkpt>
      <trkpt lat="42.134336" lon="3.110186">
        <ele>7.587658</ele>
        <time>2024-04-14T08:11:02.000Z</time>
      </trkpt>
      <trkpt lat="42.134638" lon="3.110108">
        <ele>7.933236</ele>
        <time>2024-04-14T08:11:05.000Z</time>
      </trkpt>
      <trkpt lat="42.134871" lon="3.110166">
        <ele>8.219372</ele>
        <time>2024-04-14T08:11:08.000Z</time>
      </trkpt>
      <trkpt lat="42.134889" lon="3.110173">
        <ele>8.231332</ele>
        <time>2024-04-14T08:11:08.000Z</time>
      </trkpt>
      <trkpt lat="42.134987" lon="3.110243">
        <ele>8.36202</ele>
        <time>2024-04-14T08:11:09.000Z</time>
      </trkpt>
      <trkpt lat="42.135144" lon="3.110479">
        <ele>8.63903</ele>
        <time>2024-04-14T08:11:12.000Z</time>
      </trkpt>
      <trkpt lat="42.135225" lon="3.110709">
        <ele>8.753979</ele>
        <time>2024-04-14T08:11:14.000Z</time>
      </trkpt>
      <trkpt lat="42.135251" lon="3.111306">
        <ele>9.008713</ele>
        <time>2024-04-14T08:11:19.000Z</time>
      </trkpt>
      <trkpt lat="42.135306" lon="3.111454">
        <ele>9.080187</ele>
        <time>2024-04-14T08:11:20.000Z</time>
      </trkpt>
      <trkpt lat="42.135475" lon="3.111753">
        <ele>9.241997</ele>
        <time>2024-04-14T08:11:23.000Z</time>
      </trkpt>
      <trkpt lat="42.135546" lon="3.111845">
        <ele>9.298652</ele>
        <time>2024-04-14T08:11:24.000Z</time>
      </trkpt>
      <trkpt lat="42.135816" lon="3.112184">
        <ele>9.504435</ele>
        <time>2024-04-14T08:11:28.000Z</time>
      </trkpt>
      <trkpt lat="42.135918" lon="3.112297">
        <ele>9.581041</ele>
        <time>2024-04-14T08:11:29.000Z</time>
      </trkpt>
      <trkpt lat="42.136773" lon="3.112824">
        <ele>9.52025</ele>
        <time>2024-04-14T08:11:39.000Z</time>
      </trkpt>
      <trkpt lat="42.136773" lon="3.112826">
        <ele>9.518106</ele>
        <time>2024-04-14T08:11:39.000Z</time>
      </trkpt>
      <trkpt lat="42.137133" lon="3.113091">
        <ele>9.41561</ele>
        <time>2024-04-14T08:11:44.000Z</time>
      </trkpt>
      <trkpt lat="42.137215" lon="3.113204">
        <ele>9.391309</ele>
        <time>2024-04-14T08:11:45.000Z</time>
      </trkpt>
      <trkpt lat="42.13732" lon="3.113471">
        <ele>9.335357</ele>
        <time>2024-04-14T08:11:47.000Z</time>
      </trkpt>
      <trkpt lat="42.13765" lon="3.114525">
        <ele>8.735533</ele>
        <time>2024-04-14T08:11:56.000Z</time>
      </trkpt>
      <trkpt lat="42.137735" lon="3.114731">
        <ele>8.56085</ele>
        <time>2024-04-14T08:11:58.000Z</time>
      </trkpt>
      <trkpt lat="42.137866" lon="3.114943">
        <ele>8.355664</ele>
        <time>2024-04-14T08:12:00.000Z</time>
      </trkpt>
      <trkpt lat="42.138013" lon="3.115204">
        <ele>8.112867</ele>
        <time>2024-04-14T08:12:03.000Z</time>
      </trkpt>
      <trkpt lat="42.138222" lon="3.115549">
        <ele>7.78916</ele>
        <time>2024-04-14T08:12:07.000Z</time>
      </trkpt>
      <trkpt lat="42.138414" lon="3.115879">
        <ele>7.492023</ele>
        <time>2024-04-14T08:12:10.000Z</time>
      </trkpt>
      <trkpt lat="42.138558" lon="3.116191">
        <ele>6.956368</ele>
        <time>2024-04-14T08:12:13.000Z</time>
      </trkpt>
      <trkpt lat="42.138624" lon="3.116237">
        <ele>6.797744</ele>
        <time>2024-04-14T08:12:14.000Z</time>
      </trkpt>
      <trkpt lat="42.13873" lon="3.116353">
        <ele>6.541698</ele>
        <time>2024-04-14T08:12:16.000Z</time>
      </trkpt>
      <trkpt lat="42.13911" lon="3.116516">
        <ele>5.764768</ele>
        <time>2024-04-14T08:12:20.000Z</time>
      </trkpt>
      <trkpt lat="42.139135" lon="3.116559">
        <ele>5.690277</ele>
        <time>2024-04-14T08:12:20.000Z</time>
      </trkpt>
      <trkpt lat="42.139159" lon="3.116589">
        <ele>5.608044</ele>
        <time>2024-04-14T08:12:20.000Z</time>
      </trkpt>
      <trkpt lat="42.139253" lon="3.116586">
        <ele>5.446329</ele>
        <time>2024-04-14T08:12:21.000Z</time>
      </trkpt>
      <trkpt lat="42.139299" lon="3.116509">
        <ele>5.285604</ele>
        <time>2024-04-14T08:12:22.000Z</time>
      </trkpt>
      <trkpt lat="42.139407" lon="3.116474">
        <ele>5.073112</ele>
        <time>2024-04-14T08:12:23.000Z</time>
      </trkpt>
      <trkpt lat="42.13954" lon="3.116428">
        <ele>4.821832</ele>
        <time>2024-04-14T08:12:25.000Z</time>
      </trkpt>
      <trkpt lat="42.139732" lon="3.116334">
        <ele>4.420905</ele>
        <time>2024-04-14T08:12:27.000Z</time>
      </trkpt>
      <trkpt lat="42.139956" lon="3.11614">
        <ele>3.91449</ele>
        <time>2024-04-14T08:12:30.000Z</time>
      </trkpt>
      <trkpt lat="42.140033" lon="3.115965">
        <ele>3.745702</ele>
        <time>2024-04-14T08:12:32.000Z</time>
      </trkpt>
      <trkpt lat="42.140096" lon="3.115834">
        <ele>3.617536</ele>
        <time>2024-04-14T08:12:33.000Z</time>
      </trkpt>
      <trkpt lat="42.140199" lon="3.115586">
        <ele>3.372275</ele>
        <time>2024-04-14T08:12:35.000Z</time>
      </trkpt>
      <trkpt lat="42.140421" lon="3.11502">
        <ele>2.846147</ele>
        <time>2024-04-14T08:12:40.000Z</time>
      </trkpt>
      <trkpt lat="42.14052" lon="3.114807">
        <ele>2.6492</ele>
        <time>2024-04-14T08:12:42.000Z</time>
      </trkpt>
      <trkpt lat="42.140554" lon="3.114794">
        <ele>2.608531</ele>
        <time>2024-04-14T08:12:42.000Z</time>
      </trkpt>
      <trkpt lat="42.14117" lon="3.114191">
        <ele>1.833547</ele>
        <time>2024-04-14T08:12:50.000Z</time>
      </trkpt>
      <trkpt lat="42.141667" lon="3.113706">
        <ele>1.41135</ele>
        <time>2024-04-14T08:12:57.000Z</time>
      </trkpt>
      <trkpt lat="42.141842" lon="3.11355">
        <ele>1.281106</ele>
        <time>2024-04-14T08:12:59.000Z</time>
      </trkpt>
      <trkpt lat="42.141952" lon="3.113431">
        <ele>1.18227</ele>
        <time>2024-04-14T08:13:01.000Z</time>
      </trkpt>
      <trkpt lat="42.141995" lon="3.113362">
        <ele>1.131489</ele>
        <time>2024-04-14T08:13:02.000Z</time>
      </trkpt>
      <trkpt lat="42.142045" lon="3.113265">
        <ele>1.0846</ele>
        <time>2024-04-14T08:13:03.000Z</time>
      </trkpt>
      <trkpt lat="42.14205" lon="3.113078">
        <ele>0.984966</ele>
        <time>2024-04-14T08:13:05.000Z</time>
      </trkpt>
      <trkpt lat="42.142041" lon="3.112881">
        <ele>0.886489</ele>
        <time>2024-04-14T08:13:07.000Z</time>
      </trkpt>
      <trkpt lat="42.141998" lon="3.112737">
        <ele>0.811265</ele>
        <time>2024-04-14T08:13:08.000Z</time>
      </trkpt>
      <trkpt lat="42.14188" lon="3.112492">
        <ele>0.683507</ele>
        <time>2024-04-14T08:13:10.000Z</time>
      </trkpt>
      <trkpt lat="42.141584" lon="3.111916">
        <ele>0.395997</ele>
        <time>2024-04-14T08:13:16.000Z</time>
      </trkpt>
      <trkpt lat="42.141529" lon="3.111671">
        <ele>0.293216</ele>
        <time>2024-04-14T08:13:18.000Z</time>
      </trkpt>
      <trkpt lat="42.141543" lon="3.111332">
        <ele>0.162357</ele>
        <time>2024-04-14T08:13:21.000Z</time>
      </trkpt>
      <trkpt lat="42.141724" lon="3.109884">
        <ele>-0.252564</ele>
        <time>2024-04-14T08:13:33.000Z</time>
      </trkpt>
      <trkpt lat="42.141854" lon="3.109536">
        <ele>-0.265341</ele>
        <time>2024-04-14T08:13:36.000Z</time>
      </trkpt>
      <trkpt lat="42.142099" lon="3.109242">
        <ele>-0.279107</ele>
        <time>2024-04-14T08:13:40.000Z</time>
      </trkpt>
      <trkpt lat="42.142404" lon="3.109015">
        <ele>-0.294751</ele>
        <time>2024-04-14T08:13:44.000Z</time>
      </trkpt>
      <trkpt lat="42.144815" lon="3.108171">
        <ele>-0.099629</ele>
        <time>2024-04-14T08:14:12.000Z</time>
      </trkpt>
      <trkpt lat="42.145098" lon="3.108057">
        <ele>-0.120717</ele>
        <time>2024-04-14T08:14:15.000Z</time>
      </trkpt>
      <trkpt lat="42.145529" lon="3.107926">
        <ele>-0.151187</ele>
        <time>2024-04-14T08:14:20.000Z</time>
      </trkpt>
      <trkpt lat="42.145755" lon="3.10792">
        <ele>-0.16813</ele>
        <time>2024-04-14T08:14:23.000Z</time>
      </trkpt>
      <trkpt lat="42.145985" lon="3.108062">
        <ele>-0.185022</ele>
        <time>2024-04-14T08:14:26.000Z</time>
      </trkpt>
      <trkpt lat="42.146267" lon="3.108387">
        <ele>-0.211539</ele>
        <time>2024-04-14T08:14:30.000Z</time>
      </trkpt>
      <trkpt lat="42.147106" lon="3.109326">
        <ele>-0.313593</ele>
        <time>2024-04-14T08:14:42.000Z</time>
      </trkpt>
      <trkpt lat="42.147388" lon="3.109578">
        <ele>-0.344005</ele>
        <time>2024-04-14T08:14:46.000Z</time>
      </trkpt>
      <trkpt lat="42.148003" lon="3.110012">
        <ele>-0.358364</ele>
        <time>2024-04-14T08:14:54.000Z</time>
      </trkpt>
      <trkpt lat="42.149118" lon="3.110782">
        <ele>-0.278285</ele>
        <time>2024-04-14T08:15:08.000Z</time>
      </trkpt>
      <trkpt lat="42.149689" lon="3.111053">
        <ele>-0.061261</ele>
        <time>2024-04-14T08:15:15.000Z</time>
      </trkpt>
      <trkpt lat="42.150321" lon="3.1112">
        <ele>0.260992</ele>
        <time>2024-04-14T08:15:22.000Z</time>
      </trkpt>
      <trkpt lat="42.151981" lon="3.111498">
        <ele>1.022837</ele>
        <time>2024-04-14T08:15:41.000Z</time>
      </trkpt>
      <trkpt lat="42.152575" lon="3.111533">
        <ele>1.254301</ele>
        <time>2024-04-14T08:15:48.000Z</time>
      </trkpt>
      <trkpt lat="42.152935" lon="3.111544">
        <ele>1.38814</ele>
        <time>2024-04-14T08:15:52.000Z</time>
      </trkpt>
      <trkpt lat="42.152992" lon="3.111537">
        <ele>1.402174</ele>
        <time>2024-04-14T08:15:53.000Z</time>
      </trkpt>
      <trkpt lat="42.153249" lon="3.111521">
        <ele>1.454397</ele>
        <time>2024-04-14T08:15:56.000Z</time>
      </trkpt>
      <trkpt lat="42.153283" lon="3.111524">
        <ele>1.461425</ele>
        <time>2024-04-14T08:15:56.000Z</time>
      </trkpt>
      <trkpt lat="42.153636" lon="3.111514">
        <ele>1.536544</ele>
        <time>2024-04-14T08:16:00.000Z</time>
      </trkpt>
      <trkpt lat="42.154213" lon="3.111509">
        <ele>1.654373</ele>
        <time>2024-04-14T08:16:06.000Z</time>
      </trkpt>
      <trkpt lat="42.154895" lon="3.111478">
        <ele>1.78171</ele>
        <time>2024-04-14T08:16:14.000Z</time>
      </trkpt>
      <trkpt lat="42.155147" lon="3.111485">
        <ele>1.819142</ele>
        <time>2024-04-14T08:16:17.000Z</time>
      </trkpt>
      <trkpt lat="42.155483" lon="3.111484">
        <ele>1.86763</ele>
        <time>2024-04-14T08:16:21.000Z</time>
      </trkpt>
      <trkpt lat="42.156595" lon="3.111492">
        <ele>1.99152</ele>
        <time>2024-04-14T08:16:33.000Z</time>
      </trkpt>
      <trkpt lat="42.156905" lon="3.111463">
        <ele>1.933177</ele>
        <time>2024-04-14T08:16:36.000Z</time>
      </trkpt>
      <trkpt lat="42.15789" lon="3.111229">
        <ele>1.739611</ele>
        <time>2024-04-14T08:16:47.000Z</time>
      </trkpt>
      <trkpt lat="42.158309" lon="3.111059">
        <ele>1.677977</ele>
        <time>2024-04-14T08:16:52.000Z</time>
      </trkpt>
      <trkpt lat="42.158762" lon="3.110756">
        <ele>1.746519</ele>
        <time>2024-04-14T08:16:58.000Z</time>
      </trkpt>
      <trkpt lat="42.15917" lon="3.110372">
        <ele>1.813704</ele>
        <time>2024-04-14T08:17:04.000Z</time>
      </trkpt>
      <trkpt lat="42.159696" lon="3.109651">
        <ele>1.910407</ele>
        <time>2024-04-14T08:17:12.000Z</time>
      </trkpt>
      <trkpt lat="42.159813" lon="3.109494">
        <ele>1.908008</ele>
        <time>2024-04-14T08:17:14.000Z</time>
      </trkpt>
      <trkpt lat="42.160348" lon="3.108746">
        <ele>1.896714</ele>
        <time>2024-04-14T08:17:23.000Z</time>
      </trkpt>
      <trkpt lat="42.160736" lon="3.107604">
        <ele>1.874148</ele>
        <time>2024-04-14T08:17:33.000Z</time>
      </trkpt>
      <trkpt lat="42.160969" lon="3.106579">
        <ele>1.793661</ele>
        <time>2024-04-14T08:17:42.000Z</time>
      </trkpt>
      <trkpt lat="42.16107" lon="3.105663">
        <ele>1.72326</ele>
        <time>2024-04-14T08:17:50.000Z</time>
      </trkpt>
      <trkpt lat="42.161146" lon="3.105451">
        <ele>1.704163</ele>
        <time>2024-04-14T08:17:52.000Z</time>
      </trkpt>
      <trkpt lat="42.161233" lon="3.10532">
        <ele>1.699721</ele>
        <time>2024-04-14T08:17:53.000Z</time>
      </trkpt>
      <trkpt lat="42.161303" lon="3.105265">
        <ele>1.699445</ele>
        <time>2024-04-14T08:17:54.000Z</time>
      </trkpt>
      <trkpt lat="42.16142" lon="3.105166">
        <ele>1.698934</ele>
        <time>2024-04-14T08:17:56.000Z</time>
      </trkpt>
      <trkpt lat="42.161989" lon="3.104847">
        <ele>1.696698</ele>
        <time>2024-04-14T08:18:03.000Z</time>
      </trkpt>
      <trkpt lat="42.162228" lon="3.104771">
        <ele>1.695795</ele>
        <time>2024-04-14T08:18:06.000Z</time>
      </trkpt>
      <trkpt lat="42.162482" lon="3.10474">
        <ele>1.694849</ele>
        <time>2024-04-14T08:18:09.000Z</time>
      </trkpt>
      <trkpt lat="42.162643" lon="3.104693">
        <ele>1.694256</ele>
        <time>2024-04-14T08:18:11.000Z</time>
      </trkpt>
      <trkpt lat="42.162909" lon="3.104549">
        <ele>1.687089</ele>
        <time>2024-04-14T08:18:14.000Z</time>
      </trkpt>
      <trkpt lat="42.163332" lon="3.104215">
        <ele>1.650152</ele>
        <time>2024-04-14T08:18:19.000Z</time>
      </trkpt>
      <trkpt lat="42.163759" lon="3.103866">
        <ele>1.610857</ele>
        <time>2024-04-14T08:18:25.000Z</time>
      </trkpt>
      <trkpt lat="42.164004" lon="3.103648">
        <ele>1.588119</ele>
        <time>2024-04-14T08:18:28.000Z</time>
      </trkpt>
      <trkpt lat="42.164271" lon="3.103401">
        <ele>1.562501</ele>
        <time>2024-04-14T08:18:32.000Z</time>
      </trkpt>
      <trkpt lat="42.165207" lon="3.102395">
        <ele>1.392545</ele>
        <time>2024-04-14T08:18:45.000Z</time>
      </trkpt>
      <trkpt lat="42.165371" lon="3.102244">
        <ele>1.363078</ele>
        <time>2024-04-14T08:18:47.000Z</time>
      </trkpt>
      <trkpt lat="42.165516" lon="3.102097">
        <ele>1.335484</ele>
        <time>2024-04-14T08:18:49.000Z</time>
      </trkpt>
      <trkpt lat="42.165596" lon="3.101961">
        <ele>1.315929</ele>
        <time>2024-04-14T08:18:50.000Z</time>
      </trkpt>
      <trkpt lat="42.165629" lon="3.101724">
        <ele>1.29022</ele>
        <time>2024-04-14T08:18:52.000Z</time>
      </trkpt>
      <trkpt lat="42.165588" lon="3.101434">
        <ele>1.331308</ele>
        <time>2024-04-14T08:18:54.000Z</time>
      </trkpt>
      <trkpt lat="42.165426" lon="3.101019">
        <ele>1.422905</ele>
        <time>2024-04-14T08:18:58.000Z</time>
      </trkpt>
      <trkpt lat="42.165417" lon="3.10091">
        <ele>1.441986</ele>
        <time>2024-04-14T08:18:59.000Z</time>
      </trkpt>
      <trkpt lat="42.16544" lon="3.100727">
        <ele>1.479174</ele>
        <time>2024-04-14T08:19:01.000Z</time>
      </trkpt>
      <trkpt lat="42.165545" lon="3.100301">
        <ele>1.565451</ele>
        <time>2024-04-14T08:19:05.000Z</time>
      </trkpt>
      <trkpt lat="42.165535" lon="3.099784">
        <ele>1.662112</ele>
        <time>2024-04-14T08:19:09.000Z</time>
      </trkpt>
      <trkpt lat="42.16554" lon="3.099542">
        <ele>1.709178</ele>
        <time>2024-04-14T08:19:11.000Z</time>
      </trkpt>
      <trkpt lat="42.165534" lon="3.099146">
        <ele>1.864312</ele>
        <time>2024-04-14T08:19:14.000Z</time>
      </trkpt>
      <trkpt lat="42.165543" lon="3.098535">
        <ele>2.243444</ele>
        <time>2024-04-14T08:19:19.000Z</time>
      </trkpt>
      <trkpt lat="42.165518" lon="3.097634">
        <ele>2.797426</ele>
        <time>2024-04-14T08:19:26.000Z</time>
      </trkpt>
      <trkpt lat="42.165578" lon="3.096637">
        <ele>3.387312</ele>
        <time>2024-04-14T08:19:34.000Z</time>
      </trkpt>
      <trkpt lat="42.165592" lon="3.096509">
        <ele>3.458707</ele>
        <time>2024-04-14T08:19:35.000Z</time>
      </trkpt>
      <trkpt lat="42.165618" lon="3.096226">
        <ele>3.598009</ele>
        <time>2024-04-14T08:19:37.000Z</time>
      </trkpt>
      <trkpt lat="42.165642" lon="3.096004">
        <ele>3.712737</ele>
        <time>2024-04-14T08:19:39.000Z</time>
      </trkpt>
      <trkpt lat="42.165706" lon="3.095865">
        <ele>3.801088</ele>
        <time>2024-04-14T08:19:40.000Z</time>
      </trkpt>
      <trkpt lat="42.165786" lon="3.095805">
        <ele>3.866114</ele>
        <time>2024-04-14T08:19:41.000Z</time>
      </trkpt>
      <trkpt lat="42.1659" lon="3.095764">
        <ele>3.948001</ele>
        <time>2024-04-14T08:19:42.000Z</time>
      </trkpt>
      <trkpt lat="42.166298" lon="3.095732">
        <ele>4.235094</ele>
        <time>2024-04-14T08:19:46.000Z</time>
      </trkpt>
      <trkpt lat="42.167456" lon="3.095593">
        <ele>4.163802</ele>
        <time>2024-04-14T08:19:59.000Z</time>
      </trkpt>
      <trkpt lat="42.167681" lon="3.095564">
        <ele>4.063454</ele>
        <time>2024-04-14T08:20:02.000Z</time>
      </trkpt>
      <trkpt lat="42.167833" lon="3.095547">
        <ele>3.996823</ele>
        <time>2024-04-14T08:20:04.000Z</time>
      </trkpt>
      <trkpt lat="42.168199" lon="3.095518">
        <ele>3.836001</ele>
        <time>2024-04-14T08:20:08.000Z</time>
      </trkpt>
      <trkpt lat="42.168454" lon="3.095465">
        <ele>3.723156</ele>
        <time>2024-04-14T08:20:11.000Z</time>
      </trkpt>
      <trkpt lat="42.168654" lon="3.095422">
        <ele>3.620896</ele>
        <time>2024-04-14T08:20:13.000Z</time>
      </trkpt>
      <trkpt lat="42.168822" lon="3.095374">
        <ele>3.533662</ele>
        <time>2024-04-14T08:20:15.000Z</time>
      </trkpt>
      <trkpt lat="42.169112" lon="3.095273">
        <ele>3.382404</ele>
        <time>2024-04-14T08:20:18.000Z</time>
      </trkpt>
      <trkpt lat="42.169629" lon="3.095022">
        <ele>3.108989</ele>
        <time>2024-04-14T08:20:24.000Z</time>
      </trkpt>
      <trkpt lat="42.169986" lon="3.09484">
        <ele>2.912588</ele>
        <time>2024-04-14T08:20:28.000Z</time>
      </trkpt>
      <trkpt lat="42.170761" lon="3.094423">
        <ele>2.821167</ele>
        <time>2024-04-14T08:20:37.000Z</time>
      </trkpt>
      <trkpt lat="42.171244" lon="3.094168">
        <ele>2.837957</ele>
        <time>2024-04-14T08:20:43.000Z</time>
      </trkpt>
      <trkpt lat="42.171633" lon="3.094032">
        <ele>2.851057</ele>
        <time>2024-04-14T08:20:47.000Z</time>
      </trkpt>
      <trkpt lat="42.171641" lon="3.094015">
        <ele>2.851707</ele>
        <time>2024-04-14T08:20:47.000Z</time>
      </trkpt>
      <trkpt lat="42.17176" lon="3.094003">
        <ele>2.855076</ele>
        <time>2024-04-14T08:20:48.000Z</time>
      </trkpt>
      <trkpt lat="42.171789" lon="3.093997">
        <ele>2.856453</ele>
        <time>2024-04-14T08:20:48.000Z</time>
      </trkpt>
      <trkpt lat="42.17229" lon="3.094012">
        <ele>2.890951</ele>
        <time>2024-04-14T08:20:54.000Z</time>
      </trkpt>
      <trkpt lat="42.172688" lon="3.09408">
        <ele>2.922565</ele>
        <time>2024-04-14T08:20:58.000Z</time>
      </trkpt>
      <trkpt lat="42.172824" lon="3.094081">
        <ele>2.932088</ele>
        <time>2024-04-14T08:21:00.000Z</time>
      </trkpt>
      <trkpt lat="42.172926" lon="3.094105">
        <ele>2.940617</ele>
        <time>2024-04-14T08:21:01.000Z</time>
      </trkpt>
      <trkpt lat="42.173051" lon="3.094085">
        <ele>2.950098</ele>
        <time>2024-04-14T08:21:02.000Z</time>
      </trkpt>
      <trkpt lat="42.173089" lon="3.094077">
        <ele>2.953455</ele>
        <time>2024-04-14T08:21:02.000Z</time>
      </trkpt>
      <trkpt lat="42.173285" lon="3.094054">
        <ele>2.96865</ele>
        <time>2024-04-14T08:21:04.000Z</time>
      </trkpt>
      <trkpt lat="42.173552" lon="3.093964">
        <ele>2.990756</ele>
        <time>2024-04-14T08:21:07.000Z</time>
      </trkpt>
      <trkpt lat="42.174008" lon="3.093703">
        <ele>3.010096</ele>
        <time>2024-04-14T08:21:13.000Z</time>
      </trkpt>
      <trkpt lat="42.174211" lon="3.093601">
        <ele>3.016184</ele>
        <time>2024-04-14T08:21:15.000Z</time>
      </trkpt>
      <trkpt lat="42.174295" lon="3.093547">
        <ele>3.019058</ele>
        <time>2024-04-14T08:21:16.000Z</time>
      </trkpt>
      <trkpt lat="42.174615" lon="3.093439">
        <ele>3.028548</ele>
        <time>2024-04-14T08:21:20.000Z</time>
      </trkpt>
      <trkpt lat="42.174802" lon="3.09343">
        <ele>3.033667</ele>
        <time>2024-04-14T08:21:22.000Z</time>
      </trkpt>
      <trkpt lat="42.175168" lon="3.093459">
        <ele>3.04369</ele>
        <time>2024-04-14T08:21:26.000Z</time>
      </trkpt>
      <trkpt lat="42.175673" lon="3.093644">
        <ele>3.134956</ele>
        <time>2024-04-14T08:21:32.000Z</time>
      </trkpt>
      <trkpt lat="42.17585" lon="3.093708">
        <ele>3.189042</ele>
        <time>2024-04-14T08:21:34.000Z</time>
      </trkpt>
      <trkpt lat="42.176438" lon="3.093902">
        <ele>3.36692</ele>
        <time>2024-04-14T08:21:41.000Z</time>
      </trkpt>
      <trkpt lat="42.176907" lon="3.094051">
        <ele>3.506563</ele>
        <time>2024-04-14T08:21:46.000Z</time>
      </trkpt>
      <trkpt lat="42.177088" lon="3.094144">
        <ele>3.565125</ele>
        <time>2024-04-14T08:21:48.000Z</time>
      </trkpt>
      <trkpt lat="42.177346" lon="3.094241">
        <ele>3.601969</ele>
        <time>2024-04-14T08:21:51.000Z</time>
      </trkpt>
      <trkpt lat="42.177793" lon="3.094438">
        <ele>3.65264</ele>
        <time>2024-04-14T08:21:56.000Z</time>
      </trkpt>
      <trkpt lat="42.178203" lon="3.094611">
        <ele>3.697639</ele>
        <time>2024-04-14T08:22:01.000Z</time>
      </trkpt>
      <trkpt lat="42.178505" lon="3.094722">
        <ele>3.731271</ele>
        <time>2024-04-14T08:22:04.000Z</time>
      </trkpt>
      <trkpt lat="42.178793" lon="3.09477">
        <ele>3.762759</ele>
        <time>2024-04-14T08:22:07.000Z</time>
      </trkpt>
      <trkpt lat="42.178947" lon="3.094788">
        <ele>3.767343</ele>
        <time>2024-04-14T08:22:09.000Z</time>
      </trkpt>
      <trkpt lat="42.17909" lon="3.094807">
        <ele>3.761812</ele>
        <time>2024-04-14T08:22:11.000Z</time>
      </trkpt>
      <trkpt lat="42.179387" lon="3.094808">
        <ele>3.750302</ele>
        <time>2024-04-14T08:22:14.000Z</time>
      </trkpt>
      <trkpt lat="42.179714" lon="3.09476">
        <ele>3.737549</ele>
        <time>2024-04-14T08:22:18.000Z</time>
      </trkpt>
      <trkpt lat="42.18062" lon="3.09434">
        <ele>3.699477</ele>
        <time>2024-04-14T08:22:29.000Z</time>
      </trkpt>
      <trkpt lat="42.180925" lon="3.094184">
        <ele>3.682569</ele>
        <time>2024-04-14T08:22:33.000Z</time>
      </trkpt>
      <trkpt lat="42.181482" lon="3.093726">
        <ele>3.648487</ele>
        <time>2024-04-14T08:22:40.000Z</time>
      </trkpt>
      <trkpt lat="42.181558" lon="3.093689">
        <ele>3.644146</ele>
        <time>2024-04-14T08:22:41.000Z</time>
      </trkpt>
      <trkpt lat="42.181785" lon="3.093573">
        <ele>3.631841</ele>
        <time>2024-04-14T08:22:44.000Z</time>
      </trkpt>
      <trkpt lat="42.182224" lon="3.093436">
        <ele>3.608975</ele>
        <time>2024-04-14T08:22:49.000Z</time>
      </trkpt>
      <trkpt lat="42.182624" lon="3.093355">
        <ele>3.592658</ele>
        <time>2024-04-14T08:22:53.000Z</time>
      </trkpt>
      <trkpt lat="42.183442" lon="3.09344">
        <ele>3.560509</ele>
        <time>2024-04-14T08:23:02.000Z</time>
      </trkpt>
      <trkpt lat="42.183655" lon="3.093434">
        <ele>3.552403</ele>
        <time>2024-04-14T08:23:04.000Z</time>
      </trkpt>
      <trkpt lat="42.183807" lon="3.093442">
        <ele>3.54659</ele>
        <time>2024-04-14T08:23:06.000Z</time>
      </trkpt>
      <trkpt lat="42.184007" lon="3.093326">
        <ele>3.537743</ele>
        <time>2024-04-14T08:23:08.000Z</time>
      </trkpt>
      <trkpt lat="42.184351" lon="3.093151">
        <ele>3.63252</ele>
        <time>2024-04-14T08:23:12.000Z</time>
      </trkpt>
      <trkpt lat="42.184524" lon="3.093046">
        <ele>3.682336</ele>
        <time>2024-04-14T08:23:14.000Z</time>
      </trkpt>
      <trkpt lat="42.184922" lon="3.092662">
        <ele>3.818842</ele>
        <time>2024-04-14T08:23:19.000Z</time>
      </trkpt>
      <trkpt lat="42.185041" lon="3.092577">
        <ele>3.858207</ele>
        <time>2024-04-14T08:23:20.000Z</time>
      </trkpt>
      <trkpt lat="42.185949" lon="3.092148">
        <ele>4.176364</ele>
        <time>2024-04-14T08:23:31.000Z</time>
      </trkpt>
      <trkpt lat="42.185969" lon="3.092138">
        <ele>4.185838</ele>
        <time>2024-04-14T08:23:31.000Z</time>
      </trkpt>
      <trkpt lat="42.186141" lon="3.09197">
        <ele>4.278821</ele>
        <time>2024-04-14T08:23:33.000Z</time>
      </trkpt>
      <trkpt lat="42.186266" lon="3.09186">
        <ele>4.347541</ele>
        <time>2024-04-14T08:23:35.000Z</time>
      </trkpt>
      <trkpt lat="42.186312" lon="3.09184">
        <ele>4.36944</ele>
        <time>2024-04-14T08:23:36.000Z</time>
      </trkpt>
      <trkpt lat="42.186382" lon="3.09175">
        <ele>4.411348</ele>
        <time>2024-04-14T08:23:37.000Z</time>
      </trkpt>
      <trkpt lat="42.186381" lon="3.09163">
        <ele>4.449871</ele>
        <time>2024-04-14T08:23:38.000Z</time>
      </trkpt>
      <trkpt lat="42.186369" lon="3.091622">
        <ele>4.459631</ele>
        <time>2024-04-14T08:23:38.000Z</time>
      </trkpt>
      <trkpt lat="42.186356" lon="3.091433">
        <ele>4.519544</ele>
        <time>2024-04-14T08:23:40.000Z</time>
      </trkpt>
      <trkpt lat="42.186345" lon="3.090728">
        <ele>4.752615</ele>
        <time>2024-04-14T08:23:46.000Z</time>
      </trkpt>
      <trkpt lat="42.186389" lon="3.09055">
        <ele>4.818375</ele>
        <time>2024-04-14T08:23:48.000Z</time>
      </trkpt>
      <trkpt lat="42.186565" lon="3.090368">
        <ele>4.842097</ele>
        <time>2024-04-14T08:23:50.000Z</time>
      </trkpt>
      <trkpt lat="42.186965" lon="3.090139">
        <ele>4.856394</ele>
        <time>2024-04-14T08:23:55.000Z</time>
      </trkpt>
      <trkpt lat="42.187132" lon="3.089942">
        <ele>4.863661</ele>
        <time>2024-04-14T08:23:57.000Z</time>
      </trkpt>
      <trkpt lat="42.187284" lon="3.089707">
        <ele>4.87103</ele>
        <time>2024-04-14T08:24:00.000Z</time>
      </trkpt>
      <trkpt lat="42.187362" lon="3.089411">
        <ele>4.87855</ele>
        <time>2024-04-14T08:24:03.000Z</time>
      </trkpt>
      <trkpt lat="42.187376" lon="3.089138">
        <ele>4.885589</ele>
        <time>2024-04-14T08:24:05.000Z</time>
      </trkpt>
      <trkpt lat="42.187359" lon="3.089018">
        <ele>4.888502</ele>
        <time>2024-04-14T08:24:06.000Z</time>
      </trkpt>
      <trkpt lat="42.187249" lon="3.088241">
        <ele>4.653925</ele>
        <time>2024-04-14T08:24:13.000Z</time>
      </trkpt>
      <trkpt lat="42.18725" lon="3.088179">
        <ele>4.624252</ele>
        <time>2024-04-14T08:24:14.000Z</time>
      </trkpt>
      <trkpt lat="42.187207" lon="3.087913">
        <ele>4.492187</ele>
        <time>2024-04-14T08:24:16.000Z</time>
      </trkpt>
      <trkpt lat="42.187121" lon="3.087612">
        <ele>4.333291</ele>
        <time>2024-04-14T08:24:19.000Z</time>
      </trkpt>
      <trkpt lat="42.187043" lon="3.087501">
        <ele>4.260165</ele>
        <time>2024-04-14T08:24:20.000Z</time>
      </trkpt>
      <trkpt lat="42.186979" lon="3.087356">
        <ele>4.182369</ele>
        <time>2024-04-14T08:24:21.000Z</time>
      </trkpt>
      <trkpt lat="42.186817" lon="3.086898">
        <ele>3.928443</ele>
        <time>2024-04-14T08:24:25.000Z</time>
      </trkpt>
      <trkpt lat="42.186814" lon="3.086717">
        <ele>3.845212</ele>
        <time>2024-04-14T08:24:26.000Z</time>
      </trkpt>
      <trkpt lat="42.186889" lon="3.08649">
        <ele>3.724519</ele>
        <time>2024-04-14T08:24:28.000Z</time>
      </trkpt>
      <trkpt lat="42.186919" lon="3.086327">
        <ele>3.65184</ele>
        <time>2024-04-14T08:24:29.000Z</time>
      </trkpt>
      <trkpt lat="42.187213" lon="3.08573">
        <ele>3.346195</ele>
        <time>2024-04-14T08:24:35.000Z</time>
      </trkpt>
      <trkpt lat="42.187618" lon="3.084888">
        <ele>2.91871</ele>
        <time>2024-04-14T08:24:43.000Z</time>
      </trkpt>
      <trkpt lat="42.187677" lon="3.084816">
        <ele>2.87597</ele>
        <time>2024-04-14T08:24:44.000Z</time>
      </trkpt>
      <trkpt lat="42.187811" lon="3.084697">
        <ele>2.784773</ele>
        <time>2024-04-14T08:24:46.000Z</time>
      </trkpt>
      <trkpt lat="42.187891" lon="3.084633">
        <ele>2.725151</ele>
        <time>2024-04-14T08:24:47.000Z</time>
      </trkpt>
      <trkpt lat="42.188128" lon="3.084595">
        <ele>2.644944</ele>
        <time>2024-04-14T08:24:50.000Z</time>
      </trkpt>
      <trkpt lat="42.188593" lon="3.084744">
        <ele>2.530041</ele>
        <time>2024-04-14T08:24:55.000Z</time>
      </trkpt>
      <trkpt lat="42.188669" lon="3.084761">
        <ele>2.513638</ele>
        <time>2024-04-14T08:24:56.000Z</time>
      </trkpt>
      <trkpt lat="42.18925" lon="3.084974">
        <ele>2.369041</ele>
        <time>2024-04-14T08:25:03.000Z</time>
      </trkpt>
      <trkpt lat="42.189469" lon="3.085132">
        <ele>2.309406</ele>
        <time>2024-04-14T08:25:06.000Z</time>
      </trkpt>
      <trkpt lat="42.190049" lon="3.085814">
        <ele>2.192649</ele>
        <time>2024-04-14T08:25:15.000Z</time>
      </trkpt>
      <trkpt lat="42.190267" lon="3.086007">
        <ele>2.162959</ele>
        <time>2024-04-14T08:25:18.000Z</time>
      </trkpt>
      <trkpt lat="42.190629" lon="3.086272">
        <ele>2.115584</ele>
        <time>2024-04-14T08:25:23.000Z</time>
      </trkpt>
      <trkpt lat="42.19086" lon="3.086468">
        <ele>2.084516</ele>
        <time>2024-04-14T08:25:26.000Z</time>
      </trkpt>
      <trkpt lat="42.190982" lon="3.086499">
        <ele>2.07213</ele>
        <time>2024-04-14T08:25:27.000Z</time>
      </trkpt>
      <trkpt lat="42.190994" lon="3.086561">
        <ele>2.066927</ele>
        <time>2024-04-14T08:25:28.000Z</time>
      </trkpt>
      <trkpt lat="42.191059" lon="3.086591">
        <ele>2.059416</ele>
        <time>2024-04-14T08:25:29.000Z</time>
      </trkpt>
      <trkpt lat="42.191078" lon="3.086565">
        <ele>2.055046</ele>
        <time>2024-04-14T08:25:29.000Z</time>
      </trkpt>
      <trkpt lat="42.191097" lon="3.086472">
        <ele>2.055837</ele>
        <time>2024-04-14T08:25:30.000Z</time>
      </trkpt>
      <trkpt lat="42.191394" lon="3.086206">
        <ele>2.130791</ele>
        <time>2024-04-14T08:25:34.000Z</time>
      </trkpt>
      <trkpt lat="42.191597" lon="3.086063">
        <ele>2.178478</ele>
        <time>2024-04-14T08:25:37.000Z</time>
      </trkpt>
      <trkpt lat="42.191694" lon="3.08586">
        <ele>2.218902</ele>
        <time>2024-04-14T08:25:39.000Z</time>
      </trkpt>
      <trkpt lat="42.191719" lon="3.08558">
        <ele>2.262614</ele>
        <time>2024-04-14T08:25:41.000Z</time>
      </trkpt>
      <trkpt lat="42.191721" lon="3.085542">
        <ele>2.268189</ele>
        <time>2024-04-14T08:25:41.000Z</time>
      </trkpt>
      <trkpt lat="42.19167" lon="3.08511">
        <ele>2.338195</ele>
        <time>2024-04-14T08:25:45.000Z</time>
      </trkpt>
      <trkpt lat="42.191587" lon="3.083807">
        <ele>2.580737</ele>
        <time>2024-04-14T08:25:56.000Z</time>
      </trkpt>
      <trkpt lat="42.191518" lon="3.083031">
        <ele>2.747502</ele>
        <time>2024-04-14T08:26:02.000Z</time>
      </trkpt>
      <trkpt lat="42.191521" lon="3.082916">
        <ele>2.770175</ele>
        <time>2024-04-14T08:26:03.000Z</time>
      </trkpt>
      <trkpt lat="42.191498" lon="3.082856">
        <ele>2.783947</ele>
        <time>2024-04-14T08:26:04.000Z</time>
      </trkpt>
      <trkpt lat="42.19146" lon="3.082623">
        <ele>2.83538</ele>
        <time>2024-04-14T08:26:06.000Z</time>
      </trkpt>
      <trkpt lat="42.191487" lon="3.082433">
        <ele>2.874341</ele>
        <time>2024-04-14T08:26:08.000Z</time>
      </trkpt>
      <trkpt lat="42.191556" lon="3.082362">
        <ele>2.899012</ele>
        <time>2024-04-14T08:26:09.000Z</time>
      </trkpt>
      <trkpt lat="42.191695" lon="3.082354">
        <ele>2.940925</ele>
        <time>2024-04-14T08:26:11.000Z</time>
      </trkpt>
      <trkpt lat="42.192012" lon="3.082423">
        <ele>2.934266</ele>
        <time>2024-04-14T08:26:15.000Z</time>
      </trkpt>
      <trkpt lat="42.19302" lon="3.082592">
        <ele>2.893529</ele>
        <time>2024-04-14T08:26:26.000Z</time>
      </trkpt>
      <trkpt lat="42.193424" lon="3.082664">
        <ele>2.877152</ele>
        <time>2024-04-14T08:26:31.000Z</time>
      </trkpt>
      <trkpt lat="42.194059" lon="3.082766">
        <ele>2.560916</ele>
        <time>2024-04-14T08:26:38.000Z</time>
      </trkpt>
      <trkpt lat="42.19461" lon="3.08283">
        <ele>2.250445</ele>
        <time>2024-04-14T08:26:44.000Z</time>
      </trkpt>
      <trkpt lat="42.194997" lon="3.082874">
        <ele>2.041988</ele>
        <time>2024-04-14T08:26:48.000Z</time>
      </trkpt>
      <trkpt lat="42.195654" lon="3.082945">
        <ele>1.805068</ele>
        <time>2024-04-14T08:26:55.000Z</time>
      </trkpt>
      <trkpt lat="42.200246" lon="3.083699">
        <ele>1.078112</ele>
        <time>2024-04-14T08:27:46.000Z</time>
      </trkpt>
      <trkpt lat="42.200529" lon="3.083755">
        <ele>1.057337</ele>
        <time>2024-04-14T08:27:49.000Z</time>
      </trkpt>
      <trkpt lat="42.201146" lon="3.083858">
        <ele>1.094967</ele>
        <time>2024-04-14T08:27:56.000Z</time>
      </trkpt>
      <trkpt lat="42.201507" lon="3.083915">
        <ele>1.127201</ele>
        <time>2024-04-14T08:28:00.000Z</time>
      </trkpt>
      <trkpt lat="42.202212" lon="3.084037">
        <ele>1.193269</ele>
        <time>2024-04-14T08:28:08.000Z</time>
      </trkpt>
      <trkpt lat="42.203301" lon="3.084226">
        <ele>1.158007</ele>
        <time>2024-04-14T08:28:20.000Z</time>
      </trkpt>
      <trkpt lat="42.206484" lon="3.084749">
        <ele>0.636694</ele>
        <time>2024-04-14T08:28:56.000Z</time>
      </trkpt>
      <trkpt lat="42.208214" lon="3.085039">
        <ele>0.394361</ele>
        <time>2024-04-14T08:29:15.000Z</time>
      </trkpt>
      <trkpt lat="42.208434" lon="3.085082">
        <ele>0.373676</ele>
        <time>2024-04-14T08:29:17.000Z</time>
      </trkpt>
      <trkpt lat="42.209551" lon="3.085279">
        <ele>0.268118</ele>
        <time>2024-04-14T08:29:30.000Z</time>
      </trkpt>
      <trkpt lat="42.211573" lon="3.085644">
        <ele>0.578433</ele>
        <time>2024-04-14T08:29:53.000Z</time>
      </trkpt>
      <trkpt lat="42.211846" lon="3.085748">
        <ele>0.599241</ele>
        <time>2024-04-14T08:29:56.000Z</time>
      </trkpt>
      <trkpt lat="42.212558" lon="3.086205">
        <ele>0.659869</ele>
        <time>2024-04-14T08:30:05.000Z</time>
      </trkpt>
      <trkpt lat="42.212611" lon="3.086245">
        <ele>0.664579</ele>
        <time>2024-04-14T08:30:06.000Z</time>
      </trkpt>
      <trkpt lat="42.215024" lon="3.087847">
        <ele>0.891422</ele>
        <time>2024-04-14T08:30:36.000Z</time>
      </trkpt>
      <trkpt lat="42.216174" lon="3.0886">
        <ele>0.810409</ele>
        <time>2024-04-14T08:30:50.000Z</time>
      </trkpt>
      <trkpt lat="42.216378" lon="3.088694">
        <ele>0.770814</ele>
        <time>2024-04-14T08:30:52.000Z</time>
      </trkpt>
      <trkpt lat="42.216424" lon="3.088705">
        <ele>0.759024</ele>
        <time>2024-04-14T08:30:53.000Z</time>
      </trkpt>
      <trkpt lat="42.216622" lon="3.08873">
        <ele>0.710038</ele>
        <time>2024-04-14T08:30:55.000Z</time>
      </trkpt>
      <trkpt lat="42.216796" lon="3.088744">
        <ele>0.664267</ele>
        <time>2024-04-14T08:30:57.000Z</time>
      </trkpt>
      <trkpt lat="42.21695" lon="3.088703">
        <ele>0.628458</ele>
        <time>2024-04-14T08:30:59.000Z</time>
      </trkpt>
      <trkpt lat="42.217739" lon="3.088468">
        <ele>0.426667</ele>
        <time>2024-04-14T08:31:08.000Z</time>
      </trkpt>
      <trkpt lat="42.218102" lon="3.08844">
        <ele>0.376036</ele>
        <time>2024-04-14T08:31:12.000Z</time>
      </trkpt>
      <trkpt lat="42.218455" lon="3.088478">
        <ele>0.442528</ele>
        <time>2024-04-14T08:31:16.000Z</time>
      </trkpt>
      <trkpt lat="42.21974" lon="3.088618">
        <ele>0.691923</ele>
        <time>2024-04-14T08:31:30.000Z</time>
      </trkpt>
      <trkpt lat="42.219954" lon="3.088614">
        <ele>0.740876</ele>
        <time>2024-04-14T08:31:32.000Z</time>
      </trkpt>
      <trkpt lat="42.220142" lon="3.088581">
        <ele>0.789521</ele>
        <time>2024-04-14T08:31:34.000Z</time>
      </trkpt>
      <trkpt lat="42.220147" lon="3.088574">
        <ele>0.791535</ele>
        <time>2024-04-14T08:31:34.000Z</time>
      </trkpt>
      <trkpt lat="42.22041" lon="3.088463">
        <ele>0.85584</ele>
        <time>2024-04-14T08:31:37.000Z</time>
      </trkpt>
      <trkpt lat="42.221794" lon="3.087599">
        <ele>1.225038</ele>
        <time>2024-04-14T08:31:54.000Z</time>
      </trkpt>
      <trkpt lat="42.222036" lon="3.087492">
        <ele>1.27905</ele>
        <time>2024-04-14T08:31:57.000Z</time>
      </trkpt>
      <trkpt lat="42.222255" lon="3.087451">
        <ele>1.325069</ele>
        <time>2024-04-14T08:31:59.000Z</time>
      </trkpt>
      <trkpt lat="42.222671" lon="3.087432">
        <ele>1.415066</ele>
        <time>2024-04-14T08:32:04.000Z</time>
      </trkpt>
      <trkpt lat="42.224015" lon="3.087723">
        <ele>1.480502</ele>
        <time>2024-04-14T08:32:19.000Z</time>
      </trkpt>
      <trkpt lat="42.224077" lon="3.087744">
        <ele>1.475761</ele>
        <time>2024-04-14T08:32:20.000Z</time>
      </trkpt>
      <trkpt lat="42.224238" lon="3.087754">
        <ele>1.463988</ele>
        <time>2024-04-14T08:32:22.000Z</time>
      </trkpt>
      <trkpt lat="42.22453" lon="3.087712">
        <ele>1.443813</ele>
        <time>2024-04-14T08:32:25.000Z</time>
      </trkpt>
      <trkpt lat="42.224813" lon="3.087648">
        <ele>1.424374</ele>
        <time>2024-04-14T08:32:28.000Z</time>
      </trkpt>
      <trkpt lat="42.225648" lon="3.087051">
        <ele>1.183763</ele>
        <time>2024-04-14T08:32:39.000Z</time>
      </trkpt>
      <trkpt lat="42.226603" lon="3.086592">
        <ele>0.879377</ele>
        <time>2024-04-14T08:32:50.000Z</time>
      </trkpt>
      <trkpt lat="42.227036" lon="3.086356">
        <ele>0.75638</ele>
        <time>2024-04-14T08:32:55.000Z</time>
      </trkpt>
      <trkpt lat="42.228118" lon="3.085631">
        <ele>0.444054</ele>
        <time>2024-04-14T08:33:08.000Z</time>
      </trkpt>
      <trkpt lat="42.229732" lon="3.084501">
        <ele>0.175548</ele>
        <time>2024-04-14T08:33:28.000Z</time>
      </trkpt>
      <trkpt lat="42.230629" lon="3.083986">
        <ele>0.183136</ele>
        <time>2024-04-14T08:33:39.000Z</time>
      </trkpt>
      <trkpt lat="42.231332" lon="3.083658">
        <ele>0.207655</ele>
        <time>2024-04-14T08:33:47.000Z</time>
      </trkpt>
      <trkpt lat="42.23176" lon="3.083517">
        <ele>0.298959</ele>
        <time>2024-04-14T08:33:52.000Z</time>
      </trkpt>
      <trkpt lat="42.23191" lon="3.083501">
        <ele>0.360152</ele>
        <time>2024-04-14T08:33:54.000Z</time>
      </trkpt>
      <trkpt lat="42.232617" lon="3.083488">
        <ele>0.636687</ele>
        <time>2024-04-14T08:34:02.000Z</time>
      </trkpt>
      <trkpt lat="42.233244" lon="3.083499">
        <ele>0.87638</ele>
        <time>2024-04-14T08:34:09.000Z</time>
      </trkpt>
      <trkpt lat="42.233656" lon="3.083449">
        <ele>1.048497</ele>
        <time>2024-04-14T08:34:14.000Z</time>
      </trkpt>
      <trkpt lat="42.234078" lon="3.083314">
        <ele>1.226684</ele>
        <time>2024-04-14T08:34:19.000Z</time>
      </trkpt>
      <trkpt lat="42.23502" lon="3.082867">
        <ele>1.643443</ele>
        <time>2024-04-14T08:34:30.000Z</time>
      </trkpt>
      <trkpt lat="42.235408" lon="3.08268">
        <ele>1.780901</ele>
        <time>2024-04-14T08:34:35.000Z</time>
      </trkpt>
      <trkpt lat="42.235534" lon="3.082624">
        <ele>1.82466</ele>
        <time>2024-04-14T08:34:36.000Z</time>
      </trkpt>
      <trkpt lat="42.235832" lon="3.082444">
        <ele>1.935852</ele>
        <time>2024-04-14T08:34:40.000Z</time>
      </trkpt>
      <trkpt lat="42.236752" lon="3.081696">
        <ele>2.276233</ele>
        <time>2024-04-14T08:34:52.000Z</time>
      </trkpt>
      <trkpt lat="42.237066" lon="3.081478">
        <ele>2.347583</ele>
        <time>2024-04-14T08:34:56.000Z</time>
      </trkpt>
      <trkpt lat="42.23762" lon="3.08122">
        <ele>2.462184</ele>
        <time>2024-04-14T08:35:03.000Z</time>
      </trkpt>
      <trkpt lat="42.238003" lon="3.080944">
        <ele>2.549847</ele>
        <time>2024-04-14T08:35:08.000Z</time>
      </trkpt>
      <trkpt lat="42.239356" lon="3.079924">
        <ele>2.979722</ele>
        <time>2024-04-14T08:35:25.000Z</time>
      </trkpt>
      <trkpt lat="42.240286" lon="3.079419">
        <ele>3.171425</ele>
        <time>2024-04-14T08:35:36.000Z</time>
      </trkpt>
      <trkpt lat="42.242496" lon="3.078289">
        <ele>3.165516</ele>
        <time>2024-04-14T08:36:02.000Z</time>
      </trkpt>
      <trkpt lat="42.243211" lon="3.077899">
        <ele>3.1056</ele>
        <time>2024-04-14T08:36:11.000Z</time>
      </trkpt>
      <trkpt lat="42.244512" lon="3.077027">
        <ele>3.39072</ele>
        <time>2024-04-14T08:36:27.000Z</time>
      </trkpt>
      <trkpt lat="42.244013" lon="3.075491">
        <ele>3.683575</ele>
        <time>2024-04-14T08:36:41.000Z</time>
      </trkpt>
      <trkpt lat="42.243776" lon="3.074783">
        <ele>3.828553</ele>
        <time>2024-04-14T08:36:47.000Z</time>
      </trkpt>
      <trkpt lat="42.243693" lon="3.074586">
        <ele>3.871477</ele>
        <time>2024-04-14T08:36:49.000Z</time>
      </trkpt>
      <trkpt lat="42.243527" lon="3.074228">
        <ele>3.881314</ele>
        <time>2024-04-14T08:36:52.000Z</time>
      </trkpt>
      <trkpt lat="42.242973" lon="3.0732">
        <ele>3.595732</ele>
        <time>2024-04-14T08:37:02.000Z</time>
      </trkpt>
      <trkpt lat="42.242645" lon="3.072785">
        <ele>3.45993</ele>
        <time>2024-04-14T08:37:07.000Z</time>
      </trkpt>
      <trkpt lat="42.24211" lon="3.072204">
        <ele>3.385237</ele>
        <time>2024-04-14T08:37:15.000Z</time>
      </trkpt>
      <trkpt lat="42.242411" lon="3.071787">
        <ele>3.395713</ele>
        <time>2024-04-14T08:37:20.000Z</time>
      </trkpt>
      <trkpt lat="42.242744" lon="3.071504">
        <ele>3.405575</ele>
        <time>2024-04-14T08:37:24.000Z</time>
      </trkpt>
      <trkpt lat="42.243117" lon="3.071349">
        <ele>3.414818</ele>
        <time>2024-04-14T08:37:28.000Z</time>
      </trkpt>
      <trkpt lat="42.243163" lon="3.071322">
        <ele>3.416215</ele>
        <time>2024-04-14T08:37:29.000Z</time>
      </trkpt>
      <trkpt lat="42.243799" lon="3.071043">
        <ele>3.533674</ele>
        <time>2024-04-14T08:37:36.000Z</time>
      </trkpt>
      <trkpt lat="42.244514" lon="3.070774">
        <ele>3.6944</ele>
        <time>2024-04-14T08:37:44.000Z</time>
      </trkpt>
      <trkpt lat="42.245419" lon="3.070619">
        <ele>3.879026</ele>
        <time>2024-04-14T08:37:54.000Z</time>
      </trkpt>
      <trkpt lat="42.246312" lon="3.070456">
        <ele>4.052261</ele>
        <time>2024-04-14T08:38:04.000Z</time>
      </trkpt>
      <trkpt lat="42.246939" lon="3.070326">
        <ele>4.170843</ele>
        <time>2024-04-14T08:38:11.000Z</time>
      </trkpt>
      <trkpt lat="42.247088" lon="3.070368">
        <ele>4.200491</ele>
        <time>2024-04-14T08:38:13.000Z</time>
      </trkpt>
      <trkpt lat="42.247267" lon="3.070546">
        <ele>4.241056</ele>
        <time>2024-04-14T08:38:15.000Z</time>
      </trkpt>
      <trkpt lat="42.247729" lon="3.071768">
        <ele>4.428198</ele>
        <time>2024-04-14T08:38:26.000Z</time>
      </trkpt>
      <trkpt lat="42.248635" lon="3.074283">
        <ele>4.677128</ele>
        <time>2024-04-14T08:38:49.000Z</time>
      </trkpt>
      <trkpt lat="42.248783" lon="3.074289">
        <ele>4.792563</ele>
        <time>2024-04-14T08:38:51.000Z</time>
      </trkpt>
      <trkpt lat="42.249514" lon="3.074335">
        <ele>5.363784</ele>
        <time>2024-04-14T08:38:59.000Z</time>
      </trkpt>
      <trkpt lat="42.249991" lon="3.074362">
        <ele>5.750861</ele>
        <time>2024-04-14T08:39:04.000Z</time>
      </trkpt>
      <trkpt lat="42.250037" lon="3.074351">
        <ele>5.777012</ele>
        <time>2024-04-14T08:39:05.000Z</time>
      </trkpt>
      <trkpt lat="42.25009" lon="3.074363">
        <ele>5.826997</ele>
        <time>2024-04-14T08:39:06.000Z</time>
      </trkpt>
      <trkpt lat="42.250811" lon="3.074241">
        <ele>6.35838</ele>
        <time>2024-04-14T08:39:14.000Z</time>
      </trkpt>
      <trkpt lat="42.250776" lon="3.073992">
        <ele>6.48761</ele>
        <time>2024-04-14T08:39:16.000Z</time>
      </trkpt>
      <trkpt lat="42.250759" lon="3.073834">
        <ele>6.56563</ele>
        <time>2024-04-14T08:39:17.000Z</time>
      </trkpt>
      <trkpt lat="42.250665" lon="3.073438">
        <ele>6.774546</ele>
        <time>2024-04-14T08:39:20.000Z</time>
      </trkpt>
      <trkpt lat="42.250556" lon="3.073146">
        <ele>6.936844</ele>
        <time>2024-04-14T08:39:23.000Z</time>
      </trkpt>
      <trkpt lat="42.250562" lon="3.073044">
        <ele>6.983586</ele>
        <time>2024-04-14T08:39:24.000Z</time>
      </trkpt>
      <trkpt lat="42.250604" lon="3.072967">
        <ele>7.031649</ele>
        <time>2024-04-14T08:39:25.000Z</time>
      </trkpt>
      <trkpt lat="42.250896" lon="3.072844">
        <ele>7.236319</ele>
        <time>2024-04-14T08:39:28.000Z</time>
      </trkpt>
      <trkpt lat="42.252018" lon="3.072338">
        <ele>7.683362</ele>
        <time>2024-04-14T08:39:41.000Z</time>
      </trkpt>
      <trkpt lat="42.252221" lon="3.071331">
        <ele>7.933099</ele>
        <time>2024-04-14T08:39:50.000Z</time>
      </trkpt>
      <trkpt lat="42.252429" lon="3.070423">
        <ele>7.93486</ele>
        <time>2024-04-14T08:39:58.000Z</time>
      </trkpt>
      <trkpt lat="42.252909" lon="3.069604">
        <ele>7.936786</ele>
        <time>2024-04-14T08:40:07.000Z</time>
      </trkpt>
      <trkpt lat="42.252936" lon="3.069544">
        <ele>7.936911</ele>
        <time>2024-04-14T08:40:08.000Z</time>
      </trkpt>
      <trkpt lat="42.253387" lon="3.0691">
        <ele>7.753562</ele>
        <time>2024-04-14T08:40:14.000Z</time>
      </trkpt>
      <trkpt lat="42.254369" lon="3.06818">
        <ele>7.098102</ele>
        <time>2024-04-14T08:40:27.000Z</time>
      </trkpt>
      <trkpt lat="42.25444" lon="3.068056">
        <ele>7.0328</ele>
        <time>2024-04-14T08:40:28.000Z</time>
      </trkpt>
      <trkpt lat="42.254473" lon="3.067954">
        <ele>6.980487</ele>
        <time>2024-04-14T08:40:29.000Z</time>
      </trkpt>
      <trkpt lat="42.254486" lon="3.067816">
        <ele>6.934734</ele>
        <time>2024-04-14T08:40:30.000Z</time>
      </trkpt>
      <trkpt lat="42.254435" lon="3.067749">
        <ele>6.910561</ele>
        <time>2024-04-14T08:40:31.000Z</time>
      </trkpt>
      <trkpt lat="42.25388" lon="3.067271">
        <ele>6.693966</ele>
        <time>2024-04-14T08:40:38.000Z</time>
      </trkpt>
      <trkpt lat="42.253827" lon="3.067224">
        <ele>6.679017</ele>
        <time>2024-04-14T08:40:39.000Z</time>
      </trkpt>
      <trkpt lat="42.253836" lon="3.067144">
        <ele>6.659763</ele>
        <time>2024-04-14T08:40:40.000Z</time>
      </trkpt>
      <trkpt lat="42.253882" lon="3.067094">
        <ele>6.639291</ele>
        <time>2024-04-14T08:40:41.000Z</time>
      </trkpt>
      <trkpt lat="42.25476" lon="3.067468">
        <ele>6.348425</ele>
        <time>2024-04-14T08:40:51.000Z</time>
      </trkpt>
      <trkpt lat="42.255096" lon="3.066508">
        <ele>6.224471</ele>
        <time>2024-04-14T08:41:00.000Z</time>
      </trkpt>
      <trkpt lat="42.255419" lon="3.065163">
        <ele>6.082761</ele>
        <time>2024-04-14T08:41:12.000Z</time>
      </trkpt>
      <trkpt lat="42.256335" lon="3.06106">
        <ele>6.286133</ele>
        <time>2024-04-14T08:41:47.000Z</time>
      </trkpt>
      <trkpt lat="42.256217" lon="3.060492">
        <ele>6.297385</ele>
        <time>2024-04-14T08:41:52.000Z</time>
      </trkpt>
      <trkpt lat="42.256144" lon="3.059802">
        <ele>6.272728</ele>
        <time>2024-04-14T08:41:58.000Z</time>
      </trkpt>
      <trkpt lat="42.256138" lon="3.059305">
        <ele>6.254746</ele>
        <time>2024-04-14T08:42:02.000Z</time>
      </trkpt>
      <trkpt lat="42.256305" lon="3.057778">
        <ele>6.210773</ele>
        <time>2024-04-14T08:42:15.000Z</time>
      </trkpt>
      <trkpt lat="42.2563" lon="3.057639">
        <ele>6.209016</ele>
        <time>2024-04-14T08:42:16.000Z</time>
      </trkpt>
      <trkpt lat="42.256219" lon="3.05718">
        <ele>6.203444</ele>
        <time>2024-04-14T08:42:20.000Z</time>
      </trkpt>
      <trkpt lat="42.256289" lon="3.056534">
        <ele>6.195686</ele>
        <time>2024-04-14T08:42:25.000Z</time>
      </trkpt>
      <trkpt lat="42.255947" lon="3.056382">
        <ele>6.189852</ele>
        <time>2024-04-14T08:42:29.000Z</time>
      </trkpt>
      <trkpt lat="42.255645" lon="3.056085">
        <ele>6.109664</ele>
        <time>2024-04-14T08:42:33.000Z</time>
      </trkpt>
      <trkpt lat="42.254444" lon="3.054338">
        <ele>5.349334</ele>
        <time>2024-04-14T08:42:53.000Z</time>
      </trkpt>
      <trkpt lat="42.252845" lon="3.051942">
        <ele>4.178853</ele>
        <time>2024-04-14T08:43:20.000Z</time>
      </trkpt>
      <trkpt lat="42.252587" lon="3.05147">
        <ele>4.066786</ele>
        <time>2024-04-14T08:43:25.000Z</time>
      </trkpt>
      <trkpt lat="42.252288" lon="3.050314">
        <ele>4.005261</ele>
        <time>2024-04-14T08:43:35.000Z</time>
      </trkpt>
      <trkpt lat="42.25206" lon="3.049719">
        <ele>4.181689</ele>
        <time>2024-04-14T08:43:41.000Z</time>
      </trkpt>
      <trkpt lat="42.251607" lon="3.04888">
        <ele>4.444632</ele>
        <time>2024-04-14T08:43:50.000Z</time>
      </trkpt>
      <trkpt lat="42.25022" lon="3.046998">
        <ele>4.86886</ele>
        <time>2024-04-14T08:44:12.000Z</time>
      </trkpt>
      <trkpt lat="42.25005" lon="3.046827">
        <ele>4.832045</ele>
        <time>2024-04-14T08:44:14.000Z</time>
      </trkpt>
      <trkpt lat="42.249699" lon="3.046559">
        <ele>4.682425</ele>
        <time>2024-04-14T08:44:18.000Z</time>
      </trkpt>
      <trkpt lat="42.249553" lon="3.046457">
        <ele>4.618284</ele>
        <time>2024-04-14T08:44:20.000Z</time>
      </trkpt>
      <trkpt lat="42.248327" lon="3.045599">
        <ele>4.207841</ele>
        <time>2024-04-14T08:44:35.000Z</time>
      </trkpt>
      <trkpt lat="42.247854" lon="3.045124">
        <ele>4.206644</ele>
        <time>2024-04-14T08:44:42.000Z</time>
      </trkpt>
      <trkpt lat="42.247503" lon="3.044651">
        <ele>4.205604</ele>
        <time>2024-04-14T08:44:48.000Z</time>
      </trkpt>
      <trkpt lat="42.247058" lon="3.044065">
        <ele>4.337075</ele>
        <time>2024-04-14T08:44:55.000Z</time>
      </trkpt>
      <trkpt lat="42.246581" lon="3.043458">
        <ele>4.75995</ele>
        <time>2024-04-14T08:45:02.000Z</time>
      </trkpt>
      <trkpt lat="42.246257" lon="3.042943">
        <ele>5.088664</ele>
        <time>2024-04-14T08:45:08.000Z</time>
      </trkpt>
      <trkpt lat="42.245993" lon="3.042148">
        <ele>5.463878</ele>
        <time>2024-04-14T08:45:15.000Z</time>
      </trkpt>
      <trkpt lat="42.245895" lon="3.041897">
        <ele>5.557909</ele>
        <time>2024-04-14T08:45:17.000Z</time>
      </trkpt>
      <trkpt lat="42.245479" lon="3.041207">
        <ele>5.848002</ele>
        <time>2024-04-14T08:45:24.000Z</time>
      </trkpt>
      <trkpt lat="42.245405" lon="3.041038">
        <ele>5.910164</ele>
        <time>2024-04-14T08:45:26.000Z</time>
      </trkpt>
      <trkpt lat="42.24493" lon="3.040003">
        <ele>6.220725</ele>
        <time>2024-04-14T08:45:36.000Z</time>
      </trkpt>
      <trkpt lat="42.244827" lon="3.039738">
        <ele>6.257476</ele>
        <time>2024-04-14T08:45:38.000Z</time>
      </trkpt>
      <trkpt lat="42.244578" lon="3.039177">
        <ele>6.339438</ele>
        <time>2024-04-14T08:45:43.000Z</time>
      </trkpt>
      <trkpt lat="42.244141" lon="3.038537">
        <ele>6.450024</ele>
        <time>2024-04-14T08:45:50.000Z</time>
      </trkpt>
      <trkpt lat="42.244083" lon="3.038458">
        <ele>6.463352</ele>
        <time>2024-04-14T08:45:51.000Z</time>
      </trkpt>
      <trkpt lat="42.243985" lon="3.038327">
        <ele>6.47209</ele>
        <time>2024-04-14T08:45:53.000Z</time>
      </trkpt>
      <trkpt lat="42.243954" lon="3.038263">
        <ele>6.472079</ele>
        <time>2024-04-14T08:45:54.000Z</time>
      </trkpt>
      <trkpt lat="42.243467" lon="3.037499">
        <ele>6.471704</ele>
        <time>2024-04-14T08:46:02.000Z</time>
      </trkpt>
      <trkpt lat="42.242909" lon="3.036527">
        <ele>6.47127</ele>
        <time>2024-04-14T08:46:12.000Z</time>
      </trkpt>
      <trkpt lat="42.242728" lon="3.036004">
        <ele>6.378065</ele>
        <time>2024-04-14T08:46:17.000Z</time>
      </trkpt>
      <trkpt lat="42.24191" lon="3.033474">
        <ele>6.243748</ele>
        <time>2024-04-14T08:46:40.000Z</time>
      </trkpt>
      <trkpt lat="42.241941" lon="3.033247">
        <ele>6.284212</ele>
        <time>2024-04-14T08:46:42.000Z</time>
      </trkpt>
      <trkpt lat="42.242014" lon="3.033128">
        <ele>6.310632</ele>
        <time>2024-04-14T08:46:43.000Z</time>
      </trkpt>
      <trkpt lat="42.242005" lon="3.033004">
        <ele>6.335906</ele>
        <time>2024-04-14T08:46:44.000Z</time>
      </trkpt>
      <trkpt lat="42.242022" lon="3.032757">
        <ele>6.3806</ele>
        <time>2024-04-14T08:46:46.000Z</time>
      </trkpt>
      <trkpt lat="42.24208" lon="3.032573">
        <ele>6.416716</ele>
        <time>2024-04-14T08:46:48.000Z</time>
      </trkpt>
      <trkpt lat="42.242166" lon="3.03224">
        <ele>6.48105</ele>
        <time>2024-04-14T08:46:51.000Z</time>
      </trkpt>
      <trkpt lat="42.242463" lon="3.031655">
        <ele>6.810262</ele>
        <time>2024-04-14T08:46:57.000Z</time>
      </trkpt>
      <trkpt lat="42.242667" lon="3.031183">
        <ele>7.122143</ele>
        <time>2024-04-14T08:47:01.000Z</time>
      </trkpt>
      <trkpt lat="42.243083" lon="3.03009">
        <ele>7.824287</ele>
        <time>2024-04-14T08:47:11.000Z</time>
      </trkpt>
      <trkpt lat="42.243305" lon="3.029664">
        <ele>8.055935</ele>
        <time>2024-04-14T08:47:15.000Z</time>
      </trkpt>
      <trkpt lat="42.244026" lon="3.028621">
        <ele>8.604243</ele>
        <time>2024-04-14T08:47:27.000Z</time>
      </trkpt>
      <trkpt lat="42.244057" lon="3.028507">
        <ele>8.655923</ele>
        <time>2024-04-14T08:47:28.000Z</time>
      </trkpt>
      <trkpt lat="42.244062" lon="3.028069">
        <ele>8.83029</ele>
        <time>2024-04-14T08:47:32.000Z</time>
      </trkpt>
      <trkpt lat="42.24406" lon="3.027981">
        <ele>8.855765</ele>
        <time>2024-04-14T08:47:33.000Z</time>
      </trkpt>
      <trkpt lat="42.244115" lon="3.02783">
        <ele>8.829024</ele>
        <time>2024-04-14T08:47:34.000Z</time>
      </trkpt>
      <trkpt lat="42.24424" lon="3.027687">
        <ele>8.794847</ele>
        <time>2024-04-14T08:47:36.000Z</time>
      </trkpt>
      <trkpt lat="42.244869" lon="3.027248">
        <ele>8.636276</ele>
        <time>2024-04-14T08:47:44.000Z</time>
      </trkpt>
      <trkpt lat="42.245163" lon="3.027088">
        <ele>8.564921</ele>
        <time>2024-04-14T08:47:48.000Z</time>
      </trkpt>
      <trkpt lat="42.245242" lon="3.027037">
        <ele>8.542666</ele>
        <time>2024-04-14T08:47:49.000Z</time>
      </trkpt>
      <trkpt lat="42.245745" lon="3.026695">
        <ele>8.428771</ele>
        <time>2024-04-14T08:47:55.000Z</time>
      </trkpt>
      <trkpt lat="42.246342" lon="3.026551">
        <ele>8.330687</ele>
        <time>2024-04-14T08:48:02.000Z</time>
      </trkpt>
      <trkpt lat="42.246613" lon="3.02641">
        <ele>8.280769</ele>
        <time>2024-04-14T08:48:05.000Z</time>
      </trkpt>
      <trkpt lat="42.246759" lon="3.026304">
        <ele>8.255227</ele>
        <time>2024-04-14T08:48:07.000Z</time>
      </trkpt>
      <trkpt lat="42.24693" lon="3.026157">
        <ele>8.220404</ele>
        <time>2024-04-14T08:48:09.000Z</time>
      </trkpt>
      <trkpt lat="42.247631" lon="3.025643">
        <ele>8.250108</ele>
        <time>2024-04-14T08:48:18.000Z</time>
      </trkpt>
      <trkpt lat="42.249163" lon="3.02487">
        <ele>8.565286</ele>
        <time>2024-04-14T08:48:36.000Z</time>
      </trkpt>
      <trkpt lat="42.250324" lon="3.02409">
        <ele>8.76435</ele>
        <time>2024-04-14T08:48:50.000Z</time>
      </trkpt>
      <trkpt lat="42.250578" lon="3.023868">
        <ele>8.813396</ele>
        <time>2024-04-14T08:48:53.000Z</time>
      </trkpt>
      <trkpt lat="42.250753" lon="3.023609">
        <ele>8.860866</ele>
        <time>2024-04-14T08:48:56.000Z</time>
      </trkpt>
      <trkpt lat="42.251093" lon="3.023203">
        <ele>8.944309</ele>
        <time>2024-04-14T08:49:01.000Z</time>
      </trkpt>
      <trkpt lat="42.251625" lon="3.022743">
        <ele>9.057362</ele>
        <time>2024-04-14T08:49:08.000Z</time>
      </trkpt>
      <trkpt lat="42.252329" lon="3.022274">
        <ele>9.291818</ele>
        <time>2024-04-14T08:49:17.000Z</time>
      </trkpt>
      <trkpt lat="42.252939" lon="3.0218">
        <ele>9.577677</ele>
        <time>2024-04-14T08:49:25.000Z</time>
      </trkpt>
      <trkpt lat="42.253585" lon="3.021197">
        <ele>9.893953</ele>
        <time>2024-04-14T08:49:34.000Z</time>
      </trkpt>
      <trkpt lat="42.254199" lon="3.020579">
        <ele>10.143983</ele>
        <time>2024-04-14T08:49:43.000Z</time>
      </trkpt>
      <trkpt lat="42.254785" lon="3.019829">
        <ele>10.403179</ele>
        <time>2024-04-14T08:49:52.000Z</time>
      </trkpt>
      <trkpt lat="42.255749" lon="3.018521">
        <ele>10.859146</ele>
        <time>2024-04-14T08:50:07.000Z</time>
      </trkpt>
      <trkpt lat="42.256238" lon="3.017914">
        <ele>11.083259</ele>
        <time>2024-04-14T08:50:14.000Z</time>
      </trkpt>
      <trkpt lat="42.256824" lon="3.017232">
        <ele>11.351103</ele>
        <time>2024-04-14T08:50:23.000Z</time>
      </trkpt>
      <trkpt lat="42.257202" lon="3.016915">
        <ele>11.505814</ele>
        <time>2024-04-14T08:50:28.000Z</time>
      </trkpt>
      <trkpt lat="42.257604" lon="3.016627">
        <ele>11.659992</ele>
        <time>2024-04-14T08:50:33.000Z</time>
      </trkpt>
      <trkpt lat="42.257985" lon="3.016435">
        <ele>11.641794</ele>
        <time>2024-04-14T08:50:38.000Z</time>
      </trkpt>
      <trkpt lat="42.259222" lon="3.015684">
        <ele>11.532546</ele>
        <time>2024-04-14T08:50:53.000Z</time>
      </trkpt>
      <trkpt lat="42.259451" lon="3.01559">
        <ele>11.483611</ele>
        <time>2024-04-14T08:50:56.000Z</time>
      </trkpt>
      <trkpt lat="42.260253" lon="3.015368">
        <ele>11.268033</ele>
        <time>2024-04-14T08:51:05.000Z</time>
      </trkpt>
      <trkpt lat="42.261074" lon="3.015072">
        <ele>11.058061</ele>
        <time>2024-04-14T08:51:14.000Z</time>
      </trkpt>
      <trkpt lat="42.261262" lon="3.015129">
        <ele>11.054261</ele>
        <time>2024-04-14T08:51:16.000Z</time>
      </trkpt>
      <trkpt lat="42.261312" lon="3.015243">
        <ele>11.052292</ele>
        <time>2024-04-14T08:51:17.000Z</time>
      </trkpt>
      <trkpt lat="42.261381" lon="3.015322">
        <ele>11.050487</ele>
        <time>2024-04-14T08:51:18.000Z</time>
      </trkpt>
      <trkpt lat="42.261477" lon="3.015333">
        <ele>11.048734</ele>
        <time>2024-04-14T08:51:19.000Z</time>
      </trkpt>
      <trkpt lat="42.261557" lon="3.015315">
        <ele>11.04688</ele>
        <time>2024-04-14T08:51:20.000Z</time>
      </trkpt>
      <trkpt lat="42.261624" lon="3.015243">
        <ele>11.045189</ele>
        <time>2024-04-14T08:51:21.000Z</time>
      </trkpt>
      <trkpt lat="42.261666" lon="3.015194">
        <ele>11.044089</ele>
        <time>2024-04-14T08:51:22.000Z</time>
      </trkpt>
      <trkpt lat="42.261701" lon="3.015089">
        <ele>11.042454</ele>
        <time>2024-04-14T08:51:23.000Z</time>
      </trkpt>
      <trkpt lat="42.261681" lon="3.014931">
        <ele>11.040019</ele>
        <time>2024-04-14T08:51:24.000Z</time>
      </trkpt>
      <trkpt lat="42.26164" lon="3.014816">
        <ele>11.038077</ele>
        <time>2024-04-14T08:51:25.000Z</time>
      </trkpt>
      <trkpt lat="42.261574" lon="3.014752">
        <ele>11.036481</ele>
        <time>2024-04-14T08:51:26.000Z</time>
      </trkpt>
      <trkpt lat="42.261478" lon="3.014736">
        <ele>11.034531</ele>
        <time>2024-04-14T08:51:27.000Z</time>
      </trkpt>
      <trkpt lat="42.2614" lon="3.014745">
        <ele>11.03317</ele>
        <time>2024-04-14T08:51:28.000Z</time>
      </trkpt>
      <trkpt lat="42.261232" lon="3.014641">
        <ele>11.02913</ele>
        <time>2024-04-14T08:51:30.000Z</time>
      </trkpt>
      <trkpt lat="42.260793" lon="3.014035">
        <ele>11.077339</ele>
        <time>2024-04-14T08:51:37.000Z</time>
      </trkpt>
      <trkpt lat="42.259254" lon="3.011971">
        <ele>11.571348</ele>
        <time>2024-04-14T08:52:01.000Z</time>
      </trkpt>
      <trkpt lat="42.258872" lon="3.011358">
        <ele>11.766344</ele>
        <time>2024-04-14T08:52:08.000Z</time>
      </trkpt>
      <trkpt lat="42.258758" lon="3.011104">
        <ele>11.840097</ele>
        <time>2024-04-14T08:52:10.000Z</time>
      </trkpt>
      <trkpt lat="42.257823" lon="3.008717">
        <ele>12.744979</ele>
        <time>2024-04-14T08:52:32.000Z</time>
      </trkpt>
      <trkpt lat="42.257405" lon="3.007789">
        <ele>13.185515</ele>
        <time>2024-04-14T08:52:41.000Z</time>
      </trkpt>
      <trkpt lat="42.257048" lon="3.007143">
        <ele>13.515511</ele>
        <time>2024-04-14T08:52:48.000Z</time>
      </trkpt>
      <trkpt lat="42.256506" lon="3.006019">
        <ele>13.998237</ele>
        <time>2024-04-14T08:52:59.000Z</time>
      </trkpt>
      <trkpt lat="42.255899" lon="3.004271">
        <ele>14.5756</ele>
        <time>2024-04-14T08:53:15.000Z</time>
      </trkpt>
      <trkpt lat="42.254139" lon="3.002131">
        <ele>15.725793</ele>
        <time>2024-04-14T08:53:41.000Z</time>
      </trkpt>
      <trkpt lat="42.252767" lon="3.000447">
        <ele>18.686046</ele>
        <time>2024-04-14T08:54:02.000Z</time>
      </trkpt>
      <trkpt lat="42.252625" lon="3.000258">
        <ele>19.195896</ele>
        <time>2024-04-14T08:54:04.000Z</time>
      </trkpt>
      <trkpt lat="42.252503" lon="3.000068">
        <ele>19.651609</ele>
        <time>2024-04-14T08:54:06.000Z</time>
      </trkpt>
      <trkpt lat="42.251594" lon="2.998509">
        <ele>23.273675</ele>
        <time>2024-04-14T08:54:22.000Z</time>
      </trkpt>
      <trkpt lat="42.251239" lon="2.997853">
        <ele>24.716869</ele>
        <time>2024-04-14T08:54:29.000Z</time>
      </trkpt>
      <trkpt lat="42.251111" lon="2.997675">
        <ele>25.155836</ele>
        <time>2024-04-14T08:54:31.000Z</time>
      </trkpt>
      <trkpt lat="42.251083" lon="2.997621">
        <ele>25.277005</ele>
        <time>2024-04-14T08:54:32.000Z</time>
      </trkpt>
      <trkpt lat="42.250973" lon="2.997731">
        <ele>25.603045</ele>
        <time>2024-04-14T08:54:34.000Z</time>
      </trkpt>
      <trkpt lat="42.250766" lon="2.997835">
        <ele>25.570324</ele>
        <time>2024-04-14T08:54:36.000Z</time>
      </trkpt>
      <trkpt lat="42.250386" lon="2.997916">
        <ele>25.311985</ele>
        <time>2024-04-14T08:54:40.000Z</time>
      </trkpt>
      <trkpt lat="42.249914" lon="2.99805">
        <ele>24.980986</ele>
        <time>2024-04-14T08:54:45.000Z</time>
      </trkpt>
      <trkpt lat="42.249673" lon="2.998143">
        <ele>24.813557</ele>
        <time>2024-04-14T08:54:48.000Z</time>
      </trkpt>
      <trkpt lat="42.249511" lon="2.998247">
        <ele>24.680845</ele>
        <time>2024-04-14T08:54:50.000Z</time>
      </trkpt>
      <trkpt lat="42.248949" lon="2.998638">
        <ele>23.916291</ele>
        <time>2024-04-14T08:54:57.000Z</time>
      </trkpt>
      <trkpt lat="42.248189" lon="2.999123">
        <ele>22.389475</ele>
        <time>2024-04-14T08:55:06.000Z</time>
      </trkpt>
      <trkpt lat="42.247891" lon="2.999305">
        <ele>21.792743</ele>
        <time>2024-04-14T08:55:10.000Z</time>
      </trkpt>
      <trkpt lat="42.24748" lon="2.999529">
        <ele>21.084998</ele>
        <time>2024-04-14T08:55:15.000Z</time>
      </trkpt>
      <trkpt lat="42.246649" lon="2.999846">
        <ele>20.222147</ele>
        <time>2024-04-14T08:55:25.000Z</time>
      </trkpt>
      <trkpt lat="42.246315" lon="2.999957">
        <ele>19.866067</ele>
        <time>2024-04-14T08:55:29.000Z</time>
      </trkpt>
      <trkpt lat="42.245793" lon="3.000036">
        <ele>19.38973</ele>
        <time>2024-04-14T08:55:35.000Z</time>
      </trkpt>
      <trkpt lat="42.244686" lon="2.999932">
        <ele>19.335677</ele>
        <time>2024-04-14T08:55:47.000Z</time>
      </trkpt>
      <trkpt lat="42.244068" lon="3.000049">
        <ele>19.305302</ele>
        <time>2024-04-14T08:55:54.000Z</time>
      </trkpt>
      <trkpt lat="42.243927" lon="3.00002">
        <ele>19.354316</ele>
        <time>2024-04-14T08:55:56.000Z</time>
      </trkpt>
      <trkpt lat="42.243687" lon="2.999854">
        <ele>19.463439</ele>
        <time>2024-04-14T08:55:59.000Z</time>
      </trkpt>
      <trkpt lat="42.243383" lon="2.999697">
        <ele>19.589437</ele>
        <time>2024-04-14T08:56:03.000Z</time>
      </trkpt>
      <trkpt lat="42.243349" lon="2.999704">
        <ele>19.605784</ele>
        <time>2024-04-14T08:56:03.000Z</time>
      </trkpt>
      <trkpt lat="42.243159" lon="2.999628">
        <ele>19.684139</ele>
        <time>2024-04-14T08:56:05.000Z</time>
      </trkpt>
      <trkpt lat="42.242906" lon="2.999363">
        <ele>19.808425</ele>
        <time>2024-04-14T08:56:09.000Z</time>
      </trkpt>
      <trkpt lat="42.24272" lon="2.999111">
        <ele>19.914405</ele>
        <time>2024-04-14T08:56:12.000Z</time>
      </trkpt>
      <trkpt lat="42.241491" lon="2.997639">
        <ele>20.489127</ele>
        <time>2024-04-14T08:56:30.000Z</time>
      </trkpt>
      <trkpt lat="42.2411" lon="2.99729">
        <ele>20.618636</ele>
        <time>2024-04-14T08:56:35.000Z</time>
      </trkpt>
      <trkpt lat="42.240501" lon="2.99693">
        <ele>20.516389</ele>
        <time>2024-04-14T08:56:42.000Z</time>
      </trkpt>
      <trkpt lat="42.239499" lon="2.996303">
        <ele>20.336555</ele>
        <time>2024-04-14T08:56:54.000Z</time>
      </trkpt>
      <trkpt lat="42.239155" lon="2.996195">
        <ele>20.152993</ele>
        <time>2024-04-14T08:56:58.000Z</time>
      </trkpt>
      <trkpt lat="42.238412" lon="2.996047">
        <ele>19.760259</ele>
        <time>2024-04-14T08:57:06.000Z</time>
      </trkpt>
      <trkpt lat="42.237244" lon="2.995628">
        <ele>19.173917</ele>
        <time>2024-04-14T08:57:19.000Z</time>
      </trkpt>
      <trkpt lat="42.236671" lon="2.995496">
        <ele>18.917605</ele>
        <time>2024-04-14T08:57:25.000Z</time>
      </trkpt>
      <trkpt lat="42.236537" lon="2.99548">
        <ele>18.854361</ele>
        <time>2024-04-14T08:57:26.000Z</time>
      </trkpt>
      <trkpt lat="42.236376" lon="2.995497">
        <ele>18.786164</ele>
        <time>2024-04-14T08:57:28.000Z</time>
      </trkpt>
      <trkpt lat="42.236146" lon="2.995578">
        <ele>18.682685</ele>
        <time>2024-04-14T08:57:31.000Z</time>
      </trkpt>
      <trkpt lat="42.235744" lon="2.995778">
        <ele>18.675227</ele>
        <time>2024-04-14T08:57:36.000Z</time>
      </trkpt>
      <trkpt lat="42.234966" lon="2.996047">
        <ele>18.854887</ele>
        <time>2024-04-14T08:57:45.000Z</time>
      </trkpt>
      <trkpt lat="42.233939" lon="2.996507">
        <ele>19.24176</ele>
        <time>2024-04-14T08:57:57.000Z</time>
      </trkpt>
      <trkpt lat="42.233216" lon="2.996945">
        <ele>19.719321</ele>
        <time>2024-04-14T08:58:06.000Z</time>
      </trkpt>
      <trkpt lat="42.232597" lon="2.99718">
        <ele>20.109851</ele>
        <time>2024-04-14T08:58:13.000Z</time>
      </trkpt>
      <trkpt lat="42.232227" lon="2.997129">
        <ele>20.147636</ele>
        <time>2024-04-14T08:58:17.000Z</time>
      </trkpt>
      <trkpt lat="42.231987" lon="2.997024">
        <ele>20.173195</ele>
        <time>2024-04-14T08:58:20.000Z</time>
      </trkpt>
      <trkpt lat="42.231963" lon="2.996909">
        <ele>20.182311</ele>
        <time>2024-04-14T08:58:21.000Z</time>
      </trkpt>
      <trkpt lat="42.231908" lon="2.996819">
        <ele>20.190407</ele>
        <time>2024-04-14T08:58:22.000Z</time>
      </trkpt>
      <trkpt lat="42.231795" lon="2.996768">
        <ele>20.201925</ele>
        <time>2024-04-14T08:58:23.000Z</time>
      </trkpt>
      <trkpt lat="42.231712" lon="2.996807">
        <ele>20.210499</ele>
        <time>2024-04-14T08:58:24.000Z</time>
      </trkpt>
      <trkpt lat="42.231698" lon="2.996826">
        <ele>20.213182</ele>
        <time>2024-04-14T08:58:24.000Z</time>
      </trkpt>
      <trkpt lat="42.231637" lon="2.996928">
        <ele>20.223046</ele>
        <time>2024-04-14T08:58:25.000Z</time>
      </trkpt>
      <trkpt lat="42.231604" lon="2.997023">
        <ele>20.230549</ele>
        <time>2024-04-14T08:58:26.000Z</time>
      </trkpt>
      <trkpt lat="42.231633" lon="2.997136">
        <ele>20.238935</ele>
        <time>2024-04-14T08:58:27.000Z</time>
      </trkpt>
      <trkpt lat="42.231668" lon="2.997207">
        <ele>20.245549</ele>
        <time>2024-04-14T08:58:28.000Z</time>
      </trkpt>
      <trkpt lat="42.231655" lon="2.997541">
        <ele>20.270315</ele>
        <time>2024-04-14T08:58:31.000Z</time>
      </trkpt>
      <trkpt lat="42.231553" lon="2.997787">
        <ele>20.291007</ele>
        <time>2024-04-14T08:58:33.000Z</time>
      </trkpt>
      <trkpt lat="42.231468" lon="2.997973">
        <ele>20.251872</ele>
        <time>2024-04-14T08:58:35.000Z</time>
      </trkpt>
      <trkpt lat="42.230455" lon="2.998642">
        <ele>19.984751</ele>
        <time>2024-04-14T08:58:48.000Z</time>
      </trkpt>
      <trkpt lat="42.229434" lon="2.999055">
        <ele>19.708631</ele>
        <time>2024-04-14T08:59:00.000Z</time>
      </trkpt>
      <trkpt lat="42.229368" lon="2.999048">
        <ele>19.691684</ele>
        <time>2024-04-14T08:59:01.000Z</time>
      </trkpt>
      <trkpt lat="42.229382" lon="2.998902">
        <ele>19.662649</ele>
        <time>2024-04-14T08:59:02.000Z</time>
      </trkpt>
      <trkpt lat="42.229358" lon="2.998833">
        <ele>19.648071</ele>
        <time>2024-04-14T08:59:03.000Z</time>
      </trkpt>
      <trkpt lat="42.229257" lon="2.998754">
        <ele>19.619197</ele>
        <time>2024-04-14T08:59:04.000Z</time>
      </trkpt>
      <trkpt lat="42.229241" lon="2.998747">
        <ele>19.612903</ele>
        <time>2024-04-14T08:59:04.000Z</time>
      </trkpt>
      <trkpt lat="42.229075" lon="2.998437">
        <ele>19.532872</ele>
        <time>2024-04-14T08:59:07.000Z</time>
      </trkpt>
      <trkpt lat="42.228926" lon="2.998056">
        <ele>19.447684</ele>
        <time>2024-04-14T08:59:11.000Z</time>
      </trkpt>
      <trkpt lat="42.228851" lon="2.997903">
        <ele>19.408313</ele>
        <time>2024-04-14T08:59:13.000Z</time>
      </trkpt>
      <trkpt lat="42.228634" lon="2.997527">
        <ele>19.402943</ele>
        <time>2024-04-14T08:59:17.000Z</time>
      </trkpt>
      <trkpt lat="42.228636" lon="2.997425">
        <ele>19.416359</ele>
        <time>2024-04-14T08:59:18.000Z</time>
      </trkpt>
      <trkpt lat="42.228585" lon="2.997324">
        <ele>19.42969</ele>
        <time>2024-04-14T08:59:19.000Z</time>
      </trkpt>
      <trkpt lat="42.228504" lon="2.997281">
        <ele>19.443558</ele>
        <time>2024-04-14T08:59:20.000Z</time>
      </trkpt>
      <trkpt lat="42.228435" lon="2.997299">
        <ele>19.457373</ele>
        <time>2024-04-14T08:59:21.000Z</time>
      </trkpt>
      <trkpt lat="42.228281" lon="2.997281">
        <ele>19.480366</ele>
        <time>2024-04-14T08:59:23.000Z</time>
      </trkpt>
      <trkpt lat="42.228056" lon="2.997119">
        <ele>19.521548</ele>
        <time>2024-04-14T08:59:26.000Z</time>
      </trkpt>
      <trkpt lat="42.227966" lon="2.996962">
        <ele>19.547523</ele>
        <time>2024-04-14T08:59:28.000Z</time>
      </trkpt>
      <trkpt lat="42.227946" lon="2.996815">
        <ele>19.564006</ele>
        <time>2024-04-14T08:59:29.000Z</time>
      </trkpt>
      <trkpt lat="42.227863" lon="2.996738">
        <ele>19.580555</ele>
        <time>2024-04-14T08:59:30.000Z</time>
      </trkpt>
      <trkpt lat="42.227797" lon="2.996732">
        <ele>19.590633</ele>
        <time>2024-04-14T08:59:31.000Z</time>
      </trkpt>
      <trkpt lat="42.227689" lon="2.996565">
        <ele>19.61655</ele>
        <time>2024-04-14T08:59:33.000Z</time>
      </trkpt>
      <trkpt lat="42.227644" lon="2.996433">
        <ele>19.633661</ele>
        <time>2024-04-14T08:59:34.000Z</time>
      </trkpt>
      <trkpt lat="42.227651" lon="2.995657">
        <ele>20.375454</ele>
        <time>2024-04-14T08:59:40.000Z</time>
      </trkpt>
      <trkpt lat="42.227602" lon="2.995371">
        <ele>20.758204</ele>
        <time>2024-04-14T08:59:42.000Z</time>
      </trkpt>
      <trkpt lat="42.227583" lon="2.99531">
        <ele>20.844377</ele>
        <time>2024-04-14T08:59:43.000Z</time>
      </trkpt>
      <trkpt lat="42.22758" lon="2.995095">
        <ele>21.120472</ele>
        <time>2024-04-14T08:59:45.000Z</time>
      </trkpt>
      <trkpt lat="42.227611" lon="2.994974">
        <ele>21.307478</ele>
        <time>2024-04-14T08:59:46.000Z</time>
      </trkpt>
      <trkpt lat="42.227697" lon="2.994842">
        <ele>21.53195</ele>
        <time>2024-04-14T08:59:47.000Z</time>
      </trkpt>
      <trkpt lat="42.22771" lon="2.994717">
        <ele>21.717377</ele>
        <time>2024-04-14T08:59:48.000Z</time>
      </trkpt>
      <trkpt lat="42.227661" lon="2.994606">
        <ele>21.866628</ele>
        <time>2024-04-14T08:59:49.000Z</time>
      </trkpt>
      <trkpt lat="42.227592" lon="2.99458">
        <ele>22.004896</ele>
        <time>2024-04-14T08:59:50.000Z</time>
      </trkpt>
      <trkpt lat="42.227552" lon="2.994558">
        <ele>22.08272</ele>
        <time>2024-04-14T08:59:50.000Z</time>
      </trkpt>
      <trkpt lat="42.227509" lon="2.994574">
        <ele>22.157611</ele>
        <time>2024-04-14T08:59:50.000Z</time>
      </trkpt>
      <trkpt lat="42.227401" lon="2.994544">
        <ele>22.333036</ele>
        <time>2024-04-14T08:59:51.000Z</time>
      </trkpt>
      <trkpt lat="42.227311" lon="2.994469">
        <ele>22.54772</ele>
        <time>2024-04-14T08:59:52.000Z</time>
      </trkpt>
      <trkpt lat="42.226499" lon="2.992488">
        <ele>26.377424</ele>
        <time>2024-04-14T09:00:11.000Z</time>
      </trkpt>
      <trkpt lat="42.226303" lon="2.992059">
        <ele>27.17705</ele>
        <time>2024-04-14T09:00:15.000Z</time>
      </trkpt>
      <trkpt lat="42.22606" lon="2.991603">
        <ele>27.805615</ele>
        <time>2024-04-14T09:00:20.000Z</time>
      </trkpt>
      <trkpt lat="42.224616" lon="2.98893">
        <ele>30.933251</ele>
        <time>2024-04-14T09:00:47.000Z</time>
      </trkpt>
      <trkpt lat="42.224412" lon="2.988599">
        <ele>31.261787</ele>
        <time>2024-04-14T09:00:51.000Z</time>
      </trkpt>
      <trkpt lat="42.222874" lon="2.986557">
        <ele>32.382403</ele>
        <time>2024-04-14T09:01:15.000Z</time>
      </trkpt>
      <trkpt lat="42.22265" lon="2.986196">
        <ele>32.401563</ele>
        <time>2024-04-14T09:01:19.000Z</time>
      </trkpt>
      <trkpt lat="42.222062" lon="2.985025">
        <ele>32.459224</ele>
        <time>2024-04-14T09:01:31.000Z</time>
      </trkpt>
      <trkpt lat="42.221974" lon="2.984841">
        <ele>32.468743</ele>
        <time>2024-04-14T09:01:33.000Z</time>
      </trkpt>
      <trkpt lat="42.221676" lon="2.984393">
        <ele>32.639417</ele>
        <time>2024-04-14T09:01:38.000Z</time>
      </trkpt>
      <trkpt lat="42.221093" lon="2.983622">
        <ele>33.16221</ele>
        <time>2024-04-14T09:01:47.000Z</time>
      </trkpt>
      <trkpt lat="42.220936" lon="2.98335">
        <ele>33.325699</ele>
        <time>2024-04-14T09:01:50.000Z</time>
      </trkpt>
      <trkpt lat="42.220752" lon="2.982963">
        <ele>33.545817</ele>
        <time>2024-04-14T09:01:54.000Z</time>
      </trkpt>
      <trkpt lat="42.220414" lon="2.981974">
        <ele>34.274303</ele>
        <time>2024-04-14T09:02:03.000Z</time>
      </trkpt>
      <trkpt lat="42.220266" lon="2.981569">
        <ele>34.591421</ele>
        <time>2024-04-14T09:02:07.000Z</time>
      </trkpt>
      <trkpt lat="42.220112" lon="2.981248">
        <ele>34.875717</ele>
        <time>2024-04-14T09:02:10.000Z</time>
      </trkpt>
      <trkpt lat="42.219882" lon="2.980872">
        <ele>35.215654</ele>
        <time>2024-04-14T09:02:14.000Z</time>
      </trkpt>
      <trkpt lat="42.219514" lon="2.980435">
        <ele>35.724282</ele>
        <time>2024-04-14T09:02:19.000Z</time>
      </trkpt>
      <trkpt lat="42.218765" lon="2.979991">
        <ele>36.631352</ele>
        <time>2024-04-14T09:02:28.000Z</time>
      </trkpt>
      <trkpt lat="42.218551" lon="2.97976">
        <ele>36.922374</ele>
        <time>2024-04-14T09:02:31.000Z</time>
      </trkpt>
      <trkpt lat="42.218476" lon="2.979512">
        <ele>37.138603</ele>
        <time>2024-04-14T09:02:33.000Z</time>
      </trkpt>
      <trkpt lat="42.218159" lon="2.97837">
        <ele>38.18648</ele>
        <time>2024-04-14T09:02:43.000Z</time>
      </trkpt>
      <trkpt lat="42.218036" lon="2.977821">
        <ele>38.682815</ele>
        <time>2024-04-14T09:02:48.000Z</time>
      </trkpt>
      <trkpt lat="42.217942" lon="2.977465">
        <ele>38.999966</ele>
        <time>2024-04-14T09:02:51.000Z</time>
      </trkpt>
      <trkpt lat="42.217857" lon="2.977158">
        <ele>39.283545</ele>
        <time>2024-04-14T09:02:54.000Z</time>
      </trkpt>
      <trkpt lat="42.21773" lon="2.97682">
        <ele>39.6158</ele>
        <time>2024-04-14T09:02:57.000Z</time>
      </trkpt>
      <trkpt lat="42.217463" lon="2.976292">
        <ele>40.150323</ele>
        <time>2024-04-14T09:03:02.000Z</time>
      </trkpt>
      <trkpt lat="42.216753" lon="2.973992">
        <ele>42.497105</ele>
        <time>2024-04-14T09:03:23.000Z</time>
      </trkpt>
      <trkpt lat="42.216471" lon="2.973157">
        <ele>43.512301</ele>
        <time>2024-04-14T09:03:31.000Z</time>
      </trkpt>
      <trkpt lat="42.216399" lon="2.972833">
        <ele>43.878809</ele>
        <time>2024-04-14T09:03:34.000Z</time>
      </trkpt>
      <trkpt lat="42.216352" lon="2.972403">
        <ele>44.40405</ele>
        <time>2024-04-14T09:03:38.000Z</time>
      </trkpt>
      <trkpt lat="42.216319" lon="2.972279">
        <ele>44.591158</ele>
        <time>2024-04-14T09:03:39.000Z</time>
      </trkpt>
      <trkpt lat="42.216265" lon="2.972195">
        <ele>44.774677</ele>
        <time>2024-04-14T09:03:40.000Z</time>
      </trkpt>
      <trkpt lat="42.215998" lon="2.972796">
        <ele>45.809453</ele>
        <time>2024-04-14T09:03:46.000Z</time>
      </trkpt>
      <trkpt lat="42.215496" lon="2.974075">
        <ele>47.897558</ele>
        <time>2024-04-14T09:03:58.000Z</time>
      </trkpt>
      <trkpt lat="42.215236" lon="2.974524">
        <ele>48.801093</ele>
        <time>2024-04-14T09:04:03.000Z</time>
      </trkpt>
      <trkpt lat="42.214879" lon="2.975046">
        <ele>49.921086</ele>
        <time>2024-04-14T09:04:09.000Z</time>
      </trkpt>
      <trkpt lat="42.214783" lon="2.975152">
        <ele>50.193565</ele>
        <time>2024-04-14T09:04:10.000Z</time>
      </trkpt>
      <trkpt lat="42.214311" lon="2.975469">
        <ele>51.32738</ele>
        <time>2024-04-14T09:04:16.000Z</time>
      </trkpt>
      <trkpt lat="42.214074" lon="2.975574">
        <ele>51.61272</ele>
        <time>2024-04-14T09:04:19.000Z</time>
      </trkpt>
      <trkpt lat="42.213566" lon="2.975707">
        <ele>52.007163</ele>
        <time>2024-04-14T09:04:25.000Z</time>
      </trkpt>
      <trkpt lat="42.213096" lon="2.975824">
        <ele>52.366207</ele>
        <time>2024-04-14T09:04:30.000Z</time>
      </trkpt>
      <trkpt lat="42.212696" lon="2.975911">
        <ele>52.666232</ele>
        <time>2024-04-14T09:04:35.000Z</time>
      </trkpt>
      <trkpt lat="42.211737" lon="2.976021">
        <ele>52.432472</ele>
        <time>2024-04-14T09:04:46.000Z</time>
      </trkpt>
      <trkpt lat="42.211443" lon="2.976109">
        <ele>52.258842</ele>
        <time>2024-04-14T09:04:49.000Z</time>
      </trkpt>
      <trkpt lat="42.211195" lon="2.976222">
        <ele>52.113177</ele>
        <time>2024-04-14T09:04:52.000Z</time>
      </trkpt>
      <trkpt lat="42.209917" lon="2.976809">
        <ele>51.303319</ele>
        <time>2024-04-14T09:05:07.000Z</time>
      </trkpt>
      <trkpt lat="42.209754" lon="2.976841">
        <ele>51.192963</ele>
        <time>2024-04-14T09:05:09.000Z</time>
      </trkpt>
      <trkpt lat="42.209616" lon="2.976856">
        <ele>51.105745</ele>
        <time>2024-04-14T09:05:11.000Z</time>
      </trkpt>
      <trkpt lat="42.209262" lon="2.976775">
        <ele>50.89169</ele>
        <time>2024-04-14T09:05:15.000Z</time>
      </trkpt>
      <trkpt lat="42.208937" lon="2.976809">
        <ele>50.692991</ele>
        <time>2024-04-14T09:05:19.000Z</time>
      </trkpt>
      <trkpt lat="42.207668" lon="2.977195">
        <ele>50.099954</ele>
        <time>2024-04-14T09:05:33.000Z</time>
      </trkpt>
      <trkpt lat="42.207452" lon="2.977303">
        <ele>49.992773</ele>
        <time>2024-04-14T09:05:36.000Z</time>
      </trkpt>
      <trkpt lat="42.207227" lon="2.97747">
        <ele>49.8768</ele>
        <time>2024-04-14T09:05:39.000Z</time>
      </trkpt>
      <trkpt lat="42.206876" lon="2.977651">
        <ele>49.770641</ele>
        <time>2024-04-14T09:05:43.000Z</time>
      </trkpt>
      <trkpt lat="42.20616" lon="2.977924">
        <ele>49.555491</ele>
        <time>2024-04-14T09:05:51.000Z</time>
      </trkpt>
      <trkpt lat="42.205994" lon="2.977961">
        <ele>49.506047</ele>
        <time>2024-04-14T09:05:53.000Z</time>
      </trkpt>
      <trkpt lat="42.205863" lon="2.977939">
        <ele>49.471817</ele>
        <time>2024-04-14T09:05:54.000Z</time>
      </trkpt>
      <trkpt lat="42.205739" lon="2.977833">
        <ele>49.427847</ele>
        <time>2024-04-14T09:05:56.000Z</time>
      </trkpt>
      <trkpt lat="42.205569" lon="2.977736">
        <ele>49.374707</ele>
        <time>2024-04-14T09:05:58.000Z</time>
      </trkpt>
      <trkpt lat="42.205409" lon="2.977748">
        <ele>49.370863</ele>
        <time>2024-04-14T09:06:00.000Z</time>
      </trkpt>
      <trkpt lat="42.205263" lon="2.977778">
        <ele>49.377528</ele>
        <time>2024-04-14T09:06:02.000Z</time>
      </trkpt>
      <trkpt lat="42.205139" lon="2.977759">
        <ele>49.383268</ele>
        <time>2024-04-14T09:06:03.000Z</time>
      </trkpt>
      <trkpt lat="42.204992" lon="2.977674">
        <ele>49.390718</ele>
        <time>2024-04-14T09:06:05.000Z</time>
      </trkpt>
      <trkpt lat="42.204048" lon="2.977088">
        <ele>49.437962</ele>
        <time>2024-04-14T09:06:17.000Z</time>
      </trkpt>
      <trkpt lat="42.203949" lon="2.977021">
        <ele>49.443749</ele>
        <time>2024-04-14T09:06:18.000Z</time>
      </trkpt>
      <trkpt lat="42.203833" lon="2.976899">
        <ele>49.479326</ele>
        <time>2024-04-14T09:06:20.000Z</time>
      </trkpt>
      <trkpt lat="42.203677" lon="2.976634">
        <ele>49.645287</ele>
        <time>2024-04-14T09:06:23.000Z</time>
      </trkpt>
      <trkpt lat="42.2035" lon="2.976138">
        <ele>49.900384</ele>
        <time>2024-04-14T09:06:28.000Z</time>
      </trkpt>
      <trkpt lat="42.203276" lon="2.97539">
        <ele>50.27857</ele>
        <time>2024-04-14T09:06:35.000Z</time>
      </trkpt>
      <trkpt lat="42.203056" lon="2.974977">
        <ele>50.517643</ele>
        <time>2024-04-14T09:06:39.000Z</time>
      </trkpt>
      <trkpt lat="42.20216" lon="2.973804">
        <ele>51.802775</ele>
        <time>2024-04-14T09:06:53.000Z</time>
      </trkpt>
      <trkpt lat="42.202047" lon="2.973727">
        <ele>51.934611</ele>
        <time>2024-04-14T09:06:54.000Z</time>
      </trkpt>
      <trkpt lat="42.201932" lon="2.973687">
        <ele>52.073816</ele>
        <time>2024-04-14T09:06:55.000Z</time>
      </trkpt>
      <trkpt lat="42.20124" lon="2.973724">
        <ele>52.837593</ele>
        <time>2024-04-14T09:07:03.000Z</time>
      </trkpt>
      <trkpt lat="42.201169" lon="2.973686">
        <ele>52.945711</ele>
        <time>2024-04-14T09:07:04.000Z</time>
      </trkpt>
      <trkpt lat="42.200913" lon="2.973325">
        <ele>53.367231</ele>
        <time>2024-04-14T09:07:08.000Z</time>
      </trkpt>
      <trkpt lat="42.19972" lon="2.971324">
        <ele>55.474038</ele>
        <time>2024-04-14T09:07:29.000Z</time>
      </trkpt>
      <trkpt lat="42.199638" lon="2.971158">
        <ele>55.621322</ele>
        <time>2024-04-14T09:07:31.000Z</time>
      </trkpt>
      <trkpt lat="42.199261" lon="2.970071">
        <ele>56.475488</ele>
        <time>2024-04-14T09:07:41.000Z</time>
      </trkpt>
      <trkpt lat="42.198959" lon="2.969056">
        <ele>56.964514</ele>
        <time>2024-04-14T09:07:50.000Z</time>
      </trkpt>
      <trkpt lat="42.19874" lon="2.968212">
        <ele>57.363043</ele>
        <time>2024-04-14T09:07:57.000Z</time>
      </trkpt>
      <trkpt lat="42.198551" lon="2.967799">
        <ele>57.577417</ele>
        <time>2024-04-14T09:08:01.000Z</time>
      </trkpt>
      <trkpt lat="42.197878" lon="2.966546">
        <ele>58.230426</ele>
        <time>2024-04-14T09:08:14.000Z</time>
      </trkpt>
      <trkpt lat="42.197763" lon="2.966219">
        <ele>58.386753</ele>
        <time>2024-04-14T09:08:17.000Z</time>
      </trkpt>
      <trkpt lat="42.197594" lon="2.965502">
        <ele>58.980519</ele>
        <time>2024-04-14T09:08:23.000Z</time>
      </trkpt>
      <trkpt lat="42.197589" lon="2.965231">
        <ele>59.296618</ele>
        <time>2024-04-14T09:08:25.000Z</time>
      </trkpt>
      <trkpt lat="42.197595" lon="2.965131">
        <ele>59.416618</ele>
        <time>2024-04-14T09:08:26.000Z</time>
      </trkpt>
      <trkpt lat="42.197613" lon="2.964316">
        <ele>60.382796</ele>
        <time>2024-04-14T09:08:33.000Z</time>
      </trkpt>
      <trkpt lat="42.197577" lon="2.964077">
        <ele>60.664527</ele>
        <time>2024-04-14T09:08:35.000Z</time>
      </trkpt>
      <trkpt lat="42.197514" lon="2.96384">
        <ele>60.95691</ele>
        <time>2024-04-14T09:08:37.000Z</time>
      </trkpt>
      <trkpt lat="42.197227" lon="2.963166">
        <ele>62.322432</ele>
        <time>2024-04-14T09:08:43.000Z</time>
      </trkpt>
      <trkpt lat="42.197149" lon="2.962995">
        <ele>62.775554</ele>
        <time>2024-04-14T09:08:45.000Z</time>
      </trkpt>
      <trkpt lat="42.196488" lon="2.962129">
        <ele>65.705611</ele>
        <time>2024-04-14T09:08:55.000Z</time>
      </trkpt>
      <trkpt lat="42.195512" lon="2.960972">
        <ele>71.161694</ele>
        <time>2024-04-14T09:09:09.000Z</time>
      </trkpt>
      <trkpt lat="42.195202" lon="2.960343">
        <ele>73.770832</ele>
        <time>2024-04-14T09:09:15.000Z</time>
      </trkpt>
      <trkpt lat="42.194956" lon="2.959779">
        <ele>76.182391</ele>
        <time>2024-04-14T09:09:20.000Z</time>
      </trkpt>
      <trkpt lat="42.194798" lon="2.959264">
        <ele>78.603807</ele>
        <time>2024-04-14T09:09:25.000Z</time>
      </trkpt>
      <trkpt lat="42.194735" lon="2.958797">
        <ele>80.734419</ele>
        <time>2024-04-14T09:09:29.000Z</time>
      </trkpt>
      <trkpt lat="42.194682" lon="2.957921">
        <ele>84.541053</ele>
        <time>2024-04-14T09:09:36.000Z</time>
      </trkpt>
      <trkpt lat="42.19464" lon="2.957694">
        <ele>85.613083</ele>
        <time>2024-04-14T09:09:38.000Z</time>
      </trkpt>
      <trkpt lat="42.194542" lon="2.957484">
        <ele>86.712444</ele>
        <time>2024-04-14T09:09:40.000Z</time>
      </trkpt>
      <trkpt lat="42.194102" lon="2.957031">
        <ele>90.047489</ele>
        <time>2024-04-14T09:09:46.000Z</time>
      </trkpt>
      <trkpt lat="42.1937" lon="2.956833">
        <ele>92.599666</ele>
        <time>2024-04-14T09:09:51.000Z</time>
      </trkpt>
      <trkpt lat="42.193248" lon="2.956521">
        <ele>95.614134</ele>
        <time>2024-04-14T09:09:57.000Z</time>
      </trkpt>
      <trkpt lat="42.192401" lon="2.955737">
        <ele>101.276351</ele>
        <time>2024-04-14T09:10:08.000Z</time>
      </trkpt>
      <trkpt lat="42.19206" lon="2.95541">
        <ele>103.562632</ele>
        <time>2024-04-14T09:10:13.000Z</time>
      </trkpt>
      <trkpt lat="42.191637" lon="2.955018">
        <ele>106.470938</ele>
        <time>2024-04-14T09:10:19.000Z</time>
      </trkpt>
      <trkpt lat="42.19152" lon="2.954878">
        <ele>107.069097</ele>
        <time>2024-04-14T09:10:21.000Z</time>
      </trkpt>
      <trkpt lat="42.192593" lon="2.954645">
        <ele>110.59128</ele>
        <time>2024-04-14T09:10:33.000Z</time>
      </trkpt>
      <trkpt lat="42.192578" lon="2.954376">
        <ele>111.277882</ele>
        <time>2024-04-14T09:10:35.000Z</time>
      </trkpt>
      <trkpt lat="42.192502" lon="2.95406">
        <ele>112.039022</ele>
        <time>2024-04-14T09:10:38.000Z</time>
      </trkpt>
      <trkpt lat="42.192457" lon="2.953938">
        <ele>112.39999</ele>
        <time>2024-04-14T09:10:39.000Z</time>
      </trkpt>
      <trkpt lat="42.192356" lon="2.953542">
        <ele>112.976989</ele>
        <time>2024-04-14T09:10:42.000Z</time>
      </trkpt>
      <trkpt lat="42.19236" lon="2.952976">
        <ele>113.544889</ele>
        <time>2024-04-14T09:10:47.000Z</time>
      </trkpt>
      <trkpt lat="42.19233" lon="2.952752">
        <ele>113.779523</ele>
        <time>2024-04-14T09:10:49.000Z</time>
      </trkpt>
      <trkpt lat="42.191861" lon="2.952616">
        <ele>114.428714</ele>
        <time>2024-04-14T09:10:54.000Z</time>
      </trkpt>
      <trkpt lat="42.191645" lon="2.952558">
        <ele>114.720883</ele>
        <time>2024-04-14T09:10:56.000Z</time>
      </trkpt>
      <trkpt lat="42.191454" lon="2.952564">
        <ele>114.983096</ele>
        <time>2024-04-14T09:10:58.000Z</time>
      </trkpt>
      <trkpt lat="42.190514" lon="2.952575">
        <ele>115.951614</ele>
        <time>2024-04-14T09:11:08.000Z</time>
      </trkpt>
      <trkpt lat="42.19004" lon="2.952722">
        <ele>116.433317</ele>
        <time>2024-04-14T09:11:13.000Z</time>
      </trkpt>
      <trkpt lat="42.189138" lon="2.953086">
        <ele>117.322696</ele>
        <time>2024-04-14T09:11:23.000Z</time>
      </trkpt>
      <trkpt lat="42.188881" lon="2.953164">
        <ele>117.577023</ele>
        <time>2024-04-14T09:11:26.000Z</time>
      </trkpt>
      <trkpt lat="42.18855" lon="2.953173">
        <ele>117.875655</ele>
        <time>2024-04-14T09:11:30.000Z</time>
      </trkpt>
      <trkpt lat="42.188354" lon="2.953131">
        <ele>118.045879</ele>
        <time>2024-04-14T09:11:32.000Z</time>
      </trkpt>
      <trkpt lat="42.188181" lon="2.952953">
        <ele>118.247458</ele>
        <time>2024-04-14T09:11:34.000Z</time>
      </trkpt>
      <trkpt lat="42.187403" lon="2.954009">
        <ele>116.62761</ele>
        <time>2024-04-14T09:11:46.000Z</time>
      </trkpt>
      <trkpt lat="42.187178" lon="2.954449">
        <ele>115.665916</ele>
        <time>2024-04-14T09:11:50.000Z</time>
      </trkpt>
      <trkpt lat="42.1869" lon="2.955086">
        <ele>114.319788</ele>
        <time>2024-04-14T09:11:56.000Z</time>
      </trkpt>
      <trkpt lat="42.186762" lon="2.955284">
        <ele>113.610505</ele>
        <time>2024-04-14T09:11:58.000Z</time>
      </trkpt>
      <trkpt lat="42.186187" lon="2.955932">
        <ele>110.667314</ele>
        <time>2024-04-14T09:12:06.000Z</time>
      </trkpt>
      <trkpt lat="42.186047" lon="2.956025">
        <ele>110.061651</ele>
        <time>2024-04-14T09:12:08.000Z</time>
      </trkpt>
      <trkpt lat="42.185832" lon="2.956114">
        <ele>109.182242</ele>
        <time>2024-04-14T09:12:11.000Z</time>
      </trkpt>
      <trkpt lat="42.185278" lon="2.956229">
        <ele>107.012061</ele>
        <time>2024-04-14T09:12:17.000Z</time>
      </trkpt>
      <trkpt lat="42.184369" lon="2.956222">
        <ele>105.247833</ele>
        <time>2024-04-14T09:12:27.000Z</time>
      </trkpt>
      <trkpt lat="42.182046" lon="2.956825">
        <ele>100.669251</ele>
        <time>2024-04-14T09:12:53.000Z</time>
      </trkpt>
      <trkpt lat="42.181706" lon="2.956902">
        <ele>99.827442</ele>
        <time>2024-04-14T09:12:57.000Z</time>
      </trkpt>
      <trkpt lat="42.181495" lon="2.956877">
        <ele>98.808384</ele>
        <time>2024-04-14T09:12:59.000Z</time>
      </trkpt>
      <trkpt lat="42.181312" lon="2.956803">
        <ele>97.805011</ele>
        <time>2024-04-14T09:13:01.000Z</time>
      </trkpt>
      <trkpt lat="42.180747" lon="2.95645">
        <ele>94.816885</ele>
        <time>2024-04-14T09:13:08.000Z</time>
      </trkpt>
      <trkpt lat="42.180594" lon="2.956407">
        <ele>93.980127</ele>
        <time>2024-04-14T09:13:10.000Z</time>
      </trkpt>
      <trkpt lat="42.180365" lon="2.956384">
        <ele>92.872083</ele>
        <time>2024-04-14T09:13:13.000Z</time>
      </trkpt>
      <trkpt lat="42.180004" lon="2.956433">
        <ele>91.008391</ele>
        <time>2024-04-14T09:13:17.000Z</time>
      </trkpt>
      <trkpt lat="42.178129" lon="2.956739">
        <ele>80.873537</ele>
        <time>2024-04-14T09:13:38.000Z</time>
      </trkpt>
      <trkpt lat="42.178049" lon="2.956736">
        <ele>80.636573</ele>
        <time>2024-04-14T09:13:39.000Z</time>
      </trkpt>
      <trkpt lat="42.177344" lon="2.95671">
        <ele>78.321851</ele>
        <time>2024-04-14T09:13:47.000Z</time>
      </trkpt>
      <trkpt lat="42.176958" lon="2.956792">
        <ele>77.076787</ele>
        <time>2024-04-14T09:13:51.000Z</time>
      </trkpt>
      <trkpt lat="42.176854" lon="2.956764">
        <ele>76.732384</ele>
        <time>2024-04-14T09:13:52.000Z</time>
      </trkpt>
      <trkpt lat="42.176447" lon="2.956587">
        <ele>75.369936</ele>
        <time>2024-04-14T09:13:57.000Z</time>
      </trkpt>
      <trkpt lat="42.176105" lon="2.956354">
        <ele>74.773222</ele>
        <time>2024-04-14T09:14:01.000Z</time>
      </trkpt>
      <trkpt lat="42.175863" lon="2.956111">
        <ele>74.277638</ele>
        <time>2024-04-14T09:14:04.000Z</time>
      </trkpt>
      <trkpt lat="42.175443" lon="2.955729">
        <ele>73.50003</ele>
        <time>2024-04-14T09:14:10.000Z</time>
      </trkpt>
      <trkpt lat="42.17409" lon="2.954846">
        <ele>71.95853</ele>
        <time>2024-04-14T09:14:27.000Z</time>
      </trkpt>
      <trkpt lat="42.173884" lon="2.95477">
        <ele>71.822018</ele>
        <time>2024-04-14T09:14:29.000Z</time>
      </trkpt>
      <trkpt lat="42.173532" lon="2.954801">
        <ele>71.590612</ele>
        <time>2024-04-14T09:14:33.000Z</time>
      </trkpt>
      <trkpt lat="42.172626" lon="2.955">
        <ele>71.8985</ele>
        <time>2024-04-14T09:14:43.000Z</time>
      </trkpt>
      <trkpt lat="42.171528" lon="2.954987">
        <ele>72.83405</ele>
        <time>2024-04-14T09:14:55.000Z</time>
      </trkpt>
      <trkpt lat="42.171076" lon="2.954984">
        <ele>72.919896</ele>
        <time>2024-04-14T09:15:00.000Z</time>
      </trkpt>
      <trkpt lat="42.170227" lon="2.954815">
        <ele>72.922272</ele>
        <time>2024-04-14T09:15:10.000Z</time>
      </trkpt>
      <trkpt lat="42.170108" lon="2.954793">
        <ele>72.922605</ele>
        <time>2024-04-14T09:15:11.000Z</time>
      </trkpt>
      <trkpt lat="42.169851" lon="2.954754">
        <ele>72.923323</ele>
        <time>2024-04-14T09:15:14.000Z</time>
      </trkpt>
      <trkpt lat="42.169549" lon="2.954823">
        <ele>72.688573</ele>
        <time>2024-04-14T09:15:17.000Z</time>
      </trkpt>
      <trkpt lat="42.169192" lon="2.955004">
        <ele>71.745873</ele>
        <time>2024-04-14T09:15:21.000Z</time>
      </trkpt>
      <trkpt lat="42.16881" lon="2.955045">
        <ele>70.796589</ele>
        <time>2024-04-14T09:15:25.000Z</time>
      </trkpt>
      <trkpt lat="42.167974" lon="2.95533">
        <ele>68.665976</ele>
        <time>2024-04-14T09:15:35.000Z</time>
      </trkpt>
      <trkpt lat="42.167639" lon="2.955477">
        <ele>67.622435</ele>
        <time>2024-04-14T09:15:39.000Z</time>
      </trkpt>
      <trkpt lat="42.16723" lon="2.955516">
        <ele>66.312194</ele>
        <time>2024-04-14T09:15:44.000Z</time>
      </trkpt>
      <trkpt lat="42.166459" lon="2.955542">
        <ele>63.841868</ele>
        <time>2024-04-14T09:15:53.000Z</time>
      </trkpt>
      <trkpt lat="42.166013" lon="2.955581">
        <ele>62.234963</ele>
        <time>2024-04-14T09:15:58.000Z</time>
      </trkpt>
      <trkpt lat="42.165935" lon="2.955653">
        <ele>61.82514</ele>
        <time>2024-04-14T09:15:59.000Z</time>
      </trkpt>
      <trkpt lat="42.165844" lon="2.955792">
        <ele>61.266764</ele>
        <time>2024-04-14T09:16:01.000Z</time>
      </trkpt>
      <trkpt lat="42.165803" lon="2.95593">
        <ele>60.745172</ele>
        <time>2024-04-14T09:16:02.000Z</time>
      </trkpt>
      <trkpt lat="42.165842" lon="2.956481">
        <ele>58.93011</ele>
        <time>2024-04-14T09:16:07.000Z</time>
      </trkpt>
      <trkpt lat="42.165809" lon="2.956648">
        <ele>58.389877</ele>
        <time>2024-04-14T09:16:08.000Z</time>
      </trkpt>
      <trkpt lat="42.165725" lon="2.9568">
        <ele>57.740129</ele>
        <time>2024-04-14T09:16:10.000Z</time>
      </trkpt>
      <trkpt lat="42.165255" lon="2.957084">
        <ele>55.511203</ele>
        <time>2024-04-14T09:16:16.000Z</time>
      </trkpt>
      <trkpt lat="42.164406" lon="2.957625">
        <ele>50.63399</ele>
        <time>2024-04-14T09:16:26.000Z</time>
      </trkpt>
      <trkpt lat="42.163455" lon="2.95822">
        <ele>45.138265</ele>
        <time>2024-04-14T09:16:38.000Z</time>
      </trkpt>
      <trkpt lat="42.163208" lon="2.958438">
        <ele>43.826351</ele>
        <time>2024-04-14T09:16:41.000Z</time>
      </trkpt>
      <trkpt lat="42.162425" lon="2.95921">
        <ele>39.461848</ele>
        <time>2024-04-14T09:16:52.000Z</time>
      </trkpt>
      <trkpt lat="42.16226" lon="2.959298">
        <ele>38.691803</ele>
        <time>2024-04-14T09:16:54.000Z</time>
      </trkpt>
      <trkpt lat="42.161623" lon="2.959496">
        <ele>37.391581</ele>
        <time>2024-04-14T09:17:01.000Z</time>
      </trkpt>
      <trkpt lat="42.161488" lon="2.959514">
        <ele>37.457272</ele>
        <time>2024-04-14T09:17:03.000Z</time>
      </trkpt>
      <trkpt lat="42.161363" lon="2.959435">
        <ele>37.530024</ele>
        <time>2024-04-14T09:17:05.000Z</time>
      </trkpt>
      <trkpt lat="42.161335" lon="2.959385">
        <ele>37.55309</ele>
        <time>2024-04-14T09:17:06.000Z</time>
      </trkpt>
      <trkpt lat="42.161029" lon="2.958712">
        <ele>37.855159</ele>
        <time>2024-04-14T09:17:13.000Z</time>
      </trkpt>
      <trkpt lat="42.16048" lon="2.957419">
        <ele>41.121495</ele>
        <time>2024-04-14T09:17:25.000Z</time>
      </trkpt>
      <trkpt lat="42.160265" lon="2.957063">
        <ele>43.064127</ele>
        <time>2024-04-14T09:17:29.000Z</time>
      </trkpt>
      <trkpt lat="42.160118" lon="2.956865">
        <ele>44.209894</ele>
        <time>2024-04-14T09:17:31.000Z</time>
      </trkpt>
      <trkpt lat="42.159996" lon="2.956789">
        <ele>45.004378</ele>
        <time>2024-04-14T09:17:32.000Z</time>
      </trkpt>
      <trkpt lat="42.159876" lon="2.956733">
        <ele>45.702934</ele>
        <time>2024-04-14T09:17:33.000Z</time>
      </trkpt>
      <trkpt lat="42.159795" lon="2.956752">
        <ele>46.174772</ele>
        <time>2024-04-14T09:17:34.000Z</time>
      </trkpt>
      <trkpt lat="42.159424" lon="2.956909">
        <ele>48.265247</ele>
        <time>2024-04-14T09:17:38.000Z</time>
      </trkpt>
      <trkpt lat="42.159279" lon="2.956954">
        <ele>49.188289</ele>
        <time>2024-04-14T09:17:40.000Z</time>
      </trkpt>
      <trkpt lat="42.157963" lon="2.957062">
        <ele>57.327077</ele>
        <time>2024-04-14T09:17:55.000Z</time>
      </trkpt>
      <trkpt lat="42.157751" lon="2.957151">
        <ele>58.681051</ele>
        <time>2024-04-14T09:17:57.000Z</time>
      </trkpt>
      <trkpt lat="42.157544" lon="2.957326">
        <ele>59.913319</ele>
        <time>2024-04-14T09:18:00.000Z</time>
      </trkpt>
      <trkpt lat="42.157189" lon="2.9577">
        <ele>61.770454</ele>
        <time>2024-04-14T09:18:05.000Z</time>
      </trkpt>
      <trkpt lat="42.157017" lon="2.957835">
        <ele>62.630991</ele>
        <time>2024-04-14T09:18:07.000Z</time>
      </trkpt>
      <trkpt lat="42.156704" lon="2.957943">
        <ele>63.999187</ele>
        <time>2024-04-14T09:18:11.000Z</time>
      </trkpt>
      <trkpt lat="42.156036" lon="2.958011">
        <ele>66.770273</ele>
        <time>2024-04-14T09:18:18.000Z</time>
      </trkpt>
      <trkpt lat="42.155755" lon="2.958094">
        <ele>68.124732</ele>
        <time>2024-04-14T09:18:21.000Z</time>
      </trkpt>
      <trkpt lat="42.1551" lon="2.958577">
        <ele>71.750938</ele>
        <time>2024-04-14T09:18:29.000Z</time>
      </trkpt>
      <trkpt lat="42.15416" lon="2.958874">
        <ele>76.594031</ele>
        <time>2024-04-14T09:18:40.000Z</time>
      </trkpt>
      <trkpt lat="42.153706" lon="2.958953">
        <ele>79.202256</ele>
        <time>2024-04-14T09:18:45.000Z</time>
      </trkpt>
      <trkpt lat="42.153274" lon="2.958968">
        <ele>81.697387</ele>
        <time>2024-04-14T09:18:50.000Z</time>
      </trkpt>
      <trkpt lat="42.153046" lon="2.958931">
        <ele>82.974287</ele>
        <time>2024-04-14T09:18:53.000Z</time>
      </trkpt>
      <trkpt lat="42.152442" lon="2.958677">
        <ele>85.954382</ele>
        <time>2024-04-14T09:19:00.000Z</time>
      </trkpt>
      <trkpt lat="42.152053" lon="2.958681">
        <ele>86.58627</ele>
        <time>2024-04-14T09:19:04.000Z</time>
      </trkpt>
      <trkpt lat="42.151677" lon="2.958777">
        <ele>87.184267</ele>
        <time>2024-04-14T09:19:08.000Z</time>
      </trkpt>
      <trkpt lat="42.151575" lon="2.958775">
        <ele>87.347543</ele>
        <time>2024-04-14T09:19:09.000Z</time>
      </trkpt>
      <trkpt lat="42.15144" lon="2.958757">
        <ele>87.585584</ele>
        <time>2024-04-14T09:19:11.000Z</time>
      </trkpt>
      <trkpt lat="42.151223" lon="2.95868">
        <ele>87.94948</ele>
        <time>2024-04-14T09:19:13.000Z</time>
      </trkpt>
      <trkpt lat="42.15086" lon="2.958454">
        <ele>88.567153</ele>
        <time>2024-04-14T09:19:17.000Z</time>
      </trkpt>
      <trkpt lat="42.150641" lon="2.958369">
        <ele>87.786909</ele>
        <time>2024-04-14T09:19:20.000Z</time>
      </trkpt>
      <trkpt lat="42.149926" lon="2.958332">
        <ele>85.08632</ele>
        <time>2024-04-14T09:19:28.000Z</time>
      </trkpt>
      <trkpt lat="42.149739" lon="2.958374">
        <ele>84.34415</ele>
        <time>2024-04-14T09:19:30.000Z</time>
      </trkpt>
      <trkpt lat="42.149389" lon="2.95852">
        <ele>82.944543</ele>
        <time>2024-04-14T09:19:34.000Z</time>
      </trkpt>
      <trkpt lat="42.149225" lon="2.958558">
        <ele>82.301901</ele>
        <time>2024-04-14T09:19:36.000Z</time>
      </trkpt>
      <trkpt lat="42.14898" lon="2.958539">
        <ele>81.260368</ele>
        <time>2024-04-14T09:19:39.000Z</time>
      </trkpt>
      <trkpt lat="42.148704" lon="2.958447">
        <ele>79.643598</ele>
        <time>2024-04-14T09:19:42.000Z</time>
      </trkpt>
      <trkpt lat="42.146976" lon="2.957758">
        <ele>70.383829</ele>
        <time>2024-04-14T09:20:02.000Z</time>
      </trkpt>
      <trkpt lat="42.14581" lon="2.957296">
        <ele>66.574612</ele>
        <time>2024-04-14T09:20:16.000Z</time>
      </trkpt>
      <trkpt lat="42.145403" lon="2.957111">
        <ele>65.952945</ele>
        <time>2024-04-14T09:20:21.000Z</time>
      </trkpt>
      <trkpt lat="42.144959" lon="2.956722">
        <ele>65.950284</ele>
        <time>2024-04-14T09:20:27.000Z</time>
      </trkpt>
      <trkpt lat="42.144821" lon="2.956653">
        <ele>65.949571</ele>
        <time>2024-04-14T09:20:29.000Z</time>
      </trkpt>
      <trkpt lat="42.144971" lon="2.956728">
        <ele>65.948845</ele>
        <time>2024-04-14T09:20:31.000Z</time>
      </trkpt>
      <trkpt lat="42.14541" lon="2.957112">
        <ele>65.946193</ele>
        <time>2024-04-14T09:20:37.000Z</time>
      </trkpt>
      <trkpt lat="42.145809" lon="2.957293">
        <ele>66.583321</ele>
        <time>2024-04-14T09:20:42.000Z</time>
      </trkpt>
      <trkpt lat="42.146984" lon="2.957758">
        <ele>70.376717</ele>
        <time>2024-04-14T09:20:56.000Z</time>
      </trkpt>
      <trkpt lat="42.148712" lon="2.958461">
        <ele>79.645505</ele>
        <time>2024-04-14T09:21:16.000Z</time>
      </trkpt>
      <trkpt lat="42.148982" lon="2.95853">
        <ele>81.261724</ele>
        <time>2024-04-14T09:21:19.000Z</time>
      </trkpt>
      <trkpt lat="42.149225" lon="2.958553">
        <ele>82.293029</ele>
        <time>2024-04-14T09:21:22.000Z</time>
      </trkpt>
      <trkpt lat="42.149389" lon="2.958506">
        <ele>82.938163</ele>
        <time>2024-04-14T09:21:24.000Z</time>
      </trkpt>
      <trkpt lat="42.14974" lon="2.958368">
        <ele>84.343166</ele>
        <time>2024-04-14T09:21:28.000Z</time>
      </trkpt>
      <trkpt lat="42.149941" lon="2.958336">
        <ele>85.088191</ele>
        <time>2024-04-14T09:21:30.000Z</time>
      </trkpt>
      <trkpt lat="42.15064" lon="2.958357">
        <ele>87.799202</ele>
        <time>2024-04-14T09:21:38.000Z</time>
      </trkpt>
      <trkpt lat="42.150872" lon="2.958453">
        <ele>88.547829</ele>
        <time>2024-04-14T09:21:41.000Z</time>
      </trkpt>
      <trkpt lat="42.15122" lon="2.95868">
        <ele>87.938641</ele>
        <time>2024-04-14T09:21:45.000Z</time>
      </trkpt>
      <trkpt lat="42.15143" lon="2.958758">
        <ele>87.579765</ele>
        <time>2024-04-14T09:21:47.000Z</time>
      </trkpt>
      <trkpt lat="42.151584" lon="2.958784">
        <ele>87.344979</ele>
        <time>2024-04-14T09:21:49.000Z</time>
      </trkpt>
      <trkpt lat="42.151686" lon="2.958784">
        <ele>87.18396</ele>
        <time>2024-04-14T09:21:50.000Z</time>
      </trkpt>
      <trkpt lat="42.152056" lon="2.958681">
        <ele>86.594189</ele>
        <time>2024-04-14T09:21:54.000Z</time>
      </trkpt>
      <trkpt lat="42.152442" lon="2.958675">
        <ele>85.970995</ele>
        <time>2024-04-14T09:21:58.000Z</time>
      </trkpt>
      <trkpt lat="42.153044" lon="2.958919">
        <ele>82.969122</ele>
        <time>2024-04-14T09:22:05.000Z</time>
      </trkpt>
      <trkpt lat="42.153275" lon="2.958979">
        <ele>81.69311</ele>
        <time>2024-04-14T09:22:08.000Z</time>
      </trkpt>
      <trkpt lat="42.153712" lon="2.95895">
        <ele>79.199724</ele>
        <time>2024-04-14T09:22:13.000Z</time>
      </trkpt>
      <trkpt lat="42.154169" lon="2.958871">
        <ele>76.593275</ele>
        <time>2024-04-14T09:22:18.000Z</time>
      </trkpt>
      <trkpt lat="42.155109" lon="2.958571">
        <ele>71.751692</ele>
        <time>2024-04-14T09:22:29.000Z</time>
      </trkpt>
      <trkpt lat="42.155767" lon="2.9581">
        <ele>68.12082</ele>
        <time>2024-04-14T09:22:37.000Z</time>
      </trkpt>
      <trkpt lat="42.156032" lon="2.95801">
        <ele>66.766453</ele>
        <time>2024-04-14T09:22:40.000Z</time>
      </trkpt>
      <trkpt lat="42.156693" lon="2.957946">
        <ele>64.000747</ele>
        <time>2024-04-14T09:22:47.000Z</time>
      </trkpt>
      <trkpt lat="42.157019" lon="2.957839">
        <ele>62.633856</ele>
        <time>2024-04-14T09:22:51.000Z</time>
      </trkpt>
      <trkpt lat="42.157201" lon="2.957704">
        <ele>61.774161</ele>
        <time>2024-04-14T09:22:53.000Z</time>
      </trkpt>
      <trkpt lat="42.157536" lon="2.957323">
        <ele>59.918792</ele>
        <time>2024-04-14T09:22:58.000Z</time>
      </trkpt>
      <trkpt lat="42.157748" lon="2.957148">
        <ele>58.674587</ele>
        <time>2024-04-14T09:23:01.000Z</time>
      </trkpt>
      <trkpt lat="42.15797" lon="2.957059">
        <ele>57.321978</ele>
        <time>2024-04-14T09:23:04.000Z</time>
      </trkpt>
      <trkpt lat="42.159281" lon="2.956951">
        <ele>49.191296</ele>
        <time>2024-04-14T09:23:19.000Z</time>
      </trkpt>
      <trkpt lat="42.159434" lon="2.95691">
        <ele>48.26918</ele>
        <time>2024-04-14T09:23:21.000Z</time>
      </trkpt>
      <trkpt lat="42.159794" lon="2.956756">
        <ele>46.178042</ele>
        <time>2024-04-14T09:23:25.000Z</time>
      </trkpt>
      <trkpt lat="42.159864" lon="2.956738">
        <ele>45.705176</ele>
        <time>2024-04-14T09:23:26.000Z</time>
      </trkpt>
      <trkpt lat="42.159997" lon="2.956784">
        <ele>45.00514</ele>
        <time>2024-04-14T09:23:28.000Z</time>
      </trkpt>
      <trkpt lat="42.160115" lon="2.956862">
        <ele>44.208944</ele>
        <time>2024-04-14T09:23:29.000Z</time>
      </trkpt>
      <trkpt lat="42.160257" lon="2.957059">
        <ele>43.060721</ele>
        <time>2024-04-14T09:23:31.000Z</time>
      </trkpt>
      <trkpt lat="42.160478" lon="2.957429">
        <ele>41.11391</ele>
        <time>2024-04-14T09:23:35.000Z</time>
      </trkpt>
      <trkpt lat="42.161041" lon="2.958705">
        <ele>37.861722</ele>
        <time>2024-04-14T09:23:47.000Z</time>
      </trkpt>
      <trkpt lat="42.161334" lon="2.959397">
        <ele>37.546805</ele>
        <time>2024-04-14T09:23:54.000Z</time>
      </trkpt>
      <trkpt lat="42.161365" lon="2.959439">
        <ele>37.522761</ele>
        <time>2024-04-14T09:23:54.000Z</time>
      </trkpt>
      <trkpt lat="42.161496" lon="2.959518">
        <ele>37.446904</ele>
        <time>2024-04-14T09:23:56.000Z</time>
      </trkpt>
      <trkpt lat="42.161613" lon="2.959497">
        <ele>37.378411</ele>
        <time>2024-04-14T09:23:57.000Z</time>
      </trkpt>
      <trkpt lat="42.162266" lon="2.9593">
        <ele>38.700641</ele>
        <time>2024-04-14T09:24:04.000Z</time>
      </trkpt>
      <trkpt lat="42.162424" lon="2.959206">
        <ele>39.468885</ele>
        <time>2024-04-14T09:24:06.000Z</time>
      </trkpt>
      <trkpt lat="42.163211" lon="2.958429">
        <ele>43.82327</ele>
        <time>2024-04-14T09:24:17.000Z</time>
      </trkpt>
      <trkpt lat="42.163452" lon="2.958223">
        <ele>45.132146</ele>
        <time>2024-04-14T09:24:20.000Z</time>
      </trkpt>
      <trkpt lat="42.164399" lon="2.957623">
        <ele>50.634843</ele>
        <time>2024-04-14T09:24:32.000Z</time>
      </trkpt>
      <trkpt lat="42.16526" lon="2.957094">
        <ele>55.508768</ele>
        <time>2024-04-14T09:24:43.000Z</time>
      </trkpt>
      <trkpt lat="42.165712" lon="2.95679">
        <ele>57.740081</ele>
        <time>2024-04-14T09:24:49.000Z</time>
      </trkpt>
      <trkpt lat="42.16581" lon="2.956641">
        <ele>58.390539</ele>
        <time>2024-04-14T09:24:51.000Z</time>
      </trkpt>
      <trkpt lat="42.165839" lon="2.956496">
        <ele>58.931343</ele>
        <time>2024-04-14T09:24:52.000Z</time>
      </trkpt>
      <trkpt lat="42.165799" lon="2.95594">
        <ele>60.748374</ele>
        <time>2024-04-14T09:24:57.000Z</time>
      </trkpt>
      <trkpt lat="42.165857" lon="2.955784">
        <ele>61.270514</ele>
        <time>2024-04-14T09:24:58.000Z</time>
      </trkpt>
      <trkpt lat="42.165936" lon="2.955666">
        <ele>61.829491</ele>
        <time>2024-04-14T09:24:59.000Z</time>
      </trkpt>
      <trkpt lat="42.166019" lon="2.955583">
        <ele>62.239747</ele>
        <time>2024-04-14T09:25:00.000Z</time>
      </trkpt>
      <trkpt lat="42.166469" lon="2.955548">
        <ele>63.839969</ele>
        <time>2024-04-14T09:25:05.000Z</time>
      </trkpt>
      <trkpt lat="42.167241" lon="2.955504">
        <ele>66.311731</ele>
        <time>2024-04-14T09:25:14.000Z</time>
      </trkpt>
      <trkpt lat="42.167643" lon="2.955462">
        <ele>67.622742</ele>
        <time>2024-04-14T09:25:18.000Z</time>
      </trkpt>
      <trkpt lat="42.167959" lon="2.95532">
        <ele>68.662279</ele>
        <time>2024-04-14T09:25:22.000Z</time>
      </trkpt>
      <trkpt lat="42.168813" lon="2.955056">
        <ele>70.798254</ele>
        <time>2024-04-14T09:25:32.000Z</time>
      </trkpt>
      <trkpt lat="42.169204" lon="2.955015">
        <ele>71.749923</ele>
        <time>2024-04-14T09:25:36.000Z</time>
      </trkpt>
      <trkpt lat="42.169562" lon="2.954835">
        <ele>72.694986</ele>
        <time>2024-04-14T09:25:40.000Z</time>
      </trkpt>
      <trkpt lat="42.169853" lon="2.954757">
        <ele>72.916079</ele>
        <time>2024-04-14T09:25:43.000Z</time>
      </trkpt>
      <trkpt lat="42.170119" lon="2.954794">
        <ele>72.917654</ele>
        <time>2024-04-14T09:25:46.000Z</time>
      </trkpt>
      <trkpt lat="42.170225" lon="2.954828">
        <ele>72.918356</ele>
        <time>2024-04-14T09:25:47.000Z</time>
      </trkpt>
      <trkpt lat="42.171073" lon="2.954997">
        <ele>72.923513</ele>
        <time>2024-04-14T09:25:57.000Z</time>
      </trkpt>
      <trkpt lat="42.171532" lon="2.954976">
        <ele>72.834842</ele>
        <time>2024-04-14T09:26:02.000Z</time>
      </trkpt>
      <trkpt lat="42.172624" lon="2.954997">
        <ele>71.896178</ele>
        <time>2024-04-14T09:26:14.000Z</time>
      </trkpt>
      <trkpt lat="42.173543" lon="2.954801">
        <ele>71.594661</ele>
        <time>2024-04-14T09:26:24.000Z</time>
      </trkpt>
      <trkpt lat="42.173887" lon="2.954763">
        <ele>71.824143</ele>
        <time>2024-04-14T09:26:28.000Z</time>
      </trkpt>
      <trkpt lat="42.174095" lon="2.954836">
        <ele>71.959481</ele>
        <time>2024-04-14T09:26:30.000Z</time>
      </trkpt>
      <trkpt lat="42.175454" lon="2.955725">
        <ele>73.500124</ele>
        <time>2024-04-14T09:26:47.000Z</time>
      </trkpt>
      <trkpt lat="42.175849" lon="2.956114">
        <ele>74.276181</ele>
        <time>2024-04-14T09:26:52.000Z</time>
      </trkpt>
      <trkpt lat="42.176105" lon="2.956347">
        <ele>74.77079</ele>
        <time>2024-04-14T09:26:55.000Z</time>
      </trkpt>
      <trkpt lat="42.176447" lon="2.95659">
        <ele>75.366329</ele>
        <time>2024-04-14T09:26:59.000Z</time>
      </trkpt>
      <trkpt lat="42.176856" lon="2.956777">
        <ele>76.735798</ele>
        <time>2024-04-14T09:27:04.000Z</time>
      </trkpt>
      <trkpt lat="42.176961" lon="2.956793">
        <ele>77.079254</ele>
        <time>2024-04-14T09:27:05.000Z</time>
      </trkpt>
      <trkpt lat="42.177334" lon="2.956702">
        <ele>78.320851</ele>
        <time>2024-04-14T09:27:09.000Z</time>
      </trkpt>
      <trkpt lat="42.178047" lon="2.956744">
        <ele>80.629116</ele>
        <time>2024-04-14T09:27:17.000Z</time>
      </trkpt>
      <trkpt lat="42.178124" lon="2.956741">
        <ele>80.86544</ele>
        <time>2024-04-14T09:27:18.000Z</time>
      </trkpt>
      <trkpt lat="42.179994" lon="2.956434">
        <ele>91.006713</ele>
        <time>2024-04-14T09:27:39.000Z</time>
      </trkpt>
      <trkpt lat="42.180377" lon="2.956386">
        <ele>92.869879</ele>
        <time>2024-04-14T09:27:43.000Z</time>
      </trkpt>
      <trkpt lat="42.180592" lon="2.956403">
        <ele>93.979976</ele>
        <time>2024-04-14T09:27:45.000Z</time>
      </trkpt>
      <trkpt lat="42.180748" lon="2.956451">
        <ele>94.818277</ele>
        <time>2024-04-14T09:27:47.000Z</time>
      </trkpt>
      <trkpt lat="42.1813" lon="2.956803">
        <ele>97.811918</ele>
        <time>2024-04-14T09:27:54.000Z</time>
      </trkpt>
      <trkpt lat="42.181492" lon="2.956883">
        <ele>98.817174</ele>
        <time>2024-04-14T09:27:56.000Z</time>
      </trkpt>
      <trkpt lat="42.181699" lon="2.956904">
        <ele>99.83811</ele>
        <time>2024-04-14T09:27:58.000Z</time>
      </trkpt>
      <trkpt lat="42.182044" lon="2.956827">
        <ele>100.662623</ele>
        <time>2024-04-14T09:28:02.000Z</time>
      </trkpt>
      <trkpt lat="42.184358" lon="2.956215">
        <ele>105.246246</ele>
        <time>2024-04-14T09:28:28.000Z</time>
      </trkpt>
      <trkpt lat="42.185281" lon="2.956224">
        <ele>107.00602</ele>
        <time>2024-04-14T09:28:38.000Z</time>
      </trkpt>
      <trkpt lat="42.185841" lon="2.956113">
        <ele>109.186755</ele>
        <time>2024-04-14T09:28:44.000Z</time>
      </trkpt>
      <trkpt lat="42.18605" lon="2.956014">
        <ele>110.065132</ele>
        <time>2024-04-14T09:28:46.000Z</time>
      </trkpt>
      <trkpt lat="42.186182" lon="2.955915">
        <ele>110.670092</ele>
        <time>2024-04-14T09:28:48.000Z</time>
      </trkpt>
      <trkpt lat="42.186756" lon="2.95529">
        <ele>113.609827</ele>
        <time>2024-04-14T09:28:56.000Z</time>
      </trkpt>
      <trkpt lat="42.186887" lon="2.955087">
        <ele>114.309285</ele>
        <time>2024-04-14T09:28:58.000Z</time>
      </trkpt>
      <trkpt lat="42.187177" lon="2.954447">
        <ele>115.663138</ele>
        <time>2024-04-14T09:29:04.000Z</time>
      </trkpt>
      <trkpt lat="42.18742" lon="2.954014">
        <ele>116.630338</ele>
        <time>2024-04-14T09:29:08.000Z</time>
      </trkpt>
      <trkpt lat="42.188185" lon="2.952945">
        <ele>118.241247</ele>
        <time>2024-04-14T09:29:20.000Z</time>
      </trkpt>
      <trkpt lat="42.188355" lon="2.953129">
        <ele>118.041018</ele>
        <time>2024-04-14T09:29:22.000Z</time>
      </trkpt>
      <trkpt lat="42.18855" lon="2.953173">
        <ele>117.871925</ele>
        <time>2024-04-14T09:29:24.000Z</time>
      </trkpt>
      <trkpt lat="42.188875" lon="2.953169">
        <ele>117.575267</ele>
        <time>2024-04-14T09:29:28.000Z</time>
      </trkpt>
      <trkpt lat="42.189152" lon="2.953089">
        <ele>117.322622</ele>
        <time>2024-04-14T09:29:31.000Z</time>
      </trkpt>
      <trkpt lat="42.190043" lon="2.952711">
        <ele>116.43493</ele>
        <time>2024-04-14T09:29:41.000Z</time>
      </trkpt>
      <trkpt lat="42.190518" lon="2.952572">
        <ele>115.952658</ele>
        <time>2024-04-14T09:29:46.000Z</time>
      </trkpt>
      <trkpt lat="42.191457" lon="2.952568">
        <ele>114.981144</ele>
        <time>2024-04-14T09:29:56.000Z</time>
      </trkpt>
      <trkpt lat="42.191648" lon="2.952553">
        <ele>114.719571</ele>
        <time>2024-04-14T09:29:58.000Z</time>
      </trkpt>
      <trkpt lat="42.191858" lon="2.952609">
        <ele>114.428112</ele>
        <time>2024-04-14T09:30:00.000Z</time>
      </trkpt>
      <trkpt lat="42.192327" lon="2.952743">
        <ele>113.780525</ele>
        <time>2024-04-14T09:30:05.000Z</time>
      </trkpt>
      <trkpt lat="42.192358" lon="2.952962">
        <ele>113.546473</ele>
        <time>2024-04-14T09:30:07.000Z</time>
      </trkpt>
      <trkpt lat="42.192364" lon="2.953547">
        <ele>112.979972</ele>
        <time>2024-04-14T09:30:12.000Z</time>
      </trkpt>
      <trkpt lat="42.192453" lon="2.953933">
        <ele>112.392004</ele>
        <time>2024-04-14T09:30:15.000Z</time>
      </trkpt>
      <trkpt lat="42.192501" lon="2.954062">
        <ele>112.032052</ele>
        <time>2024-04-14T09:30:16.000Z</time>
      </trkpt>
      <trkpt lat="42.192572" lon="2.954369">
        <ele>111.273068</ele>
        <time>2024-04-14T09:30:19.000Z</time>
      </trkpt>
      <trkpt lat="42.192583" lon="2.954641">
        <ele>110.588414</ele>
        <time>2024-04-14T09:30:21.000Z</time>
      </trkpt>
      <trkpt lat="42.191517" lon="2.95488">
        <ele>107.076226</ele>
        <time>2024-04-14T09:30:33.000Z</time>
      </trkpt>
      <trkpt lat="42.191637" lon="2.955008">
        <ele>106.46479</ele>
        <time>2024-04-14T09:30:35.000Z</time>
      </trkpt>
      <trkpt lat="42.192066" lon="2.955417">
        <ele>103.559495</ele>
        <time>2024-04-14T09:30:41.000Z</time>
      </trkpt>
      <trkpt lat="42.192415" lon="2.955736">
        <ele>101.275579</ele>
        <time>2024-04-14T09:30:46.000Z</time>
      </trkpt>
      <trkpt lat="42.193243" lon="2.95651">
        <ele>95.614605</ele>
        <time>2024-04-14T09:30:57.000Z</time>
      </trkpt>
      <trkpt lat="42.193703" lon="2.956816">
        <ele>92.600215</ele>
        <time>2024-04-14T09:31:03.000Z</time>
      </trkpt>
      <trkpt lat="42.194086" lon="2.957034">
        <ele>90.048097</ele>
        <time>2024-04-14T09:31:08.000Z</time>
      </trkpt>
      <trkpt lat="42.194526" lon="2.957495">
        <ele>86.713101</ele>
        <time>2024-04-14T09:31:14.000Z</time>
      </trkpt>
      <trkpt lat="42.194638" lon="2.957699">
        <ele>85.613744</ele>
        <time>2024-04-14T09:31:16.000Z</time>
      </trkpt>
      <trkpt lat="42.194682" lon="2.957932">
        <ele>84.54142</ele>
        <time>2024-04-14T09:31:18.000Z</time>
      </trkpt>
      <trkpt lat="42.194734" lon="2.958794">
        <ele>80.733678</ele>
        <time>2024-04-14T09:31:25.000Z</time>
      </trkpt>
      <trkpt lat="42.194792" lon="2.95927">
        <ele>78.602449</ele>
        <time>2024-04-14T09:31:29.000Z</time>
      </trkpt>
      <trkpt lat="42.19496" lon="2.959781">
        <ele>76.180335</ele>
        <time>2024-04-14T09:31:34.000Z</time>
      </trkpt>
      <trkpt lat="42.195202" lon="2.960346">
        <ele>73.774367</ele>
        <time>2024-04-14T09:31:39.000Z</time>
      </trkpt>
      <trkpt lat="42.195519" lon="2.960971">
        <ele>71.16155</ele>
        <time>2024-04-14T09:31:45.000Z</time>
      </trkpt>
      <trkpt lat="42.196493" lon="2.962131">
        <ele>65.707431</ele>
        <time>2024-04-14T09:31:59.000Z</time>
      </trkpt>
      <trkpt lat="42.197151" lon="2.963006">
        <ele>62.77278</ele>
        <time>2024-04-14T09:32:09.000Z</time>
      </trkpt>
      <trkpt lat="42.197234" lon="2.963159">
        <ele>62.318943</ele>
        <time>2024-04-14T09:32:11.000Z</time>
      </trkpt>
      <trkpt lat="42.197507" lon="2.963839">
        <ele>60.960783</ele>
        <time>2024-04-14T09:32:17.000Z</time>
      </trkpt>
      <trkpt lat="42.19757" lon="2.964066">
        <ele>60.667382</ele>
        <time>2024-04-14T09:32:19.000Z</time>
      </trkpt>
      <trkpt lat="42.197605" lon="2.964316">
        <ele>60.384673</ele>
        <time>2024-04-14T09:32:21.000Z</time>
      </trkpt>
      <trkpt lat="42.197593" lon="2.965124">
        <ele>59.415191</ele>
        <time>2024-04-14T09:32:28.000Z</time>
      </trkpt>
      <trkpt lat="42.19759" lon="2.965224">
        <ele>59.294771</ele>
        <time>2024-04-14T09:32:29.000Z</time>
      </trkpt>
      <trkpt lat="42.197595" lon="2.965505">
        <ele>58.977591</ele>
        <time>2024-04-14T09:32:31.000Z</time>
      </trkpt>
      <trkpt lat="42.197757" lon="2.966219">
        <ele>58.38849</ele>
        <time>2024-04-14T09:32:37.000Z</time>
      </trkpt>
      <trkpt lat="42.197871" lon="2.966543">
        <ele>58.231661</ele>
        <time>2024-04-14T09:32:40.000Z</time>
      </trkpt>
      <trkpt lat="42.198543" lon="2.967805">
        <ele>57.576632</ele>
        <time>2024-04-14T09:32:53.000Z</time>
      </trkpt>
      <trkpt lat="42.198736" lon="2.968214">
        <ele>57.362262</ele>
        <time>2024-04-14T09:32:57.000Z</time>
      </trkpt>
      <trkpt lat="42.198954" lon="2.969065">
        <ele>56.964612</ele>
        <time>2024-04-14T09:33:04.000Z</time>
      </trkpt>
      <trkpt lat="42.199255" lon="2.970075">
        <ele>56.476641</ele>
        <time>2024-04-14T09:33:13.000Z</time>
      </trkpt>
      <trkpt lat="42.199641" lon="2.971146">
        <ele>55.62106</ele>
        <time>2024-04-14T09:33:23.000Z</time>
      </trkpt>
      <trkpt lat="42.199715" lon="2.971312">
        <ele>55.473957</ele>
        <time>2024-04-14T09:33:25.000Z</time>
      </trkpt>
      <trkpt lat="42.200906" lon="2.973321">
        <ele>53.367052</ele>
        <time>2024-04-14T09:33:46.000Z</time>
      </trkpt>
      <trkpt lat="42.201156" lon="2.973671">
        <ele>52.945531</ele>
        <time>2024-04-14T09:33:50.000Z</time>
      </trkpt>
      <trkpt lat="42.201249" lon="2.973729">
        <ele>52.837394</ele>
        <time>2024-04-14T09:33:51.000Z</time>
      </trkpt>
      <trkpt lat="42.201928" lon="2.973684">
        <ele>52.07402</ele>
        <time>2024-04-14T09:33:59.000Z</time>
      </trkpt>
      <trkpt lat="42.202049" lon="2.973719">
        <ele>51.934732</ele>
        <time>2024-04-14T09:34:00.000Z</time>
      </trkpt>
      <trkpt lat="42.202156" lon="2.973807">
        <ele>51.802819</ele>
        <time>2024-04-14T09:34:01.000Z</time>
      </trkpt>
      <trkpt lat="42.203048" lon="2.974976">
        <ele>50.519443</ele>
        <time>2024-04-14T09:34:15.000Z</time>
      </trkpt>
      <trkpt lat="42.203276" lon="2.975399">
        <ele>50.279456</ele>
        <time>2024-04-14T09:34:19.000Z</time>
      </trkpt>
      <trkpt lat="42.2035" lon="2.976132">
        <ele>49.89985</ele>
        <time>2024-04-14T09:34:26.000Z</time>
      </trkpt>
      <trkpt lat="42.203678" lon="2.976634">
        <ele>49.643793</ele>
        <time>2024-04-14T09:34:31.000Z</time>
      </trkpt>
      <trkpt lat="42.203829" lon="2.976892">
        <ele>49.477211</ele>
        <time>2024-04-14T09:34:34.000Z</time>
      </trkpt>
      <trkpt lat="42.203933" lon="2.977012">
        <ele>49.445221</ele>
        <time>2024-04-14T09:34:36.000Z</time>
      </trkpt>
      <trkpt lat="42.204055" lon="2.977091">
        <ele>49.439228</ele>
        <time>2024-04-14T09:34:38.000Z</time>
      </trkpt>
      <trkpt lat="42.204987" lon="2.977684">
        <ele>49.390339</ele>
        <time>2024-04-14T09:34:49.000Z</time>
      </trkpt>
      <trkpt lat="42.205142" lon="2.977762">
        <ele>49.382627</ele>
        <time>2024-04-14T09:34:51.000Z</time>
      </trkpt>
      <trkpt lat="42.205271" lon="2.977779">
        <ele>49.376696</ele>
        <time>2024-04-14T09:34:52.000Z</time>
      </trkpt>
      <trkpt lat="42.205403" lon="2.977755">
        <ele>49.369796</ele>
        <time>2024-04-14T09:34:53.000Z</time>
      </trkpt>
      <trkpt lat="42.205563" lon="2.977731">
        <ele>49.375592</ele>
        <time>2024-04-14T09:34:55.000Z</time>
      </trkpt>
      <trkpt lat="42.205738" lon="2.977821">
        <ele>49.428553</ele>
        <time>2024-04-14T09:34:57.000Z</time>
      </trkpt>
      <trkpt lat="42.205861" lon="2.977935">
        <ele>49.472366</ele>
        <time>2024-04-14T09:34:59.000Z</time>
      </trkpt>
      <trkpt lat="42.205996" lon="2.977953">
        <ele>49.506497</ele>
        <time>2024-04-14T09:35:01.000Z</time>
      </trkpt>
      <trkpt lat="42.206166" lon="2.977927">
        <ele>49.555769</ele>
        <time>2024-04-14T09:35:03.000Z</time>
      </trkpt>
      <trkpt lat="42.206869" lon="2.977644">
        <ele>49.770236</ele>
        <time>2024-04-14T09:35:11.000Z</time>
      </trkpt>
      <trkpt lat="42.207228" lon="2.977463">
        <ele>49.876038</ele>
        <time>2024-04-14T09:35:15.000Z</time>
      </trkpt>
      <trkpt lat="42.207456" lon="2.977306">
        <ele>49.993024</ele>
        <time>2024-04-14T09:35:18.000Z</time>
      </trkpt>
      <trkpt lat="42.207665" lon="2.977181">
        <ele>50.100132</ele>
        <time>2024-04-14T09:35:21.000Z</time>
      </trkpt>
      <trkpt lat="42.208949" lon="2.976816">
        <ele>50.692816</ele>
        <time>2024-04-14T09:35:36.000Z</time>
      </trkpt>
      <trkpt lat="42.209275" lon="2.976782">
        <ele>50.892294</ele>
        <time>2024-04-14T09:35:40.000Z</time>
      </trkpt>
      <trkpt lat="42.209616" lon="2.976847">
        <ele>51.10601</ele>
        <time>2024-04-14T09:35:44.000Z</time>
      </trkpt>
      <trkpt lat="42.209754" lon="2.976845">
        <ele>51.193069</ele>
        <time>2024-04-14T09:35:46.000Z</time>
      </trkpt>
      <trkpt lat="42.209927" lon="2.976799">
        <ele>51.303258</ele>
        <time>2024-04-14T09:35:48.000Z</time>
      </trkpt>
      <trkpt lat="42.211186" lon="2.976218">
        <ele>52.113139</ele>
        <time>2024-04-14T09:36:03.000Z</time>
      </trkpt>
      <trkpt lat="42.211431" lon="2.976108">
        <ele>52.259402</ele>
        <time>2024-04-14T09:36:06.000Z</time>
      </trkpt>
      <trkpt lat="42.21173" lon="2.976014">
        <ele>52.43374</ele>
        <time>2024-04-14T09:36:09.000Z</time>
      </trkpt>
      <trkpt lat="42.212697" lon="2.975908">
        <ele>52.662181</ele>
        <time>2024-04-14T09:36:20.000Z</time>
      </trkpt>
      <trkpt lat="42.213087" lon="2.97583">
        <ele>52.364752</ele>
        <time>2024-04-14T09:36:24.000Z</time>
      </trkpt>
      <trkpt lat="42.213566" lon="2.975698">
        <ele>52.008853</ele>
        <time>2024-04-14T09:36:29.000Z</time>
      </trkpt>
      <trkpt lat="42.214091" lon="2.975577">
        <ele>51.617836</ele>
        <time>2024-04-14T09:36:35.000Z</time>
      </trkpt>
      <trkpt lat="42.214301" lon="2.975466">
        <ele>51.324662</ele>
        <time>2024-04-14T09:36:38.000Z</time>
      </trkpt>
      <trkpt lat="42.214781" lon="2.975163">
        <ele>50.19189</ele>
        <time>2024-04-14T09:36:44.000Z</time>
      </trkpt>
      <trkpt lat="42.214889" lon="2.97506">
        <ele>49.919673</ele>
        <time>2024-04-14T09:36:45.000Z</time>
      </trkpt>
      <trkpt lat="42.215244" lon="2.974521">
        <ele>48.800716</ele>
        <time>2024-04-14T09:36:51.000Z</time>
      </trkpt>
      <trkpt lat="42.21549" lon="2.97406">
        <ele>47.898014</ele>
        <time>2024-04-14T09:36:56.000Z</time>
      </trkpt>
      <trkpt lat="42.216" lon="2.972808">
        <ele>45.809341</ele>
        <time>2024-04-14T09:37:08.000Z</time>
      </trkpt>
      <trkpt lat="42.216266" lon="2.972193">
        <ele>44.773591</ele>
        <time>2024-04-14T09:37:14.000Z</time>
      </trkpt>
      <trkpt lat="42.216328" lon="2.972287">
        <ele>44.58988</ele>
        <time>2024-04-14T09:37:15.000Z</time>
      </trkpt>
      <trkpt lat="42.216362" lon="2.972403">
        <ele>44.4026</ele>
        <time>2024-04-14T09:37:16.000Z</time>
      </trkpt>
      <trkpt lat="42.216387" lon="2.972825">
        <ele>43.879958</ele>
        <time>2024-04-14T09:37:19.000Z</time>
      </trkpt>
      <trkpt lat="42.216456" lon="2.973157">
        <ele>43.513021</ele>
        <time>2024-04-14T09:37:22.000Z</time>
      </trkpt>
      <trkpt lat="42.216756" lon="2.973996">
        <ele>42.49667</ele>
        <time>2024-04-14T09:37:30.000Z</time>
      </trkpt>
      <trkpt lat="42.217461" lon="2.976295">
        <ele>40.150428</ele>
        <time>2024-04-14T09:37:50.000Z</time>
      </trkpt>
      <trkpt lat="42.217719" lon="2.976826">
        <ele>39.615708</ele>
        <time>2024-04-14T09:37:55.000Z</time>
      </trkpt>
      <trkpt lat="42.217861" lon="2.97716">
        <ele>39.283303</ele>
        <time>2024-04-14T09:37:58.000Z</time>
      </trkpt>
      <trkpt lat="42.217941" lon="2.977478">
        <ele>38.999778</ele>
        <time>2024-04-14T09:38:01.000Z</time>
      </trkpt>
      <trkpt lat="42.218028" lon="2.977815">
        <ele>38.682691</ele>
        <time>2024-04-14T09:38:04.000Z</time>
      </trkpt>
      <trkpt lat="42.218171" lon="2.978371">
        <ele>38.186402</ele>
        <time>2024-04-14T09:38:09.000Z</time>
      </trkpt>
      <trkpt lat="42.218458" lon="2.979523">
        <ele>37.138938</ele>
        <time>2024-04-14T09:38:19.000Z</time>
      </trkpt>
      <trkpt lat="42.218566" lon="2.979761">
        <ele>36.922551</ele>
        <time>2024-04-14T09:38:21.000Z</time>
      </trkpt>
      <trkpt lat="42.218757" lon="2.979994">
        <ele>36.631302</ele>
        <time>2024-04-14T09:38:24.000Z</time>
      </trkpt>
      <trkpt lat="42.219516" lon="2.980447">
        <ele>35.723585</ele>
        <time>2024-04-14T09:38:33.000Z</time>
      </trkpt>
      <trkpt lat="42.219881" lon="2.980879">
        <ele>35.215593</ele>
        <time>2024-04-14T09:38:38.000Z</time>
      </trkpt>
      <trkpt lat="42.220099" lon="2.981243">
        <ele>34.875708</ele>
        <time>2024-04-14T09:38:42.000Z</time>
      </trkpt>
      <trkpt lat="42.220258" lon="2.981577">
        <ele>34.591458</ele>
        <time>2024-04-14T09:38:45.000Z</time>
      </trkpt>
      <trkpt lat="42.220428" lon="2.981969">
        <ele>34.274403</ele>
        <time>2024-04-14T09:38:49.000Z</time>
      </trkpt>
      <trkpt lat="42.220757" lon="2.982967">
        <ele>33.547659</ele>
        <time>2024-04-14T09:38:58.000Z</time>
      </trkpt>
      <trkpt lat="42.220946" lon="2.983348">
        <ele>33.326555</ele>
        <time>2024-04-14T09:39:02.000Z</time>
      </trkpt>
      <trkpt lat="42.221094" lon="2.983606">
        <ele>33.162322</ele>
        <time>2024-04-14T09:39:05.000Z</time>
      </trkpt>
      <trkpt lat="42.221669" lon="2.984378">
        <ele>32.637186</ele>
        <time>2024-04-14T09:39:14.000Z</time>
      </trkpt>
      <trkpt lat="42.22196" lon="2.984854">
        <ele>32.469662</ele>
        <time>2024-04-14T09:39:19.000Z</time>
      </trkpt>
      <trkpt lat="42.222079" lon="2.985024">
        <ele>32.460158</ele>
        <time>2024-04-14T09:39:21.000Z</time>
      </trkpt>
      <trkpt lat="42.222658" lon="2.986185">
        <ele>32.40256</ele>
        <time>2024-04-14T09:39:33.000Z</time>
      </trkpt>
      <trkpt lat="42.222872" lon="2.98656">
        <ele>32.383426</ele>
        <time>2024-04-14T09:39:37.000Z</time>
      </trkpt>
      <trkpt lat="42.224413" lon="2.988606">
        <ele>31.260065</ele>
        <time>2024-04-14T09:40:01.000Z</time>
      </trkpt>
      <trkpt lat="42.224627" lon="2.988924">
        <ele>30.932227</ele>
        <time>2024-04-14T09:40:05.000Z</time>
      </trkpt>
      <trkpt lat="42.226062" lon="2.9916">
        <ele>27.803042</ele>
        <time>2024-04-14T09:40:32.000Z</time>
      </trkpt>
      <trkpt lat="42.226312" lon="2.992064">
        <ele>27.174112</ele>
        <time>2024-04-14T09:40:37.000Z</time>
      </trkpt>
      <trkpt lat="42.226499" lon="2.992502">
        <ele>26.357061</ele>
        <time>2024-04-14T09:40:41.000Z</time>
      </trkpt>
      <trkpt lat="42.227296" lon="2.994464">
        <ele>22.471563</ele>
        <time>2024-04-14T09:40:59.000Z</time>
      </trkpt>
      <trkpt lat="42.227318" lon="2.994536">
        <ele>22.383797</ele>
        <time>2024-04-14T09:41:00.000Z</time>
      </trkpt>
      <trkpt lat="42.227416" lon="2.994725">
        <ele>22.082032</ele>
        <time>2024-04-14T09:41:02.000Z</time>
      </trkpt>
      <trkpt lat="42.227423" lon="2.994814">
        <ele>21.958197</ele>
        <time>2024-04-14T09:41:03.000Z</time>
      </trkpt>
      <trkpt lat="42.227443" lon="2.994896">
        <ele>21.833873</ele>
        <time>2024-04-14T09:41:04.000Z</time>
      </trkpt>
      <trkpt lat="42.227499" lon="2.995084">
        <ele>21.572784</ele>
        <time>2024-04-14T09:41:06.000Z</time>
      </trkpt>
      <trkpt lat="42.227596" lon="2.995315">
        <ele>21.239102</ele>
        <time>2024-04-14T09:41:08.000Z</time>
      </trkpt>
      <trkpt lat="42.227658" lon="2.995672">
        <ele>20.770782</ele>
        <time>2024-04-14T09:41:11.000Z</time>
      </trkpt>
      <trkpt lat="42.227643" lon="2.996432">
        <ele>19.76421</ele>
        <time>2024-04-14T09:41:17.000Z</time>
      </trkpt>
      <trkpt lat="42.227704" lon="2.996799">
        <ele>19.578602</ele>
        <time>2024-04-14T09:41:20.000Z</time>
      </trkpt>
      <trkpt lat="42.227682" lon="2.996949">
        <ele>19.566191</ele>
        <time>2024-04-14T09:41:21.000Z</time>
      </trkpt>
      <trkpt lat="42.227717" lon="2.997046">
        <ele>19.55777</ele>
        <time>2024-04-14T09:41:22.000Z</time>
      </trkpt>
      <trkpt lat="42.227816" lon="2.997106">
        <ele>19.544611</ele>
        <time>2024-04-14T09:41:23.000Z</time>
      </trkpt>
      <trkpt lat="42.2279" lon="2.99707">
        <ele>19.53564</ele>
        <time>2024-04-14T09:41:24.000Z</time>
      </trkpt>
      <trkpt lat="42.228058" lon="2.997126">
        <ele>19.516382</ele>
        <time>2024-04-14T09:41:26.000Z</time>
      </trkpt>
      <trkpt lat="42.22828" lon="2.997283">
        <ele>19.487711</ele>
        <time>2024-04-14T09:41:29.000Z</time>
      </trkpt>
      <trkpt lat="42.228365" lon="2.99748">
        <ele>19.469204</ele>
        <time>2024-04-14T09:41:31.000Z</time>
      </trkpt>
      <trkpt lat="42.228383" lon="2.997573">
        <ele>19.4617</ele>
        <time>2024-04-14T09:41:32.000Z</time>
      </trkpt>
      <trkpt lat="42.228424" lon="2.997632">
        <ele>19.454176</ele>
        <time>2024-04-14T09:41:33.000Z</time>
      </trkpt>
      <trkpt lat="42.228546" lon="2.997648">
        <ele>19.441312</ele>
        <time>2024-04-14T09:41:34.000Z</time>
      </trkpt>
      <trkpt lat="42.228694" lon="2.997723">
        <ele>19.423076</ele>
        <time>2024-04-14T09:41:36.000Z</time>
      </trkpt>
      <trkpt lat="42.228849" lon="2.997898">
        <ele>19.401266</ele>
        <time>2024-04-14T09:41:38.000Z</time>
      </trkpt>
      <trkpt lat="42.228925" lon="2.998061">
        <ele>19.426005</ele>
        <time>2024-04-14T09:41:40.000Z</time>
      </trkpt>
      <trkpt lat="42.229066" lon="2.998436">
        <ele>19.508954</ele>
        <time>2024-04-14T09:41:43.000Z</time>
      </trkpt>
      <trkpt lat="42.229102" lon="2.998843">
        <ele>19.58859</ele>
        <time>2024-04-14T09:41:46.000Z</time>
      </trkpt>
      <trkpt lat="42.229057" lon="2.998938">
        <ele>19.609176</ele>
        <time>2024-04-14T09:41:47.000Z</time>
      </trkpt>
      <trkpt lat="42.229088" lon="2.999076">
        <ele>19.636786</ele>
        <time>2024-04-14T09:41:48.000Z</time>
      </trkpt>
      <trkpt lat="42.229154" lon="2.999159">
        <ele>19.664308</ele>
        <time>2024-04-14T09:41:49.000Z</time>
      </trkpt>
      <trkpt lat="42.229233" lon="2.99919">
        <ele>19.683692</ele>
        <time>2024-04-14T09:41:50.000Z</time>
      </trkpt>
      <trkpt lat="42.229313" lon="2.999149">
        <ele>19.705937</ele>
        <time>2024-04-14T09:41:51.000Z</time>
      </trkpt>
      <trkpt lat="42.229344" lon="2.999114">
        <ele>19.719794</ele>
        <time>2024-04-14T09:41:51.000Z</time>
      </trkpt>
      <trkpt lat="42.22938" lon="2.999048">
        <ele>19.733742</ele>
        <time>2024-04-14T09:41:52.000Z</time>
      </trkpt>
      <trkpt lat="42.22943" lon="2.999057">
        <ele>19.750248</ele>
        <time>2024-04-14T09:41:53.000Z</time>
      </trkpt>
      <trkpt lat="42.23046" lon="2.998631">
        <ele>19.967448</ele>
        <time>2024-04-14T09:42:05.000Z</time>
      </trkpt>
      <trkpt lat="42.231458" lon="2.99797">
        <ele>20.138198</ele>
        <time>2024-04-14T09:42:17.000Z</time>
      </trkpt>
      <trkpt lat="42.231554" lon="2.997791">
        <ele>20.130965</ele>
        <time>2024-04-14T09:42:19.000Z</time>
      </trkpt>
      <trkpt lat="42.231641" lon="2.997529">
        <ele>20.08603</ele>
        <time>2024-04-14T09:42:21.000Z</time>
      </trkpt>
      <trkpt lat="42.231812" lon="2.997268">
        <ele>20.030207</ele>
        <time>2024-04-14T09:42:24.000Z</time>
      </trkpt>
      <trkpt lat="42.231924" lon="2.997223">
        <ele>20.005734</ele>
        <time>2024-04-14T09:42:25.000Z</time>
      </trkpt>
      <trkpt lat="42.231957" lon="2.997164">
        <ele>19.995897</ele>
        <time>2024-04-14T09:42:26.000Z</time>
      </trkpt>
      <trkpt lat="42.232232" lon="2.99713">
        <ele>19.935388</ele>
        <time>2024-04-14T09:42:29.000Z</time>
      </trkpt>
      <trkpt lat="42.232599" lon="2.997192">
        <ele>19.854974</ele>
        <time>2024-04-14T09:42:33.000Z</time>
      </trkpt>
      <trkpt lat="42.23322" lon="2.996943">
        <ele>19.651689</ele>
        <time>2024-04-14T09:42:40.000Z</time>
      </trkpt>
      <trkpt lat="42.233922" lon="2.996504">
        <ele>19.232274</ele>
        <time>2024-04-14T09:42:49.000Z</time>
      </trkpt>
      <trkpt lat="42.234963" lon="2.996044">
        <ele>18.788794</ele>
        <time>2024-04-14T09:43:01.000Z</time>
      </trkpt>
      <trkpt lat="42.235736" lon="2.995781">
        <ele>18.757676</ele>
        <time>2024-04-14T09:43:10.000Z</time>
      </trkpt>
      <trkpt lat="42.236157" lon="2.995566">
        <ele>18.740658</ele>
        <time>2024-04-14T09:43:15.000Z</time>
      </trkpt>
      <trkpt lat="42.236379" lon="2.995493">
        <ele>18.731508</ele>
        <time>2024-04-14T09:43:18.000Z</time>
      </trkpt>
      <trkpt lat="42.23653" lon="2.995488">
        <ele>18.782507</ele>
        <time>2024-04-14T09:43:20.000Z</time>
      </trkpt>
      <trkpt lat="42.236668" lon="2.995489">
        <ele>18.856249</ele>
        <time>2024-04-14T09:43:22.000Z</time>
      </trkpt>
      <trkpt lat="42.237233" lon="2.995625">
        <ele>19.155122</ele>
        <time>2024-04-14T09:43:28.000Z</time>
      </trkpt>
      <trkpt lat="42.238417" lon="2.996048">
        <ele>19.767875</ele>
        <time>2024-04-14T09:43:42.000Z</time>
      </trkpt>
      <trkpt lat="42.239167" lon="2.996199">
        <ele>20.123828</ele>
        <time>2024-04-14T09:43:50.000Z</time>
      </trkpt>
      <trkpt lat="42.239501" lon="2.99631">
        <ele>20.290183</ele>
        <time>2024-04-14T09:43:54.000Z</time>
      </trkpt>
      <trkpt lat="42.240511" lon="2.996926">
        <ele>20.512674</ele>
        <time>2024-04-14T09:44:06.000Z</time>
      </trkpt>
      <trkpt lat="42.241084" lon="2.997286">
        <ele>20.523919</ele>
        <time>2024-04-14T09:44:13.000Z</time>
      </trkpt>
      <trkpt lat="42.241498" lon="2.997624">
        <ele>20.532332</ele>
        <time>2024-04-14T09:44:18.000Z</time>
      </trkpt>
      <trkpt lat="42.242726" lon="2.999104">
        <ele>19.89841</ele>
        <time>2024-04-14T09:44:36.000Z</time>
      </trkpt>
      <trkpt lat="42.242913" lon="2.999372">
        <ele>19.798185</ele>
        <time>2024-04-14T09:44:39.000Z</time>
      </trkpt>
      <trkpt lat="42.243168" lon="2.999615">
        <ele>19.690831</ele>
        <time>2024-04-14T09:44:42.000Z</time>
      </trkpt>
      <trkpt lat="42.24335" lon="2.999694">
        <ele>19.623158</ele>
        <time>2024-04-14T09:44:44.000Z</time>
      </trkpt>
      <trkpt lat="42.243388" lon="2.999704">
        <ele>19.609037</ele>
        <time>2024-04-14T09:44:44.000Z</time>
      </trkpt>
      <trkpt lat="42.24368" lon="2.999845">
        <ele>19.500232</ele>
        <time>2024-04-14T09:44:47.000Z</time>
      </trkpt>
      <trkpt lat="42.243928" lon="3.000014">
        <ele>19.405963</ele>
        <time>2024-04-14T09:44:50.000Z</time>
      </trkpt>
      <trkpt lat="42.244079" lon="3.000043">
        <ele>19.357074</ele>
        <time>2024-04-14T09:44:52.000Z</time>
      </trkpt>
      <trkpt lat="42.244694" lon="2.999937">
        <ele>19.262424</ele>
        <time>2024-04-14T09:44:59.000Z</time>
      </trkpt>
      <trkpt lat="42.245803" lon="3.000033">
        <ele>19.553129</ele>
        <time>2024-04-14T09:45:11.000Z</time>
      </trkpt>
      <trkpt lat="42.246314" lon="2.999953">
        <ele>19.713793</ele>
        <time>2024-04-14T09:45:17.000Z</time>
      </trkpt>
      <trkpt lat="42.246661" lon="2.999845">
        <ele>20.153088</ele>
        <time>2024-04-14T09:45:21.000Z</time>
      </trkpt>
      <trkpt lat="42.247473" lon="2.999516">
        <ele>21.217636</ele>
        <time>2024-04-14T09:45:30.000Z</time>
      </trkpt>
      <trkpt lat="42.247893" lon="2.999304">
        <ele>21.768196</ele>
        <time>2024-04-14T09:45:35.000Z</time>
      </trkpt>
      <trkpt lat="42.248184" lon="2.999117">
        <ele>22.294609</ele>
        <time>2024-04-14T09:45:39.000Z</time>
      </trkpt>
      <trkpt lat="42.248957" lon="2.998645">
        <ele>23.811199</ele>
        <time>2024-04-14T09:45:48.000Z</time>
      </trkpt>
      <trkpt lat="42.249499" lon="2.998244">
        <ele>24.925172</ele>
        <time>2024-04-14T09:45:55.000Z</time>
      </trkpt>
      <trkpt lat="42.249681" lon="2.998145">
        <ele>25.153276</ele>
        <time>2024-04-14T09:45:57.000Z</time>
      </trkpt>
      <trkpt lat="42.249918" lon="2.998039">
        <ele>25.148729</ele>
        <time>2024-04-14T09:46:00.000Z</time>
      </trkpt>
      <trkpt lat="42.250389" lon="2.997926">
        <ele>25.139729</ele>
        <time>2024-04-14T09:46:05.000Z</time>
      </trkpt>
      <trkpt lat="42.250751" lon="2.997836">
        <ele>25.132695</ele>
        <time>2024-04-14T09:46:09.000Z</time>
      </trkpt>
      <trkpt lat="42.250968" lon="2.997733">
        <ele>25.128598</ele>
        <time>2024-04-14T09:46:12.000Z</time>
      </trkpt>
      <trkpt lat="42.251071" lon="2.997629">
        <ele>25.126082</ele>
        <time>2024-04-14T09:46:13.000Z</time>
      </trkpt>
      <trkpt lat="42.251121" lon="2.997685">
        <ele>25.125151</ele>
        <time>2024-04-14T09:46:14.000Z</time>
      </trkpt>
      <trkpt lat="42.251228" lon="2.997864">
        <ele>25.121775</ele>
        <time>2024-04-14T09:46:16.000Z</time>
      </trkpt>
      <trkpt lat="42.251592" lon="2.99851">
        <ele>23.507273</ele>
        <time>2024-04-14T09:46:23.000Z</time>
      </trkpt>
      <trkpt lat="42.252496" lon="3.000068">
        <ele>19.430982</ele>
        <time>2024-04-14T09:46:39.000Z</time>
      </trkpt>
      <trkpt lat="42.25262" lon="3.000251">
        <ele>19.055593</ele>
        <time>2024-04-14T09:46:41.000Z</time>
      </trkpt>
      <trkpt lat="42.252753" lon="3.000449">
        <ele>18.635619</ele>
        <time>2024-04-14T09:46:43.000Z</time>
      </trkpt>
      <trkpt lat="42.254131" lon="3.002132">
        <ele>15.717634</ele>
        <time>2024-04-14T09:47:04.000Z</time>
      </trkpt>
      <trkpt lat="42.2559" lon="3.004264">
        <ele>14.561365</ele>
        <time>2024-04-14T09:47:30.000Z</time>
      </trkpt>
      <trkpt lat="42.256514" lon="3.006024">
        <ele>13.989746</ele>
        <time>2024-04-14T09:47:46.000Z</time>
      </trkpt>
      <trkpt lat="42.257051" lon="3.007139">
        <ele>13.520882</ele>
        <time>2024-04-14T09:47:57.000Z</time>
      </trkpt>
      <trkpt lat="42.257392" lon="3.007785">
        <ele>13.194862</ele>
        <time>2024-04-14T09:48:04.000Z</time>
      </trkpt>
      <trkpt lat="42.257833" lon="3.0087">
        <ele>12.750454</ele>
        <time>2024-04-14T09:48:13.000Z</time>
      </trkpt>
      <trkpt lat="42.258759" lon="3.011102">
        <ele>11.820967</ele>
        <time>2024-04-14T09:48:35.000Z</time>
      </trkpt>
      <trkpt lat="42.258875" lon="3.011371">
        <ele>11.739041</ele>
        <time>2024-04-14T09:48:38.000Z</time>
      </trkpt>
      <trkpt lat="42.259252" lon="3.011977">
        <ele>11.586242</ele>
        <time>2024-04-14T09:48:45.000Z</time>
      </trkpt>
      <trkpt lat="42.260791" lon="3.014037">
        <ele>11.193548</ele>
        <time>2024-04-14T09:49:09.000Z</time>
      </trkpt>
      <trkpt lat="42.261222" lon="3.014639">
        <ele>11.133894</ele>
        <time>2024-04-14T09:49:16.000Z</time>
      </trkpt>
      <trkpt lat="42.261289" lon="3.014867">
        <ele>11.132708</ele>
        <time>2024-04-14T09:49:18.000Z</time>
      </trkpt>
      <trkpt lat="42.261248" lon="3.014976">
        <ele>11.147326</ele>
        <time>2024-04-14T09:49:19.000Z</time>
      </trkpt>
      <trkpt lat="42.261075" lon="3.015081">
        <ele>11.183621</ele>
        <time>2024-04-14T09:49:21.000Z</time>
      </trkpt>
      <trkpt lat="42.260252" lon="3.015376">
        <ele>11.342532</ele>
        <time>2024-04-14T09:49:30.000Z</time>
      </trkpt>
      <trkpt lat="42.259436" lon="3.015577">
        <ele>11.487509</ele>
        <time>2024-04-14T09:49:39.000Z</time>
      </trkpt>
      <trkpt lat="42.259213" lon="3.015693">
        <ele>11.520897</ele>
        <time>2024-04-14T09:49:42.000Z</time>
      </trkpt>
      <trkpt lat="42.25799" lon="3.01645">
        <ele>11.711209</ele>
        <time>2024-04-14T09:49:57.000Z</time>
      </trkpt>
      <trkpt lat="42.257593" lon="3.016634">
        <ele>11.596701</ele>
        <time>2024-04-14T09:50:02.000Z</time>
      </trkpt>
      <trkpt lat="42.257203" lon="3.016921">
        <ele>11.470831</ele>
        <time>2024-04-14T09:50:07.000Z</time>
      </trkpt>
      <trkpt lat="42.256834" lon="3.017223">
        <ele>11.344483</ele>
        <time>2024-04-14T09:50:12.000Z</time>
      </trkpt>
      <trkpt lat="42.256238" lon="3.017906">
        <ele>11.10286</ele>
        <time>2024-04-14T09:50:21.000Z</time>
      </trkpt>
      <trkpt lat="42.255753" lon="3.018525">
        <ele>10.861343</ele>
        <time>2024-04-14T09:50:28.000Z</time>
      </trkpt>
      <trkpt lat="42.254785" lon="3.019824">
        <ele>10.39695</ele>
        <time>2024-04-14T09:50:43.000Z</time>
      </trkpt>
      <trkpt lat="42.254193" lon="3.020573">
        <ele>10.153525</ele>
        <time>2024-04-14T09:50:52.000Z</time>
      </trkpt>
      <trkpt lat="42.253573" lon="3.021197">
        <ele>9.885237</ele>
        <time>2024-04-14T09:51:01.000Z</time>
      </trkpt>
      <trkpt lat="42.25294" lon="3.021811">
        <ele>9.559052</ele>
        <time>2024-04-14T09:51:10.000Z</time>
      </trkpt>
      <trkpt lat="42.252328" lon="3.022268">
        <ele>9.270852</ele>
        <time>2024-04-14T09:51:18.000Z</time>
      </trkpt>
      <trkpt lat="42.251622" lon="3.022757">
        <ele>9.085883</ele>
        <time>2024-04-14T09:51:27.000Z</time>
      </trkpt>
      <trkpt lat="42.251102" lon="3.023193">
        <ele>8.942251</ele>
        <time>2024-04-14T09:51:34.000Z</time>
      </trkpt>
      <trkpt lat="42.250758" lon="3.023604">
        <ele>8.840616</ele>
        <time>2024-04-14T09:51:39.000Z</time>
      </trkpt>
      <trkpt lat="42.250575" lon="3.023871">
        <ele>8.805041</ele>
        <time>2024-04-14T09:51:42.000Z</time>
      </trkpt>
      <trkpt lat="42.250322" lon="3.024096">
        <ele>8.763259</ele>
        <time>2024-04-14T09:51:45.000Z</time>
      </trkpt>
      <trkpt lat="42.249158" lon="3.02488">
        <ele>8.577514</ele>
        <time>2024-04-14T09:51:59.000Z</time>
      </trkpt>
      <trkpt lat="42.247636" lon="3.025652">
        <ele>8.229389</ele>
        <time>2024-04-14T09:52:17.000Z</time>
      </trkpt>
      <trkpt lat="42.246937" lon="3.026153">
        <ele>8.251631</ele>
        <time>2024-04-14T09:52:26.000Z</time>
      </trkpt>
      <trkpt lat="42.24675" lon="3.026297">
        <ele>8.261598</ele>
        <time>2024-04-14T09:52:28.000Z</time>
      </trkpt>
      <trkpt lat="42.246615" lon="3.026399">
        <ele>8.268886</ele>
        <time>2024-04-14T09:52:30.000Z</time>
      </trkpt>
      <trkpt lat="42.246344" lon="3.026549">
        <ele>8.283162</ele>
        <time>2024-04-14T09:52:33.000Z</time>
      </trkpt>
      <trkpt lat="42.245738" lon="3.026702">
        <ele>8.370937</ele>
        <time>2024-04-14T09:52:40.000Z</time>
      </trkpt>
      <trkpt lat="42.245249" lon="3.027034">
        <ele>8.553318</ele>
        <time>2024-04-14T09:52:46.000Z</time>
      </trkpt>
      <trkpt lat="42.245154" lon="3.027088">
        <ele>8.586028</ele>
        <time>2024-04-14T09:52:47.000Z</time>
      </trkpt>
      <trkpt lat="42.244863" lon="3.027256">
        <ele>8.690959</ele>
        <time>2024-04-14T09:52:51.000Z</time>
      </trkpt>
      <trkpt lat="42.244222" lon="3.027694">
        <ele>8.855916</ele>
        <time>2024-04-14T09:52:59.000Z</time>
      </trkpt>
      <trkpt lat="42.244126" lon="3.02784">
        <ele>8.796625</ele>
        <time>2024-04-14T09:53:01.000Z</time>
      </trkpt>
      <trkpt lat="42.244062" lon="3.027981">
        <ele>8.750219</ele>
        <time>2024-04-14T09:53:02.000Z</time>
      </trkpt>
      <trkpt lat="42.244049" lon="3.028055">
        <ele>8.724978</ele>
        <time>2024-04-14T09:53:03.000Z</time>
      </trkpt>
      <trkpt lat="42.244052" lon="3.028511">
        <ele>8.596009</ele>
        <time>2024-04-14T09:53:07.000Z</time>
      </trkpt>
      <trkpt lat="42.244026" lon="3.028632">
        <ele>8.557783</ele>
        <time>2024-04-14T09:53:08.000Z</time>
      </trkpt>
      <trkpt lat="42.243308" lon="3.029667">
        <ele>8.109822</ele>
        <time>2024-04-14T09:53:20.000Z</time>
      </trkpt>
      <trkpt lat="42.243086" lon="3.030108">
        <ele>7.811422</ele>
        <time>2024-04-14T09:53:24.000Z</time>
      </trkpt>
      <trkpt lat="42.24267" lon="3.031188">
        <ele>7.1111</ele>
        <time>2024-04-14T09:53:34.000Z</time>
      </trkpt>
      <trkpt lat="42.242469" lon="3.031643">
        <ele>6.801385</ele>
        <time>2024-04-14T09:53:38.000Z</time>
      </trkpt>
      <trkpt lat="42.242177" lon="3.032247">
        <ele>6.549294</ele>
        <time>2024-04-14T09:53:44.000Z</time>
      </trkpt>
      <trkpt lat="42.242075" lon="3.032577">
        <ele>6.425447</ele>
        <time>2024-04-14T09:53:47.000Z</time>
      </trkpt>
      <trkpt lat="42.242017" lon="3.032754">
        <ele>6.355948</ele>
        <time>2024-04-14T09:53:49.000Z</time>
      </trkpt>
      <trkpt lat="42.241915" lon="3.032888">
        <ele>6.286797</ele>
        <time>2024-04-14T09:53:51.000Z</time>
      </trkpt>
      <trkpt lat="42.241843" lon="3.032887">
        <ele>6.253028</ele>
        <time>2024-04-14T09:53:52.000Z</time>
      </trkpt>
      <trkpt lat="42.241755" lon="3.032968">
        <ele>6.205609</ele>
        <time>2024-04-14T09:53:53.000Z</time>
      </trkpt>
      <trkpt lat="42.241727" lon="3.033104">
        <ele>6.150942</ele>
        <time>2024-04-14T09:53:54.000Z</time>
      </trkpt>
      <trkpt lat="42.241763" lon="3.033205">
        <ele>6.110842</ele>
        <time>2024-04-14T09:53:55.000Z</time>
      </trkpt>
      <trkpt lat="42.241817" lon="3.033267">
        <ele>6.079382</ele>
        <time>2024-04-14T09:53:56.000Z</time>
      </trkpt>
      <trkpt lat="42.241841" lon="3.033262">
        <ele>6.070193</ele>
        <time>2024-04-14T09:53:56.000Z</time>
      </trkpt>
      <trkpt lat="42.241915" lon="3.03346">
        <ele>5.993294</ele>
        <time>2024-04-14T09:53:58.000Z</time>
      </trkpt>
      <trkpt lat="42.242721" lon="3.036003">
        <ele>6.358427</ele>
        <time>2024-04-14T09:54:21.000Z</time>
      </trkpt>
      <trkpt lat="42.24291" lon="3.03654">
        <ele>6.405843</ele>
        <time>2024-04-14T09:54:26.000Z</time>
      </trkpt>
      <trkpt lat="42.243461" lon="3.037502">
        <ele>6.506666</ele>
        <time>2024-04-14T09:54:36.000Z</time>
      </trkpt>
      <trkpt lat="42.243962" lon="3.038267">
        <ele>6.471193</ele>
        <time>2024-04-14T09:54:44.000Z</time>
      </trkpt>
      <trkpt lat="42.243988" lon="3.038319">
        <ele>6.463</ele>
        <time>2024-04-14T09:54:45.000Z</time>
      </trkpt>
      <trkpt lat="42.244076" lon="3.038459">
        <ele>6.442706</ele>
        <time>2024-04-14T09:54:47.000Z</time>
      </trkpt>
      <trkpt lat="42.244144" lon="3.038537">
        <ele>6.430722</ele>
        <time>2024-04-14T09:54:48.000Z</time>
      </trkpt>
      <trkpt lat="42.244574" lon="3.039192">
        <ele>6.331253</ele>
        <time>2024-04-14T09:54:55.000Z</time>
      </trkpt>
      <trkpt lat="42.244821" lon="3.03974">
        <ele>6.249895</ele>
        <time>2024-04-14T09:55:00.000Z</time>
      </trkpt>
      <trkpt lat="42.244933" lon="3.039996">
        <ele>6.186016</ele>
        <time>2024-04-14T09:55:02.000Z</time>
      </trkpt>
      <trkpt lat="42.245391" lon="3.041052">
        <ele>5.918957</ele>
        <time>2024-04-14T09:55:12.000Z</time>
      </trkpt>
      <trkpt lat="42.245479" lon="3.041199">
        <ele>5.876996</ele>
        <time>2024-04-14T09:55:14.000Z</time>
      </trkpt>
      <trkpt lat="42.245897" lon="3.0419">
        <ele>5.61318</ele>
        <time>2024-04-14T09:55:21.000Z</time>
      </trkpt>
      <trkpt lat="42.245987" lon="3.04215">
        <ele>5.469488</ele>
        <time>2024-04-14T09:55:23.000Z</time>
      </trkpt>
      <trkpt lat="42.246263" lon="3.042947">
        <ele>5.043743</ele>
        <time>2024-04-14T09:55:30.000Z</time>
      </trkpt>
      <trkpt lat="42.246586" lon="3.043449">
        <ele>4.707773</ele>
        <time>2024-04-14T09:55:35.000Z</time>
      </trkpt>
      <trkpt lat="42.247049" lon="3.044051">
        <ele>4.425045</ele>
        <time>2024-04-14T09:55:42.000Z</time>
      </trkpt>
      <trkpt lat="42.247513" lon="3.044653">
        <ele>4.247557</ele>
        <time>2024-04-14T09:55:49.000Z</time>
      </trkpt>
      <trkpt lat="42.247871" lon="3.045121">
        <ele>4.106976</ele>
        <time>2024-04-14T09:55:55.000Z</time>
      </trkpt>
      <trkpt lat="42.248337" lon="3.045598">
        <ele>4.153335</ele>
        <time>2024-04-14T09:56:02.000Z</time>
      </trkpt>
      <trkpt lat="42.249551" lon="3.046456">
        <ele>4.720807</ele>
        <time>2024-04-14T09:56:17.000Z</time>
      </trkpt>
      <trkpt lat="42.249697" lon="3.046564">
        <ele>4.767222</ele>
        <time>2024-04-14T09:56:19.000Z</time>
      </trkpt>
      <trkpt lat="42.250058" lon="3.046824">
        <ele>4.754271</ele>
        <time>2024-04-14T09:56:24.000Z</time>
      </trkpt>
      <trkpt lat="42.250205" lon="3.047002">
        <ele>4.747607</ele>
        <time>2024-04-14T09:56:26.000Z</time>
      </trkpt>
      <trkpt lat="42.25162" lon="3.048881">
        <ele>4.411631</ele>
        <time>2024-04-14T09:56:48.000Z</time>
      </trkpt>
      <trkpt lat="42.252061" lon="3.049702">
        <ele>4.138964</ele>
        <time>2024-04-14T09:56:56.000Z</time>
      </trkpt>
      <trkpt lat="42.252286" lon="3.050311">
        <ele>4.065504</ele>
        <time>2024-04-14T09:57:02.000Z</time>
      </trkpt>
      <trkpt lat="42.252595" lon="3.051474">
        <ele>4.069481</ele>
        <time>2024-04-14T09:57:12.000Z</time>
      </trkpt>
      <trkpt lat="42.252846" lon="3.051937">
        <ele>4.07137</ele>
        <time>2024-04-14T09:57:17.000Z</time>
      </trkpt>
      <trkpt lat="42.254451" lon="3.054337">
        <ele>5.330701</ele>
        <time>2024-04-14T09:57:44.000Z</time>
      </trkpt>
      <trkpt lat="42.25566" lon="3.05609">
        <ele>6.060127</ele>
        <time>2024-04-14T09:58:04.000Z</time>
      </trkpt>
      <trkpt lat="42.255945" lon="3.056373">
        <ele>6.109284</ele>
        <time>2024-04-14T09:58:08.000Z</time>
      </trkpt>
      <trkpt lat="42.256284" lon="3.056548">
        <ele>6.157856</ele>
        <time>2024-04-14T09:58:12.000Z</time>
      </trkpt>
      <trkpt lat="42.256212" lon="3.057189">
        <ele>6.222606</ele>
        <time>2024-04-14T09:58:17.000Z</time>
      </trkpt>
      <trkpt lat="42.256306" lon="3.057638">
        <ele>6.24874</ele>
        <time>2024-04-14T09:58:21.000Z</time>
      </trkpt>
      <trkpt lat="42.256291" lon="3.057782">
        <ele>6.248704</ele>
        <time>2024-04-14T09:58:22.000Z</time>
      </trkpt>
      <trkpt lat="42.256134" lon="3.059304">
        <ele>6.248315</ele>
        <time>2024-04-14T09:58:35.000Z</time>
      </trkpt>
      <trkpt lat="42.256139" lon="3.059813">
        <ele>6.248179</ele>
        <time>2024-04-14T09:58:39.000Z</time>
      </trkpt>
      <trkpt lat="42.256217" lon="3.060495">
        <ele>6.259236</ele>
        <time>2024-04-14T09:58:45.000Z</time>
      </trkpt>
      <trkpt lat="42.256328" lon="3.061063">
        <ele>6.26906</ele>
        <time>2024-04-14T09:58:50.000Z</time>
      </trkpt>
      <trkpt lat="42.255432" lon="3.065169">
        <ele>6.119293</ele>
        <time>2024-04-14T09:59:25.000Z</time>
      </trkpt>
      <trkpt lat="42.255097" lon="3.066514">
        <ele>6.210352</ele>
        <time>2024-04-14T09:59:37.000Z</time>
      </trkpt>
      <trkpt lat="42.254759" lon="3.067473">
        <ele>6.371769</ele>
        <time>2024-04-14T09:59:46.000Z</time>
      </trkpt>
      <trkpt lat="42.25388" lon="3.067093">
        <ele>6.613182</ele>
        <time>2024-04-14T09:59:56.000Z</time>
      </trkpt>
      <trkpt lat="42.253826" lon="3.067154">
        <ele>6.629639</ele>
        <time>2024-04-14T09:59:57.000Z</time>
      </trkpt>
      <trkpt lat="42.253833" lon="3.067227">
        <ele>6.64512</ele>
        <time>2024-04-14T09:59:58.000Z</time>
      </trkpt>
      <trkpt lat="42.253879" lon="3.067263">
        <ele>6.65713</ele>
        <time>2024-04-14T09:59:59.000Z</time>
      </trkpt>
      <trkpt lat="42.254437" lon="3.067739">
        <ele>6.964319</ele>
        <time>2024-04-14T10:00:06.000Z</time>
      </trkpt>
      <trkpt lat="42.25449" lon="3.067826">
        <ele>7.003822</ele>
        <time>2024-04-14T10:00:07.000Z</time>
      </trkpt>
      <trkpt lat="42.254481" lon="3.067945">
        <ele>7.052359</ele>
        <time>2024-04-14T10:00:08.000Z</time>
      </trkpt>
      <trkpt lat="42.254436" lon="3.068071">
        <ele>7.102542</ele>
        <time>2024-04-14T10:00:09.000Z</time>
      </trkpt>
      <trkpt lat="42.254361" lon="3.068187">
        <ele>7.165182</ele>
        <time>2024-04-14T10:00:10.000Z</time>
      </trkpt>
      <trkpt lat="42.253393" lon="3.069102">
        <ele>7.713375</ele>
        <time>2024-04-14T10:00:23.000Z</time>
      </trkpt>
      <trkpt lat="42.252939" lon="3.069546">
        <ele>7.836076</ele>
        <time>2024-04-14T10:00:29.000Z</time>
      </trkpt>
      <trkpt lat="42.252908" lon="3.069604">
        <ele>7.846924</ele>
        <time>2024-04-14T10:00:30.000Z</time>
      </trkpt>
      <trkpt lat="42.252421" lon="3.070426">
        <ele>8.01337</ele>
        <time>2024-04-14T10:00:39.000Z</time>
      </trkpt>
      <trkpt lat="42.252214" lon="3.07134">
        <ele>7.891938</ele>
        <time>2024-04-14T10:00:47.000Z</time>
      </trkpt>
      <trkpt lat="42.25202" lon="3.072339">
        <ele>7.676613</ele>
        <time>2024-04-14T10:00:56.000Z</time>
      </trkpt>
      <trkpt lat="42.2509" lon="3.07285">
        <ele>7.17291</ele>
        <time>2024-04-14T10:01:09.000Z</time>
      </trkpt>
      <trkpt lat="42.250615" lon="3.072968">
        <ele>7.014653</ele>
        <time>2024-04-14T10:01:12.000Z</time>
      </trkpt>
      <trkpt lat="42.250577" lon="3.073054">
        <ele>6.977492</ele>
        <time>2024-04-14T10:01:13.000Z</time>
      </trkpt>
      <trkpt lat="42.250567" lon="3.073146">
        <ele>6.941352</ele>
        <time>2024-04-14T10:01:14.000Z</time>
      </trkpt>
      <trkpt lat="42.250665" lon="3.073432">
        <ele>6.815838</ele>
        <time>2024-04-14T10:01:17.000Z</time>
      </trkpt>
      <trkpt lat="42.250757" lon="3.073838">
        <ele>6.654303</ele>
        <time>2024-04-14T10:01:20.000Z</time>
      </trkpt>
      <trkpt lat="42.250787" lon="3.073982">
        <ele>6.587103</ele>
        <time>2024-04-14T10:01:21.000Z</time>
      </trkpt>
      <trkpt lat="42.250825" lon="3.074242">
        <ele>6.417713</ele>
        <time>2024-04-14T10:01:23.000Z</time>
      </trkpt>
      <trkpt lat="42.250088" lon="3.074357">
        <ele>5.776029</ele>
        <time>2024-04-14T10:01:31.000Z</time>
      </trkpt>
      <trkpt lat="42.250026" lon="3.074363">
        <ele>5.720409</ele>
        <time>2024-04-14T10:01:32.000Z</time>
      </trkpt>
      <trkpt lat="42.249999" lon="3.074354">
        <ele>5.691291</ele>
        <time>2024-04-14T10:01:32.000Z</time>
      </trkpt>
      <trkpt lat="42.249511" lon="3.074333">
        <ele>5.260436</ele>
        <time>2024-04-14T10:01:37.000Z</time>
      </trkpt>
      <trkpt lat="42.248786" lon="3.074291">
        <ele>4.889107</ele>
        <time>2024-04-14T10:01:45.000Z</time>
      </trkpt>
      <trkpt lat="42.248636" lon="3.07428">
        <ele>4.844236</ele>
        <time>2024-04-14T10:01:47.000Z</time>
      </trkpt>
      <trkpt lat="42.24774" lon="3.071776">
        <ele>4.402888</ele>
        <time>2024-04-14T10:02:10.000Z</time>
      </trkpt>
      <trkpt lat="42.247269" lon="3.070541">
        <ele>4.277094</ele>
        <time>2024-04-14T10:02:21.000Z</time>
      </trkpt>
      <trkpt lat="42.247081" lon="3.070376">
        <ele>4.225041</ele>
        <time>2024-04-14T10:02:23.000Z</time>
      </trkpt>
      <trkpt lat="42.246924" lon="3.07033">
        <ele>4.186947</ele>
        <time>2024-04-14T10:02:25.000Z</time>
      </trkpt>
      <trkpt lat="42.246321" lon="3.07047">
        <ele>4.040355</ele>
        <time>2024-04-14T10:02:32.000Z</time>
      </trkpt>
      <trkpt lat="42.245418" lon="3.070614">
        <ele>3.842303</ele>
        <time>2024-04-14T10:02:42.000Z</time>
      </trkpt>
      <trkpt lat="42.244521" lon="3.070782">
        <ele>3.693842</ele>
        <time>2024-04-14T10:02:52.000Z</time>
      </trkpt>
      <trkpt lat="42.243793" lon="3.071046">
        <ele>3.569975</ele>
        <time>2024-04-14T10:03:00.000Z</time>
      </trkpt>
      <trkpt lat="42.24316" lon="3.071321">
        <ele>3.453767</ele>
        <time>2024-04-14T10:03:07.000Z</time>
      </trkpt>
      <trkpt lat="42.243104" lon="3.071345">
        <ele>3.443923</ele>
        <time>2024-04-14T10:03:08.000Z</time>
      </trkpt>
      <trkpt lat="42.242751" lon="3.071489">
        <ele>3.378316</ele>
        <time>2024-04-14T10:03:12.000Z</time>
      </trkpt>
      <trkpt lat="42.242412" lon="3.0718">
        <ele>3.308416</ele>
        <time>2024-04-14T10:03:17.000Z</time>
      </trkpt>
      <trkpt lat="42.24212" lon="3.072202">
        <ele>3.324937</ele>
        <time>2024-04-14T10:03:22.000Z</time>
      </trkpt>
      <trkpt lat="42.242639" lon="3.07277">
        <ele>3.533382</ele>
        <time>2024-04-14T10:03:29.000Z</time>
      </trkpt>
      <trkpt lat="42.242968" lon="3.073191">
        <ele>3.671328</ele>
        <time>2024-04-14T10:03:34.000Z</time>
      </trkpt>
      <trkpt lat="42.243527" lon="3.074223">
        <ele>3.783623</ele>
        <time>2024-04-14T10:03:45.000Z</time>
      </trkpt>
      <trkpt lat="42.243693" lon="3.074575">
        <ele>3.75996</ele>
        <time>2024-04-14T10:03:48.000Z</time>
      </trkpt>
      <trkpt lat="42.243764" lon="3.07479">
        <ele>3.747003</ele>
        <time>2024-04-14T10:03:50.000Z</time>
      </trkpt>
      <trkpt lat="42.244018" lon="3.075484">
        <ele>3.703241</ele>
        <time>2024-04-14T10:03:56.000Z</time>
      </trkpt>
      <trkpt lat="42.244514" lon="3.077027">
        <ele>3.391148</ele>
        <time>2024-04-14T10:04:10.000Z</time>
      </trkpt>
      <trkpt lat="42.243218" lon="3.077898">
        <ele>3.160231</ele>
        <time>2024-04-14T10:04:26.000Z</time>
      </trkpt>
      <trkpt lat="42.242486" lon="3.078299">
        <ele>3.187848</ele>
        <time>2024-04-14T10:04:35.000Z</time>
      </trkpt>
      <trkpt lat="42.240281" lon="3.079433">
        <ele>3.201442</ele>
        <time>2024-04-14T10:05:01.000Z</time>
      </trkpt>
      <trkpt lat="42.239366" lon="3.079915">
        <ele>2.95255</ele>
        <time>2024-04-14T10:05:12.000Z</time>
      </trkpt>
      <trkpt lat="42.237999" lon="3.080939">
        <ele>2.577447</ele>
        <time>2024-04-14T10:05:29.000Z</time>
      </trkpt>
      <trkpt lat="42.237608" lon="3.081208">
        <ele>2.472909</ele>
        <time>2024-04-14T10:05:34.000Z</time>
      </trkpt>
      <trkpt lat="42.237081" lon="3.081486">
        <ele>2.33185</ele>
        <time>2024-04-14T10:05:40.000Z</time>
      </trkpt>
      <trkpt lat="42.236749" lon="3.081703">
        <ele>2.234483</ele>
        <time>2024-04-14T10:05:44.000Z</time>
      </trkpt>
      <trkpt lat="42.235836" lon="3.082447">
        <ele>1.94538</ele>
        <time>2024-04-14T10:05:56.000Z</time>
      </trkpt>
      <trkpt lat="42.235538" lon="3.082627">
        <ele>1.84346</ele>
        <time>2024-04-14T10:06:00.000Z</time>
      </trkpt>
      <trkpt lat="42.235411" lon="3.082682">
        <ele>1.791713</ele>
        <time>2024-04-14T10:06:01.000Z</time>
      </trkpt>
      <trkpt lat="42.235025" lon="3.082868">
        <ele>1.633039</ele>
        <time>2024-04-14T10:06:06.000Z</time>
      </trkpt>
      <trkpt lat="42.234077" lon="3.083306">
        <ele>1.239764</ele>
        <time>2024-04-14T10:06:17.000Z</time>
      </trkpt>
      <trkpt lat="42.233662" lon="3.083449">
        <ele>1.062487</ele>
        <time>2024-04-14T10:06:22.000Z</time>
      </trkpt>
      <trkpt lat="42.233241" lon="3.083496">
        <ele>0.882926</ele>
        <time>2024-04-14T10:06:27.000Z</time>
      </trkpt>
      <trkpt lat="42.232628" lon="3.083493">
        <ele>0.618896</ele>
        <time>2024-04-14T10:06:34.000Z</time>
      </trkpt>
      <trkpt lat="42.231912" lon="3.083501">
        <ele>0.36788</ele>
        <time>2024-04-14T10:06:42.000Z</time>
      </trkpt>
      <trkpt lat="42.231757" lon="3.083518">
        <ele>0.340215</ele>
        <time>2024-04-14T10:06:44.000Z</time>
      </trkpt>
      <trkpt lat="42.23134" lon="3.083669">
        <ele>0.264607</ele>
        <time>2024-04-14T10:06:49.000Z</time>
      </trkpt>
      <trkpt lat="42.230617" lon="3.083987">
        <ele>0.132029</ele>
        <time>2024-04-14T10:06:57.000Z</time>
      </trkpt>
      <trkpt lat="42.22972" lon="3.084496">
        <ele>0.182656</ele>
        <time>2024-04-14T10:07:08.000Z</time>
      </trkpt>
      <trkpt lat="42.228129" lon="3.085635">
        <ele>0.471168</ele>
        <time>2024-04-14T10:07:28.000Z</time>
      </trkpt>
      <trkpt lat="42.227049" lon="3.08635">
        <ele>0.734522</ele>
        <time>2024-04-14T10:07:41.000Z</time>
      </trkpt>
      <trkpt lat="42.226612" lon="3.086593">
        <ele>0.882501</ele>
        <time>2024-04-14T10:07:46.000Z</time>
      </trkpt>
      <trkpt lat="42.225663" lon="3.087068">
        <ele>1.201841</ele>
        <time>2024-04-14T10:07:57.000Z</time>
      </trkpt>
      <trkpt lat="42.224806" lon="3.087648">
        <ele>1.386695</ele>
        <time>2024-04-14T10:08:08.000Z</time>
      </trkpt>
      <trkpt lat="42.224535" lon="3.087723">
        <ele>1.433723</ele>
        <time>2024-04-14T10:08:11.000Z</time>
      </trkpt>
      <trkpt lat="42.224241" lon="3.087752">
        <ele>1.48255</ele>
        <time>2024-04-14T10:08:14.000Z</time>
      </trkpt>
      <trkpt lat="42.224004" lon="3.087722">
        <ele>1.522548</ele>
        <time>2024-04-14T10:08:17.000Z</time>
      </trkpt>
      <trkpt lat="42.22267" lon="3.087422">
        <ele>1.394551</ele>
        <time>2024-04-14T10:08:32.000Z</time>
      </trkpt>
      <trkpt lat="42.222248" lon="3.087448">
        <ele>1.335137</ele>
        <time>2024-04-14T10:08:37.000Z</time>
      </trkpt>
      <trkpt lat="42.222033" lon="3.087486">
        <ele>1.304734</ele>
        <time>2024-04-14T10:08:39.000Z</time>
      </trkpt>
      <trkpt lat="42.221806" lon="3.087599">
        <ele>1.244312</ele>
        <time>2024-04-14T10:08:42.000Z</time>
      </trkpt>
      <trkpt lat="42.220406" lon="3.088468">
        <ele>0.866897</ele>
        <time>2024-04-14T10:08:59.000Z</time>
      </trkpt>
      <trkpt lat="42.220153" lon="3.088566">
        <ele>0.799901</ele>
        <time>2024-04-14T10:09:02.000Z</time>
      </trkpt>
      <trkpt lat="42.219947" lon="3.088605">
        <ele>0.746891</ele>
        <time>2024-04-14T10:09:04.000Z</time>
      </trkpt>
      <trkpt lat="42.219738" lon="3.088604">
        <ele>0.691903</ele>
        <time>2024-04-14T10:09:06.000Z</time>
      </trkpt>
      <trkpt lat="42.218449" lon="3.088484">
        <ele>0.415082</ele>
        <time>2024-04-14T10:09:20.000Z</time>
      </trkpt>
      <trkpt lat="42.218106" lon="3.088439">
        <ele>0.461226</ele>
        <time>2024-04-14T10:09:24.000Z</time>
      </trkpt>
      <trkpt lat="42.217742" lon="3.088466">
        <ele>0.509846</ele>
        <time>2024-04-14T10:09:28.000Z</time>
      </trkpt>
      <trkpt lat="42.216939" lon="3.08869">
        <ele>0.618081</ele>
        <time>2024-04-14T10:09:37.000Z</time>
      </trkpt>
      <trkpt lat="42.21681" lon="3.088736">
        <ele>0.638087</ele>
        <time>2024-04-14T10:09:38.000Z</time>
      </trkpt>
      <trkpt lat="42.216619" lon="3.088747">
        <ele>0.670593</ele>
        <time>2024-04-14T10:09:40.000Z</time>
      </trkpt>
      <trkpt lat="42.216383" lon="3.088692">
        <ele>0.713744</ele>
        <time>2024-04-14T10:09:43.000Z</time>
      </trkpt>
      <trkpt lat="42.216175" lon="3.088611">
        <ele>0.750948</ele>
        <time>2024-04-14T10:09:45.000Z</time>
      </trkpt>
      <trkpt lat="42.215025" lon="3.087857">
        <ele>0.937475</ele>
        <time>2024-04-14T10:09:59.000Z</time>
      </trkpt>
      <trkpt lat="42.212621" lon="3.086237">
        <ele>0.68771</ele>
        <time>2024-04-14T10:10:29.000Z</time>
      </trkpt>
      <trkpt lat="42.212567" lon="3.086203">
        <ele>0.683775</ele>
        <time>2024-04-14T10:10:30.000Z</time>
      </trkpt>
      <trkpt lat="42.211833" lon="3.085752">
        <ele>0.623355</ele>
        <time>2024-04-14T10:10:39.000Z</time>
      </trkpt>
      <trkpt lat="42.211569" lon="3.085639">
        <ele>0.57574</ele>
        <time>2024-04-14T10:10:42.000Z</time>
      </trkpt>
      <trkpt lat="42.209545" lon="3.08527">
        <ele>0.333876</ele>
        <time>2024-04-14T10:11:05.000Z</time>
      </trkpt>
      <trkpt lat="42.208443" lon="3.085072">
        <ele>0.347276</ele>
        <time>2024-04-14T10:11:17.000Z</time>
      </trkpt>
      <trkpt lat="42.208214" lon="3.085036">
        <ele>0.370027</ele>
        <time>2024-04-14T10:11:20.000Z</time>
      </trkpt>
      <trkpt lat="42.20649" lon="3.084745">
        <ele>0.627317</ele>
        <time>2024-04-14T10:11:39.000Z</time>
      </trkpt>
      <trkpt lat="42.203301" lon="3.084223">
        <ele>1.197517</ele>
        <time>2024-04-14T10:12:15.000Z</time>
      </trkpt>
      <trkpt lat="42.202204" lon="3.084032">
        <ele>1.172081</ele>
        <time>2024-04-14T10:12:27.000Z</time>
      </trkpt>
      <trkpt lat="42.201506" lon="3.083916">
        <ele>1.110575</ele>
        <time>2024-04-14T10:12:35.000Z</time>
      </trkpt>
      <trkpt lat="42.201143" lon="3.083855">
        <ele>1.088275</ele>
        <time>2024-04-14T10:12:39.000Z</time>
      </trkpt>
      <trkpt lat="42.20052" lon="3.083762">
        <ele>1.094264</ele>
        <time>2024-04-14T10:12:46.000Z</time>
      </trkpt>
      <trkpt lat="42.200254" lon="3.083703">
        <ele>1.096932</ele>
        <time>2024-04-14T10:12:49.000Z</time>
      </trkpt>
      <trkpt lat="42.195649" lon="3.082948">
        <ele>1.745041</ele>
        <time>2024-04-14T10:13:41.000Z</time>
      </trkpt>
      <trkpt lat="42.194993" lon="3.082869">
        <ele>2.082105</ele>
        <time>2024-04-14T10:13:48.000Z</time>
      </trkpt>
      <trkpt lat="42.194066" lon="3.08276">
        <ele>2.551038</ele>
        <time>2024-04-14T10:13:58.000Z</time>
      </trkpt>
      <trkpt lat="42.193422" lon="3.08267">
        <ele>2.722701</ele>
        <time>2024-04-14T10:14:05.000Z</time>
      </trkpt>
      <trkpt lat="42.193015" lon="3.0826">
        <ele>2.833036</ele>
        <time>2024-04-14T10:14:10.000Z</time>
      </trkpt>
      <trkpt lat="42.192018" lon="3.082423">
        <ele>2.981</ele>
        <time>2024-04-14T10:14:21.000Z</time>
      </trkpt>
      <trkpt lat="42.191692" lon="3.082355">
        <ele>2.926325</ele>
        <time>2024-04-14T10:14:25.000Z</time>
      </trkpt>
      <trkpt lat="42.191555" lon="3.08225">
        <ele>2.900138</ele>
        <time>2024-04-14T10:14:27.000Z</time>
      </trkpt>
      <trkpt lat="42.191505" lon="3.08215">
        <ele>2.885719</ele>
        <time>2024-04-14T10:14:28.000Z</time>
      </trkpt>
      <trkpt lat="42.19143" lon="3.08214">
        <ele>2.870703</ele>
        <time>2024-04-14T10:14:29.000Z</time>
      </trkpt>
      <trkpt lat="42.191353" lon="3.082214">
        <ele>2.856355</ele>
        <time>2024-04-14T10:14:30.000Z</time>
      </trkpt>
      <trkpt lat="42.191346" lon="3.082274">
        <ele>2.846321</ele>
        <time>2024-04-14T10:14:31.000Z</time>
      </trkpt>
      <trkpt lat="42.191347" lon="3.082361">
        <ele>2.836479</ele>
        <time>2024-04-14T10:14:32.000Z</time>
      </trkpt>
      <trkpt lat="42.191408" lon="3.082423">
        <ele>2.823435</ele>
        <time>2024-04-14T10:14:33.000Z</time>
      </trkpt>
      <trkpt lat="42.191469" lon="3.082623">
        <ele>2.797962</ele>
        <time>2024-04-14T10:14:35.000Z</time>
      </trkpt>
      <trkpt lat="42.191514" lon="3.082847">
        <ele>2.767156</ele>
        <time>2024-04-14T10:14:37.000Z</time>
      </trkpt>
      <trkpt lat="42.191505" lon="3.082918">
        <ele>2.758907</ele>
        <time>2024-04-14T10:14:38.000Z</time>
      </trkpt>
      <trkpt lat="42.191521" lon="3.083025">
        <ele>2.745324</ele>
        <time>2024-04-14T10:14:39.000Z</time>
      </trkpt>
      <trkpt lat="42.191578" lon="3.083818">
        <ele>2.596378</ele>
        <time>2024-04-14T10:14:46.000Z</time>
      </trkpt>
      <trkpt lat="42.191676" lon="3.085102">
        <ele>2.328692</ele>
        <time>2024-04-14T10:14:57.000Z</time>
      </trkpt>
      <trkpt lat="42.191717" lon="3.08554">
        <ele>2.237942</ele>
        <time>2024-04-14T10:15:01.000Z</time>
      </trkpt>
      <trkpt lat="42.191726" lon="3.08558">
        <ele>2.230689</ele>
        <time>2024-04-14T10:15:01.000Z</time>
      </trkpt>
      <trkpt lat="42.191706" lon="3.085857">
        <ele>2.216856</ele>
        <time>2024-04-14T10:15:03.000Z</time>
      </trkpt>
      <trkpt lat="42.191599" lon="3.086065">
        <ele>2.209632</ele>
        <time>2024-04-14T10:15:05.000Z</time>
      </trkpt>
      <trkpt lat="42.191396" lon="3.086222">
        <ele>2.201095</ele>
        <time>2024-04-14T10:15:08.000Z</time>
      </trkpt>
      <trkpt lat="42.191107" lon="3.086466">
        <ele>2.187706</ele>
        <time>2024-04-14T10:15:12.000Z</time>
      </trkpt>
      <trkpt lat="42.191061" lon="3.086423">
        <ele>2.185585</ele>
        <time>2024-04-14T10:15:13.000Z</time>
      </trkpt>
      <trkpt lat="42.191029" lon="3.086422">
        <ele>2.184116</ele>
        <time>2024-04-14T10:15:13.000Z</time>
      </trkpt>
      <trkpt lat="42.190994" lon="3.086456">
        <ele>2.182459</ele>
        <time>2024-04-14T10:15:13.000Z</time>
      </trkpt>
      <trkpt lat="42.190968" lon="3.086502">
        <ele>2.180811</ele>
        <time>2024-04-14T10:15:13.000Z</time>
      </trkpt>
      <trkpt lat="42.190878" lon="3.086467">
        <ele>2.176634</ele>
        <time>2024-04-14T10:15:14.000Z</time>
      </trkpt>
      <trkpt lat="42.190636" lon="3.086272">
        <ele>2.166106</ele>
        <time>2024-04-14T10:15:17.000Z</time>
      </trkpt>
      <trkpt lat="42.19027" lon="3.086006">
        <ele>2.180399</ele>
        <time>2024-04-14T10:15:22.000Z</time>
      </trkpt>
      <trkpt lat="42.190041" lon="3.08582">
        <ele>2.234512</ele>
        <time>2024-04-14T10:15:25.000Z</time>
      </trkpt>
      <trkpt lat="42.189468" lon="3.085123">
        <ele>2.393135</ele>
        <time>2024-04-14T10:15:34.000Z</time>
      </trkpt>
      <trkpt lat="42.189238" lon="3.084962">
        <ele>2.444727</ele>
        <time>2024-04-14T10:15:37.000Z</time>
      </trkpt>
      <trkpt lat="42.188663" lon="3.084762">
        <ele>2.603782</ele>
        <time>2024-04-14T10:15:44.000Z</time>
      </trkpt>
      <trkpt lat="42.188652" lon="3.084762">
        <ele>2.603779</ele>
        <time>2024-04-14T10:15:44.000Z</time>
      </trkpt>
      <trkpt lat="42.188651" lon="3.084757">
        <ele>2.603786</ele>
        <time>2024-04-14T10:15:44.000Z</time>
      </trkpt>
      <trkpt lat="42.188135" lon="3.084593">
        <ele>2.802091</ele>
        <time>2024-04-14T10:15:50.000Z</time>
      </trkpt>
      <trkpt lat="42.188126" lon="3.084596">
        <ele>2.802094</ele>
        <time>2024-04-14T10:15:50.000Z</time>
      </trkpt>
      <trkpt lat="42.187887" lon="3.084624">
        <ele>2.889106</ele>
        <time>2024-04-14T10:15:53.000Z</time>
      </trkpt>
      <trkpt lat="42.1879" lon="3.084628">
        <ele>2.8891</ele>
        <time>2024-04-14T10:15:53.000Z</time>
      </trkpt>
      <trkpt lat="42.187893" lon="3.084624">
        <ele>2.889105</ele>
        <time>2024-04-14T10:15:53.000Z</time>
      </trkpt>
      <trkpt lat="42.187663" lon="3.084802">
        <ele>2.985176</ele>
        <time>2024-04-14T10:15:56.000Z</time>
      </trkpt>
      <trkpt lat="42.187627" lon="3.084886">
        <ele>3.012409</ele>
        <time>2024-04-14T10:15:57.000Z</time>
      </trkpt>
      <trkpt lat="42.186916" lon="3.086338">
        <ele>3.692363</ele>
        <time>2024-04-14T10:16:11.000Z</time>
      </trkpt>
      <trkpt lat="42.186839" lon="3.08644">
        <ele>3.770112</ele>
        <time>2024-04-14T10:16:12.000Z</time>
      </trkpt>
      <trkpt lat="42.186699" lon="3.086621">
        <ele>3.890435</ele>
        <time>2024-04-14T10:16:14.000Z</time>
      </trkpt>
      <trkpt lat="42.186602" lon="3.086661">
        <ele>3.951814</ele>
        <time>2024-04-14T10:16:15.000Z</time>
      </trkpt>
      <trkpt lat="42.186572" lon="3.086708">
        <ele>3.981824</ele>
        <time>2024-04-14T10:16:16.000Z</time>
      </trkpt>
      <trkpt lat="42.186543" lon="3.086838">
        <ele>4.04115</ele>
        <time>2024-04-14T10:16:17.000Z</time>
      </trkpt>
      <trkpt lat="42.186598" lon="3.086957">
        <ele>4.10093</ele>
        <time>2024-04-14T10:16:18.000Z</time>
      </trkpt>
      <trkpt lat="42.186692" lon="3.086991">
        <ele>4.161374</ele>
        <time>2024-04-14T10:16:19.000Z</time>
      </trkpt>
      <trkpt lat="42.186983" lon="3.087356">
        <ele>4.375253</ele>
        <time>2024-04-14T10:16:23.000Z</time>
      </trkpt>
      <trkpt lat="42.187058" lon="3.087498">
        <ele>4.421686</ele>
        <time>2024-04-14T10:16:24.000Z</time>
      </trkpt>
      <trkpt lat="42.187113" lon="3.087609">
        <ele>4.465323</ele>
        <time>2024-04-14T10:16:25.000Z</time>
      </trkpt>
      <trkpt lat="42.187201" lon="3.087917">
        <ele>4.560154</ele>
        <time>2024-04-14T10:16:28.000Z</time>
      </trkpt>
      <trkpt lat="42.187255" lon="3.088247">
        <ele>4.656653</ele>
        <time>2024-04-14T10:16:31.000Z</time>
      </trkpt>
      <trkpt lat="42.187363" lon="3.089011">
        <ele>4.88467</ele>
        <time>2024-04-14T10:16:37.000Z</time>
      </trkpt>
      <trkpt lat="42.187373" lon="3.089128">
        <ele>4.919292</ele>
        <time>2024-04-14T10:16:38.000Z</time>
      </trkpt>
      <trkpt lat="42.187356" lon="3.089423">
        <ele>5.002818</ele>
        <time>2024-04-14T10:16:40.000Z</time>
      </trkpt>
      <trkpt lat="42.187277" lon="3.089712">
        <ele>4.975263</ele>
        <time>2024-04-14T10:16:43.000Z</time>
      </trkpt>
      <trkpt lat="42.187169" lon="3.089906">
        <ele>4.930719</ele>
        <time>2024-04-14T10:16:45.000Z</time>
      </trkpt>
      <trkpt lat="42.187142" lon="3.08994">
        <ele>4.922047</ele>
        <time>2024-04-14T10:16:45.000Z</time>
      </trkpt>
      <trkpt lat="42.186961" lon="3.090125">
        <ele>4.869354</ele>
        <time>2024-04-14T10:16:48.000Z</time>
      </trkpt>
      <trkpt lat="42.186576" lon="3.09036">
        <ele>4.766048</ele>
        <time>2024-04-14T10:16:53.000Z</time>
      </trkpt>
      <trkpt lat="42.186399" lon="3.090548">
        <ele>4.713533</ele>
        <time>2024-04-14T10:16:56.000Z</time>
      </trkpt>
      <trkpt lat="42.186339" lon="3.090721">
        <ele>4.678178</ele>
        <time>2024-04-14T10:16:58.000Z</time>
      </trkpt>
      <trkpt lat="42.186347" lon="3.091441">
        <ele>4.521187</ele>
        <time>2024-04-14T10:17:04.000Z</time>
      </trkpt>
      <trkpt lat="42.186307" lon="3.091601">
        <ele>4.46546</ele>
        <time>2024-04-14T10:17:05.000Z</time>
      </trkpt>
      <trkpt lat="42.186276" lon="3.091629">
        <ele>4.443065</ele>
        <time>2024-04-14T10:17:05.000Z</time>
      </trkpt>
      <trkpt lat="42.186208" lon="3.091712">
        <ele>4.405936</ele>
        <time>2024-04-14T10:17:06.000Z</time>
      </trkpt>
      <trkpt lat="42.186207" lon="3.091799">
        <ele>4.373173</ele>
        <time>2024-04-14T10:17:07.000Z</time>
      </trkpt>
      <trkpt lat="42.186218" lon="3.091835">
        <ele>4.363398</ele>
        <time>2024-04-14T10:17:07.000Z</time>
      </trkpt>
      <trkpt lat="42.186145" lon="3.091971">
        <ele>4.303203</ele>
        <time>2024-04-14T10:17:08.000Z</time>
      </trkpt>
      <trkpt lat="42.18596" lon="3.092137">
        <ele>4.210388</ele>
        <time>2024-04-14T10:17:10.000Z</time>
      </trkpt>
      <trkpt lat="42.185941" lon="3.092154">
        <ele>4.200934</ele>
        <time>2024-04-14T10:17:10.000Z</time>
      </trkpt>
      <trkpt lat="42.185038" lon="3.092576">
        <ele>3.787211</ele>
        <time>2024-04-14T10:17:21.000Z</time>
      </trkpt>
      <trkpt lat="42.18492" lon="3.092669">
        <ele>3.766318</ele>
        <time>2024-04-14T10:17:23.000Z</time>
      </trkpt>
      <trkpt lat="42.184527" lon="3.09305">
        <ele>3.693908</ele>
        <time>2024-04-14T10:17:28.000Z</time>
      </trkpt>
      <trkpt lat="42.18436" lon="3.09314">
        <ele>3.66747</ele>
        <time>2024-04-14T10:17:30.000Z</time>
      </trkpt>
      <trkpt lat="42.184003" lon="3.09334">
        <ele>3.612434</ele>
        <time>2024-04-14T10:17:34.000Z</time>
      </trkpt>
      <trkpt lat="42.183791" lon="3.093444">
        <ele>3.578962</ele>
        <time>2024-04-14T10:17:37.000Z</time>
      </trkpt>
      <trkpt lat="42.183642" lon="3.093441">
        <ele>3.556969</ele>
        <time>2024-04-14T10:17:39.000Z</time>
      </trkpt>
      <trkpt lat="42.18345" lon="3.093446">
        <ele>3.527132</ele>
        <time>2024-04-14T10:17:41.000Z</time>
      </trkpt>
      <trkpt lat="42.182616" lon="3.093359">
        <ele>3.582652</ele>
        <time>2024-04-14T10:17:50.000Z</time>
      </trkpt>
      <trkpt lat="42.182225" lon="3.093435">
        <ele>3.609878</ele>
        <time>2024-04-14T10:17:54.000Z</time>
      </trkpt>
      <trkpt lat="42.181795" lon="3.093568">
        <ele>3.639604</ele>
        <time>2024-04-14T10:17:59.000Z</time>
      </trkpt>
      <trkpt lat="42.181495" lon="3.093729">
        <ele>3.654205</ele>
        <time>2024-04-14T10:18:03.000Z</time>
      </trkpt>
      <trkpt lat="42.180915" lon="3.09418">
        <ele>3.675004</ele>
        <time>2024-04-14T10:18:10.000Z</time>
      </trkpt>
      <trkpt lat="42.180623" lon="3.094337">
        <ele>3.685339</ele>
        <time>2024-04-14T10:18:13.000Z</time>
      </trkpt>
      <trkpt lat="42.179712" lon="3.094754">
        <ele>3.721309</ele>
        <time>2024-04-14T10:18:24.000Z</time>
      </trkpt>
      <trkpt lat="42.179387" lon="3.094806">
        <ele>3.736675</ele>
        <time>2024-04-14T10:18:28.000Z</time>
      </trkpt>
      <trkpt lat="42.17909" lon="3.094822">
        <ele>3.750521</ele>
        <time>2024-04-14T10:18:31.000Z</time>
      </trkpt>
      <trkpt lat="42.178947" lon="3.094791">
        <ele>3.757179</ele>
        <time>2024-04-14T10:18:33.000Z</time>
      </trkpt>
      <trkpt lat="42.178788" lon="3.094775">
        <ele>3.76466</ele>
        <time>2024-04-14T10:18:35.000Z</time>
      </trkpt>
      <trkpt lat="42.178497" lon="3.094723">
        <ele>3.778554</ele>
        <time>2024-04-14T10:18:38.000Z</time>
      </trkpt>
      <trkpt lat="42.178202" lon="3.094601">
        <ele>3.772655</ele>
        <time>2024-04-14T10:18:41.000Z</time>
      </trkpt>
      <trkpt lat="42.177791" lon="3.094439">
        <ele>3.674051</ele>
        <time>2024-04-14T10:18:46.000Z</time>
      </trkpt>
      <trkpt lat="42.177349" lon="3.094248">
        <ele>3.563045</ele>
        <time>2024-04-14T10:18:51.000Z</time>
      </trkpt>
      <trkpt lat="42.177096" lon="3.094132">
        <ele>3.500154</ele>
        <time>2024-04-14T10:18:54.000Z</time>
      </trkpt>
      <trkpt lat="42.176895" lon="3.094057">
        <ele>3.45327</ele>
        <time>2024-04-14T10:18:56.000Z</time>
      </trkpt>
      <trkpt lat="42.176447" lon="3.09389">
        <ele>3.344893</ele>
        <time>2024-04-14T10:19:01.000Z</time>
      </trkpt>
      <trkpt lat="42.17585" lon="3.093704">
        <ele>3.220871</ele>
        <time>2024-04-14T10:19:08.000Z</time>
      </trkpt>
      <trkpt lat="42.175671" lon="3.09363">
        <ele>3.183168</ele>
        <time>2024-04-14T10:19:10.000Z</time>
      </trkpt>
      <trkpt lat="42.175152" lon="3.093461">
        <ele>3.074744</ele>
        <time>2024-04-14T10:19:16.000Z</time>
      </trkpt>
      <trkpt lat="42.174802" lon="3.093427">
        <ele>3.002136</ele>
        <time>2024-04-14T10:19:20.000Z</time>
      </trkpt>
      <trkpt lat="42.174628" lon="3.093445">
        <ele>2.996947</ele>
        <time>2024-04-14T10:19:22.000Z</time>
      </trkpt>
      <trkpt lat="42.174288" lon="3.09355">
        <ele>2.990934</ele>
        <time>2024-04-14T10:19:26.000Z</time>
      </trkpt>
      <trkpt lat="42.174195" lon="3.093598">
        <ele>2.98912</ele>
        <time>2024-04-14T10:19:27.000Z</time>
      </trkpt>
      <trkpt lat="42.173997" lon="3.093719">
        <ele>2.985257</ele>
        <time>2024-04-14T10:19:29.000Z</time>
      </trkpt>
      <trkpt lat="42.17355" lon="3.093966">
        <ele>2.976645</ele>
        <time>2024-04-14T10:19:34.000Z</time>
      </trkpt>
      <trkpt lat="42.173288" lon="3.094048">
        <ele>2.971562</ele>
        <time>2024-04-14T10:19:37.000Z</time>
      </trkpt>
      <trkpt lat="42.173098" lon="3.09408">
        <ele>2.968077</ele>
        <time>2024-04-14T10:19:39.000Z</time>
      </trkpt>
      <trkpt lat="42.17304" lon="3.094092">
        <ele>2.96509</ele>
        <time>2024-04-14T10:19:40.000Z</time>
      </trkpt>
      <trkpt lat="42.172934" lon="3.094102">
        <ele>2.953626</ele>
        <time>2024-04-14T10:19:41.000Z</time>
      </trkpt>
      <trkpt lat="42.172812" lon="3.094089">
        <ele>2.943298</ele>
        <time>2024-04-14T10:19:42.000Z</time>
      </trkpt>
      <trkpt lat="42.172689" lon="3.094089">
        <ele>2.931769</ele>
        <time>2024-04-14T10:19:43.000Z</time>
      </trkpt>
      <trkpt lat="42.172286" lon="3.094004">
        <ele>2.89347</ele>
        <time>2024-04-14T10:19:48.000Z</time>
      </trkpt>
      <trkpt lat="42.171787" lon="3.093993">
        <ele>2.846511</ele>
        <time>2024-04-14T10:19:54.000Z</time>
      </trkpt>
      <trkpt lat="42.171758" lon="3.094012">
        <ele>2.842487</ele>
        <time>2024-04-14T10:19:54.000Z</time>
      </trkpt>
      <trkpt lat="42.171657" lon="3.094031">
        <ele>2.83258</ele>
        <time>2024-04-14T10:19:55.000Z</time>
      </trkpt>
      <trkpt lat="42.171635" lon="3.094028">
        <ele>2.830676</ele>
        <time>2024-04-14T10:19:55.000Z</time>
      </trkpt>
      <trkpt lat="42.171237" lon="3.094174">
        <ele>2.803252</ele>
        <time>2024-04-14T10:20:00.000Z</time>
      </trkpt>
      <trkpt lat="42.170749" lon="3.09444">
        <ele>2.850465</ele>
        <time>2024-04-14T10:20:06.000Z</time>
      </trkpt>
      <trkpt lat="42.169986" lon="3.094835">
        <ele>2.925431</ele>
        <time>2024-04-14T10:20:15.000Z</time>
      </trkpt>
      <trkpt lat="42.169618" lon="3.095021">
        <ele>2.960344</ele>
        <time>2024-04-14T10:20:19.000Z</time>
      </trkpt>
      <trkpt lat="42.169117" lon="3.095291">
        <ele>3.316249</ele>
        <time>2024-04-14T10:20:25.000Z</time>
      </trkpt>
      <trkpt lat="42.168831" lon="3.095368">
        <ele>3.514465</ele>
        <time>2024-04-14T10:20:28.000Z</time>
      </trkpt>
      <trkpt lat="42.168653" lon="3.09542">
        <ele>3.628761</ele>
        <time>2024-04-14T10:20:30.000Z</time>
      </trkpt>
      <trkpt lat="42.168454" lon="3.095464">
        <ele>3.764013</ele>
        <time>2024-04-14T10:20:32.000Z</time>
      </trkpt>
      <trkpt lat="42.168211" lon="3.095522">
        <ele>3.93638</ele>
        <time>2024-04-14T10:20:35.000Z</time>
      </trkpt>
      <trkpt lat="42.167838" lon="3.095558">
        <ele>4.16311</ele>
        <time>2024-04-14T10:20:39.000Z</time>
      </trkpt>
      <trkpt lat="42.167684" lon="3.095578">
        <ele>4.174885</ele>
        <time>2024-04-14T10:20:41.000Z</time>
      </trkpt>
      <trkpt lat="42.16746" lon="3.095601">
        <ele>4.192635</ele>
        <time>2024-04-14T10:20:43.000Z</time>
      </trkpt>
      <trkpt lat="42.166304" lon="3.095733">
        <ele>4.282219</ele>
        <time>2024-04-14T10:20:56.000Z</time>
      </trkpt>
      <trkpt lat="42.165895" lon="3.095773">
        <ele>4.127333</ele>
        <time>2024-04-14T10:21:01.000Z</time>
      </trkpt>
      <trkpt lat="42.165771" lon="3.095801">
        <ele>4.019152</ele>
        <time>2024-04-14T10:21:02.000Z</time>
      </trkpt>
      <trkpt lat="42.165694" lon="3.095859">
        <ele>3.933237</ele>
        <time>2024-04-14T10:21:03.000Z</time>
      </trkpt>
      <trkpt lat="42.165637" lon="3.096015">
        <ele>3.816516</ele>
        <time>2024-04-14T10:21:04.000Z</time>
      </trkpt>
      <trkpt lat="42.165623" lon="3.096226">
        <ele>3.664938</ele>
        <time>2024-04-14T10:21:06.000Z</time>
      </trkpt>
      <trkpt lat="42.165608" lon="3.096491">
        <ele>3.480926</ele>
        <time>2024-04-14T10:21:08.000Z</time>
      </trkpt>
      <trkpt lat="42.165595" lon="3.096633">
        <ele>3.386584</ele>
        <time>2024-04-14T10:21:09.000Z</time>
      </trkpt>
      <trkpt lat="42.165515" lon="3.09764">
        <ele>2.702473</ele>
        <time>2024-04-14T10:21:17.000Z</time>
      </trkpt>
      <trkpt lat="42.165535" lon="3.098525">
        <ele>2.248464</ele>
        <time>2024-04-14T10:21:24.000Z</time>
      </trkpt>
      <trkpt lat="42.16554" lon="3.099143">
        <ele>1.95015</ele>
        <time>2024-04-14T10:21:29.000Z</time>
      </trkpt>
      <trkpt lat="42.16553" lon="3.099548">
        <ele>1.755169</ele>
        <time>2024-04-14T10:21:32.000Z</time>
      </trkpt>
      <trkpt lat="42.165553" lon="3.100288">
        <ele>1.45738</ele>
        <time>2024-04-14T10:21:38.000Z</time>
      </trkpt>
      <trkpt lat="42.165448" lon="3.100721">
        <ele>1.439288</ele>
        <time>2024-04-14T10:21:42.000Z</time>
      </trkpt>
      <trkpt lat="42.165423" lon="3.100924">
        <ele>1.431508</ele>
        <time>2024-04-14T10:21:44.000Z</time>
      </trkpt>
      <trkpt lat="42.165422" lon="3.101022">
        <ele>1.427492</ele>
        <time>2024-04-14T10:21:45.000Z</time>
      </trkpt>
      <trkpt lat="42.16559" lon="3.10144">
        <ele>1.408297</ele>
        <time>2024-04-14T10:21:49.000Z</time>
      </trkpt>
      <trkpt lat="42.165619" lon="3.101719">
        <ele>1.396643</ele>
        <time>2024-04-14T10:21:51.000Z</time>
      </trkpt>
      <trkpt lat="42.165588" lon="3.101947">
        <ele>1.387279</ele>
        <time>2024-04-14T10:21:53.000Z</time>
      </trkpt>
      <trkpt lat="42.165525" lon="3.102098">
        <ele>1.380168</ele>
        <time>2024-04-14T10:21:54.000Z</time>
      </trkpt>
      <trkpt lat="42.16538" lon="3.102252">
        <ele>1.370108</ele>
        <time>2024-04-14T10:21:56.000Z</time>
      </trkpt>
      <trkpt lat="42.165208" lon="3.102407">
        <ele>1.382184</ele>
        <time>2024-04-14T10:21:58.000Z</time>
      </trkpt>
      <trkpt lat="42.164273" lon="3.1034">
        <ele>1.557359</ele>
        <time>2024-04-14T10:22:11.000Z</time>
      </trkpt>
      <trkpt lat="42.164008" lon="3.103652">
        <ele>1.605479</ele>
        <time>2024-04-14T10:22:15.000Z</time>
      </trkpt>
      <trkpt lat="42.163322" lon="3.104211">
        <ele>1.654057</ele>
        <time>2024-04-14T10:22:24.000Z</time>
      </trkpt>
      <trkpt lat="42.162913" lon="3.104541">
        <ele>1.672759</ele>
        <time>2024-04-14T10:22:29.000Z</time>
      </trkpt>
      <trkpt lat="42.162642" lon="3.104706">
        <ele>1.684327</ele>
        <time>2024-04-14T10:22:32.000Z</time>
      </trkpt>
      <trkpt lat="42.162496" lon="3.104733">
        <ele>1.690825</ele>
        <time>2024-04-14T10:22:34.000Z</time>
      </trkpt>
      <trkpt lat="42.162233" lon="3.104775">
        <ele>1.700377</ele>
        <time>2024-04-14T10:22:37.000Z</time>
      </trkpt>
      <trkpt lat="42.161978" lon="3.104841">
        <ele>1.703889</ele>
        <time>2024-04-14T10:22:40.000Z</time>
      </trkpt>
      <trkpt lat="42.161406" lon="3.105178">
        <ele>1.712479</ele>
        <time>2024-04-14T10:22:47.000Z</time>
      </trkpt>
      <trkpt lat="42.16123" lon="3.105321">
        <ele>1.715485</ele>
        <time>2024-04-14T10:22:49.000Z</time>
      </trkpt>
      <trkpt lat="42.161158" lon="3.105438">
        <ele>1.717099</ele>
        <time>2024-04-14T10:22:50.000Z</time>
      </trkpt>
      <trkpt lat="42.161071" lon="3.105674">
        <ele>1.719689</ele>
        <time>2024-04-14T10:22:52.000Z</time>
      </trkpt>
      <trkpt lat="42.160964" lon="3.106577">
        <ele>1.765045</ele>
        <time>2024-04-14T10:23:00.000Z</time>
      </trkpt>
      <trkpt lat="42.160751" lon="3.107596">
        <ele>1.867953</ele>
        <time>2024-04-14T10:23:09.000Z</time>
      </trkpt>
      <trkpt lat="42.160348" lon="3.108738">
        <ele>1.942146</ele>
        <time>2024-04-14T10:23:19.000Z</time>
      </trkpt>
      <trkpt lat="42.159819" lon="3.10949">
        <ele>1.878293</ele>
        <time>2024-04-14T10:23:28.000Z</time>
      </trkpt>
      <trkpt lat="42.159711" lon="3.109646">
        <ele>1.864701</ele>
        <time>2024-04-14T10:23:30.000Z</time>
      </trkpt>
      <trkpt lat="42.15916" lon="3.110375">
        <ele>1.806875</ele>
        <time>2024-04-14T10:23:39.000Z</time>
      </trkpt>
      <trkpt lat="42.158756" lon="3.110755">
        <ele>1.788756</ele>
        <time>2024-04-14T10:23:44.000Z</time>
      </trkpt>
      <trkpt lat="42.158306" lon="3.111054">
        <ele>1.770292</ele>
        <time>2024-04-14T10:23:50.000Z</time>
      </trkpt>
      <trkpt lat="42.157899" lon="3.111226">
        <ele>1.754805</ele>
        <time>2024-04-14T10:23:55.000Z</time>
      </trkpt>
      <trkpt lat="42.156905" lon="3.111469">
        <ele>1.860736</ele>
        <time>2024-04-14T10:24:06.000Z</time>
      </trkpt>
      <trkpt lat="42.156587" lon="3.111485">
        <ele>1.906236</ele>
        <time>2024-04-14T10:24:10.000Z</time>
      </trkpt>
      <trkpt lat="42.155479" lon="3.111471">
        <ele>1.926276</ele>
        <time>2024-04-14T10:24:22.000Z</time>
      </trkpt>
      <trkpt lat="42.155153" lon="3.111468">
        <ele>1.850987</ele>
        <time>2024-04-14T10:24:26.000Z</time>
      </trkpt>
      <trkpt lat="42.154901" lon="3.111481">
        <ele>1.792832</ele>
        <time>2024-04-14T10:24:29.000Z</time>
      </trkpt>
      <trkpt lat="42.154219" lon="3.111502">
        <ele>1.63714</ele>
        <time>2024-04-14T10:24:37.000Z</time>
      </trkpt>
      <trkpt lat="42.153645" lon="3.111518">
        <ele>1.511769</ele>
        <time>2024-04-14T10:24:43.000Z</time>
      </trkpt>
      <trkpt lat="42.153276" lon="3.11153">
        <ele>1.433026</ele>
        <time>2024-04-14T10:24:47.000Z</time>
      </trkpt>
      <trkpt lat="42.153241" lon="3.11153">
        <ele>1.425684</ele>
        <time>2024-04-14T10:24:47.000Z</time>
      </trkpt>
      <trkpt lat="42.15299" lon="3.111533">
        <ele>1.370948</ele>
        <time>2024-04-14T10:24:50.000Z</time>
      </trkpt>
      <trkpt lat="42.15292" lon="3.111544">
        <ele>1.356244</ele>
        <time>2024-04-14T10:24:51.000Z</time>
      </trkpt>
      <trkpt lat="42.152557" lon="3.111546">
        <ele>1.27837</ele>
        <time>2024-04-14T10:24:55.000Z</time>
      </trkpt>
      <trkpt lat="42.151986" lon="3.111503">
        <ele>1.06888</ele>
        <time>2024-04-14T10:25:01.000Z</time>
      </trkpt>
      <trkpt lat="42.150324" lon="3.111187">
        <ele>0.231872</ele>
        <time>2024-04-14T10:25:20.000Z</time>
      </trkpt>
      <trkpt lat="42.149707" lon="3.111054">
        <ele>-0.001941</ele>
        <time>2024-04-14T10:25:27.000Z</time>
      </trkpt>
      <trkpt lat="42.149101" lon="3.110785">
        <ele>-0.234179</ele>
        <time>2024-04-14T10:25:34.000Z</time>
      </trkpt>
      <trkpt lat="42.147993" lon="3.110012">
        <ele>-0.345572</ele>
        <time>2024-04-14T10:25:48.000Z</time>
      </trkpt>
      <trkpt lat="42.147392" lon="3.109581">
        <ele>-0.321344</ele>
        <time>2024-04-14T10:25:56.000Z</time>
      </trkpt>
      <trkpt lat="42.147111" lon="3.109338">
        <ele>-0.298939</ele>
        <time>2024-04-14T10:26:00.000Z</time>
      </trkpt>
      <trkpt lat="42.146259" lon="3.108382">
        <ele>-0.132292</ele>
        <time>2024-04-14T10:26:12.000Z</time>
      </trkpt>
      <trkpt lat="42.145969" lon="3.108062">
        <ele>-0.074962</ele>
        <time>2024-04-14T10:26:16.000Z</time>
      </trkpt>
      <trkpt lat="42.145761" lon="3.10792">
        <ele>-0.040038</ele>
        <time>2024-04-14T10:26:19.000Z</time>
      </trkpt>
      <trkpt lat="42.145527" lon="3.107912">
        <ele>-0.048209</ele>
        <time>2024-04-14T10:26:22.000Z</time>
      </trkpt>
      <trkpt lat="42.145101" lon="3.108068">
        <ele>-0.062854</ele>
        <time>2024-04-14T10:26:27.000Z</time>
      </trkpt>
      <trkpt lat="42.14242" lon="3.109014">
        <ele>-0.339377</ele>
        <time>2024-04-14T10:26:58.000Z</time>
      </trkpt>
      <trkpt lat="42.142104" lon="3.109251">
        <ele>-0.309097</ele>
        <time>2024-04-14T10:27:02.000Z</time>
      </trkpt>
      <trkpt lat="42.14185" lon="3.109537">
        <ele>-0.239553</ele>
        <time>2024-04-14T10:27:06.000Z</time>
      </trkpt>
      <trkpt lat="42.141717" lon="3.109882">
        <ele>-0.175054</ele>
        <time>2024-04-14T10:27:09.000Z</time>
      </trkpt>
      <trkpt lat="42.141526" lon="3.111338">
        <ele>0.118636</ele>
        <time>2024-04-14T10:27:21.000Z</time>
      </trkpt>
      <trkpt lat="42.141519" lon="3.111667">
        <ele>0.266488</ele>
        <time>2024-04-14T10:27:24.000Z</time>
      </trkpt>
      <trkpt lat="42.141584" lon="3.111922">
        <ele>0.382608</ele>
        <time>2024-04-14T10:27:26.000Z</time>
      </trkpt>
      <trkpt lat="42.141894" lon="3.1125">
        <ele>0.707421</ele>
        <time>2024-04-14T10:27:32.000Z</time>
      </trkpt>
      <trkpt lat="42.141992" lon="3.112738">
        <ele>0.834045</ele>
        <time>2024-04-14T10:27:34.000Z</time>
      </trkpt>
      <trkpt lat="42.142023" lon="3.112871">
        <ele>0.902248</ele>
        <time>2024-04-14T10:27:35.000Z</time>
      </trkpt>
      <trkpt lat="42.142043" lon="3.113082">
        <ele>0.991537</ele>
        <time>2024-04-14T10:27:37.000Z</time>
      </trkpt>
      <trkpt lat="42.142029" lon="3.113281">
        <ele>1.08186</ele>
        <time>2024-04-14T10:27:39.000Z</time>
      </trkpt>
      <trkpt lat="42.14201" lon="3.113358">
        <ele>1.12437</ele>
        <time>2024-04-14T10:27:40.000Z</time>
      </trkpt>
      <trkpt lat="42.141949" lon="3.11343">
        <ele>1.176225</ele>
        <time>2024-04-14T10:27:41.000Z</time>
      </trkpt>
      <trkpt lat="42.141841" lon="3.113547">
        <ele>1.279429</ele>
        <time>2024-04-14T10:27:43.000Z</time>
      </trkpt>
      <trkpt lat="42.141678" lon="3.113694">
        <ele>1.415457</ele>
        <time>2024-04-14T10:27:45.000Z</time>
      </trkpt>
      <trkpt lat="42.141174" lon="3.114202">
        <ele>1.856405</ele>
        <time>2024-04-14T10:27:52.000Z</time>
      </trkpt>
      <trkpt lat="42.140543" lon="3.114785">
        <ele>2.387796</ele>
        <time>2024-04-14T10:28:01.000Z</time>
      </trkpt>
      <trkpt lat="42.140514" lon="3.114814">
        <ele>2.438684</ele>
        <time>2024-04-14T10:28:01.000Z</time>
      </trkpt>
      <trkpt lat="42.14043" lon="3.11502">
        <ele>2.718275</ele>
        <time>2024-04-14T10:28:03.000Z</time>
      </trkpt>
      <trkpt lat="42.140201" lon="3.115588">
        <ele>3.465222</ele>
        <time>2024-04-14T10:28:08.000Z</time>
      </trkpt>
      <trkpt lat="42.140111" lon="3.115833">
        <ele>3.813422</ele>
        <time>2024-04-14T10:28:10.000Z</time>
      </trkpt>
      <trkpt lat="42.14003" lon="3.115963">
        <ele>3.995357</ele>
        <time>2024-04-14T10:28:11.000Z</time>
      </trkpt>
      <trkpt lat="42.139727" lon="3.116213">
        <ele>4.569716</ele>
        <time>2024-04-14T10:28:15.000Z</time>
      </trkpt>
      <trkpt lat="42.139605" lon="3.116266">
        <ele>4.776317</ele>
        <time>2024-04-14T10:28:16.000Z</time>
      </trkpt>
      <trkpt lat="42.139431" lon="3.116319">
        <ele>5.031189</ele>
        <time>2024-04-14T10:28:18.000Z</time>
      </trkpt>
      <trkpt lat="42.139289" lon="3.116302">
        <ele>5.288055</ele>
        <time>2024-04-14T10:28:20.000Z</time>
      </trkpt>
      <trkpt lat="42.139177" lon="3.116266">
        <ele>5.477461</ele>
        <time>2024-04-14T10:28:21.000Z</time>
      </trkpt>
      <trkpt lat="42.139121" lon="3.116322">
        <ele>5.621402</ele>
        <time>2024-04-14T10:28:22.000Z</time>
      </trkpt>
      <trkpt lat="42.138876" lon="3.116305">
        <ele>6.063852</ele>
        <time>2024-04-14T10:28:25.000Z</time>
      </trkpt>
      <trkpt lat="42.13875" lon="3.116213">
        <ele>6.323002</ele>
        <time>2024-04-14T10:28:27.000Z</time>
      </trkpt>
      <trkpt lat="42.138415" lon="3.115875">
        <ele>7.095569</ele>
        <time>2024-04-14T10:28:32.000Z</time>
      </trkpt>
      <trkpt lat="42.138223" lon="3.115547">
        <ele>7.649125</ele>
        <time>2024-04-14T10:28:35.000Z</time>
      </trkpt>
      <trkpt lat="42.13787" lon="3.114956">
        <ele>8.584419</ele>
        <time>2024-04-14T10:28:41.000Z</time>
      </trkpt>
      <trkpt lat="42.137729" lon="3.114736">
        <ele>8.69362</ele>
        <time>2024-04-14T10:28:43.000Z</time>
      </trkpt>
      <trkpt lat="42.137652" lon="3.114511">
        <ele>8.7866</ele>
        <time>2024-04-14T10:28:45.000Z</time>
      </trkpt>
      <trkpt lat="42.137327" lon="3.11347">
        <ele>9.229137</ele>
        <time>2024-04-14T10:28:54.000Z</time>
      </trkpt>
      <trkpt lat="42.137216" lon="3.113205">
        <ele>9.349149</ele>
        <time>2024-04-14T10:28:57.000Z</time>
      </trkpt>
      <trkpt lat="42.137137" lon="3.113109">
        <ele>9.401253</ele>
        <time>2024-04-14T10:28:58.000Z</time>
      </trkpt>
      <trkpt lat="42.136779" lon="3.112826">
        <ele>9.493095</ele>
        <time>2024-04-14T10:29:03.000Z</time>
      </trkpt>
      <trkpt lat="42.135914" lon="3.112296">
        <ele>9.544688</ele>
        <time>2024-04-14T10:29:14.000Z</time>
      </trkpt>
      <trkpt lat="42.135807" lon="3.112187">
        <ele>9.55202</ele>
        <time>2024-04-14T10:29:15.000Z</time>
      </trkpt>
      <trkpt lat="42.135471" lon="3.111754">
        <ele>9.566966</ele>
        <time>2024-04-14T10:29:20.000Z</time>
      </trkpt>
      <trkpt lat="42.1353" lon="3.111456">
        <ele>9.281122</ele>
        <time>2024-04-14T10:29:23.000Z</time>
      </trkpt>
      <trkpt lat="42.135254" lon="3.111306">
        <ele>9.154823</ele>
        <time>2024-04-14T10:29:24.000Z</time>
      </trkpt>
      <trkpt lat="42.135208" lon="3.110708">
        <ele>8.704807</ele>
        <time>2024-04-14T10:29:29.000Z</time>
      </trkpt>
      <trkpt lat="42.13515" lon="3.11049">
        <ele>8.529909</ele>
        <time>2024-04-14T10:29:31.000Z</time>
      </trkpt>
      <trkpt lat="42.134982" lon="3.11026">
        <ele>8.287048</ele>
        <time>2024-04-14T10:29:34.000Z</time>
      </trkpt>
      <trkpt lat="42.134867" lon="3.110176">
        <ele>8.161979</ele>
        <time>2024-04-14T10:29:35.000Z</time>
      </trkpt>
      <trkpt lat="42.134638" lon="3.110106">
        <ele>7.91111</ele>
        <time>2024-04-14T10:29:38.000Z</time>
      </trkpt>
      <trkpt lat="42.134327" lon="3.110186">
        <ele>7.62117</ele>
        <time>2024-04-14T10:29:42.000Z</time>
      </trkpt>
      <trkpt lat="42.132916" lon="3.110674">
        <ele>6.275309</ele>
        <time>2024-04-14T10:29:58.000Z</time>
      </trkpt>
      <trkpt lat="42.132643" lon="3.110771">
        <ele>6.082522</ele>
        <time>2024-04-14T10:30:01.000Z</time>
      </trkpt>
      <trkpt lat="42.132276" lon="3.110879">
        <ele>6.017149</ele>
        <time>2024-04-14T10:30:05.000Z</time>
      </trkpt>
      <trkpt lat="42.131532" lon="3.111151">
        <ele>5.879419</ele>
        <time>2024-04-14T10:30:14.000Z</time>
      </trkpt>
      <trkpt lat="42.13088" lon="3.11154">
        <ele>5.892305</ele>
        <time>2024-04-14T10:30:22.000Z</time>
      </trkpt>
      <trkpt lat="42.130567" lon="3.111735">
        <ele>6.126063</ele>
        <time>2024-04-14T10:30:26.000Z</time>
      </trkpt>
      <trkpt lat="42.130119" lon="3.11196">
        <ele>6.451992</ele>
        <time>2024-04-14T10:30:31.000Z</time>
      </trkpt>
      <trkpt lat="42.129938" lon="3.111997">
        <ele>6.572697</ele>
        <time>2024-04-14T10:30:33.000Z</time>
      </trkpt>
      <trkpt lat="42.129794" lon="3.111933">
        <ele>6.675187</ele>
        <time>2024-04-14T10:30:35.000Z</time>
      </trkpt>
      <trkpt lat="42.129669" lon="3.111738">
        <ele>6.806096</ele>
        <time>2024-04-14T10:30:37.000Z</time>
      </trkpt>
      <trkpt lat="42.129633" lon="3.111581">
        <ele>6.887784</ele>
        <time>2024-04-14T10:30:38.000Z</time>
      </trkpt>
      <trkpt lat="42.129662" lon="3.111424">
        <ele>6.972799</ele>
        <time>2024-04-14T10:30:39.000Z</time>
      </trkpt>
      <trkpt lat="42.12967" lon="3.111336">
        <ele>7.031325</ele>
        <time>2024-04-14T10:30:40.000Z</time>
      </trkpt>
      <trkpt lat="42.129615" lon="3.111175">
        <ele>7.232877</ele>
        <time>2024-04-14T10:30:41.000Z</time>
      </trkpt>
      <trkpt lat="42.129577" lon="3.111111">
        <ele>7.334667</ele>
        <time>2024-04-14T10:30:42.000Z</time>
      </trkpt>
      <trkpt lat="42.129438" lon="3.111038">
        <ele>7.55648</ele>
        <time>2024-04-14T10:30:44.000Z</time>
      </trkpt>
      <trkpt lat="42.129301" lon="3.111036">
        <ele>7.779726</ele>
        <time>2024-04-14T10:30:46.000Z</time>
      </trkpt>
      <trkpt lat="42.129189" lon="3.111129">
        <ele>7.988093</ele>
        <time>2024-04-14T10:30:47.000Z</time>
      </trkpt>
      <trkpt lat="42.129136" lon="3.111211">
        <ele>8.126827</ele>
        <time>2024-04-14T10:30:48.000Z</time>
      </trkpt>
      <trkpt lat="42.129102" lon="3.111351">
        <ele>8.302945</ele>
        <time>2024-04-14T10:30:49.000Z</time>
      </trkpt>
      <trkpt lat="42.129116" lon="3.111516">
        <ele>8.479656</ele>
        <time>2024-04-14T10:30:50.000Z</time>
      </trkpt>
      <trkpt lat="42.129134" lon="3.111552">
        <ele>8.545989</ele>
        <time>2024-04-14T10:30:50.000Z</time>
      </trkpt>
      <trkpt lat="42.129138" lon="3.111731">
        <ele>8.745073</ele>
        <time>2024-04-14T10:30:51.000Z</time>
      </trkpt>
      <trkpt lat="42.129118" lon="3.111846">
        <ele>8.905692</ele>
        <time>2024-04-14T10:30:52.000Z</time>
      </trkpt>
      <trkpt lat="42.128888" lon="3.112419">
        <ele>9.668208</ele>
        <time>2024-04-14T10:30:57.000Z</time>
      </trkpt>
      <trkpt lat="42.12869" lon="3.113121">
        <ele>9.976847</ele>
        <time>2024-04-14T10:31:03.000Z</time>
      </trkpt>
      <trkpt lat="42.128455" lon="3.113722">
        <ele>10.058473</ele>
        <time>2024-04-14T10:31:09.000Z</time>
      </trkpt>
      <trkpt lat="42.128069" lon="3.114467">
        <ele>10.166845</ele>
        <time>2024-04-14T10:31:16.000Z</time>
      </trkpt>
      <trkpt lat="42.128066" lon="3.114485">
        <ele>10.169553</ele>
        <time>2024-04-14T10:31:16.000Z</time>
      </trkpt>
      <trkpt lat="42.128065" lon="3.114488">
        <ele>10.169537</ele>
        <time>2024-04-14T10:31:16.000Z</time>
      </trkpt>
      <trkpt lat="42.128072" lon="3.11448">
        <ele>10.169543</ele>
        <time>2024-04-14T10:31:16.000Z</time>
      </trkpt>
      <trkpt lat="42.127674" lon="3.115474">
        <ele>9.321205</ele>
        <time>2024-04-14T10:31:25.000Z</time>
      </trkpt>
      <trkpt lat="42.127271" lon="3.116457">
        <ele>8.160505</ele>
        <time>2024-04-14T10:31:34.000Z</time>
      </trkpt>
      <trkpt lat="42.126885" lon="3.117461">
        <ele>6.942939</ele>
        <time>2024-04-14T10:31:43.000Z</time>
      </trkpt>
      <trkpt lat="42.126501" lon="3.118442">
        <ele>5.686931</ele>
        <time>2024-04-14T10:31:52.000Z</time>
      </trkpt>
      <trkpt lat="42.12611" lon="3.11944">
        <ele>4.572125</ele>
        <time>2024-04-14T10:32:01.000Z</time>
      </trkpt>
      <trkpt lat="42.125705" lon="3.120421">
        <ele>3.631332</ele>
        <time>2024-04-14T10:32:10.000Z</time>
      </trkpt>
      <trkpt lat="42.125311" lon="3.121425">
        <ele>2.965857</ele>
        <time>2024-04-14T10:32:19.000Z</time>
      </trkpt>
      <trkpt lat="42.125158" lon="3.121677">
        <ele>2.972328</ele>
        <time>2024-04-14T10:32:22.000Z</time>
      </trkpt>
      <trkpt lat="42.12512" lon="3.121722">
        <ele>2.974024</ele>
        <time>2024-04-14T10:32:23.000Z</time>
      </trkpt>
      <trkpt lat="42.125045" lon="3.121786">
        <ele>2.976177</ele>
        <time>2024-04-14T10:32:24.000Z</time>
      </trkpt>
      <trkpt lat="42.125053" lon="3.121797">
        <ele>2.976192</ele>
        <time>2024-04-14T10:32:24.000Z</time>
      </trkpt>
      <trkpt lat="42.125054" lon="3.121781">
        <ele>2.976178</ele>
        <time>2024-04-14T10:32:24.000Z</time>
      </trkpt>
      <trkpt lat="42.12517" lon="3.122387">
        <ele>2.98851</ele>
        <time>2024-04-14T10:32:29.000Z</time>
      </trkpt>
      <trkpt lat="42.125314" lon="3.123">
        <ele>3.000856</ele>
        <time>2024-04-14T10:32:34.000Z</time>
      </trkpt>
      <trkpt lat="42.125304" lon="3.123001">
        <ele>3.000848</ele>
        <time>2024-04-14T10:32:34.000Z</time>
      </trkpt>
      <trkpt lat="42.125386" lon="3.123044">
        <ele>3.003315</ele>
        <time>2024-04-14T10:32:35.000Z</time>
      </trkpt>
      <trkpt lat="42.125386" lon="3.123033">
        <ele>3.003307</ele>
        <time>2024-04-14T10:32:35.000Z</time>
      </trkpt>
      <trkpt lat="42.125442" lon="3.123147">
        <ele>3.005754</ele>
        <time>2024-04-14T10:32:36.000Z</time>
      </trkpt>
      <trkpt lat="42.125452" lon="3.123147">
        <ele>3.00575</ele>
        <time>2024-04-14T10:32:36.000Z</time>
      </trkpt>
      <trkpt lat="42.125455" lon="3.123129">
        <ele>3.005745</ele>
        <time>2024-04-14T10:32:36.000Z</time>
      </trkpt>
      <trkpt lat="42.125448" lon="3.123213">
        <ele>3.0074554846</ele>
        <time>2024-04-14T10:32:37.000Z</time>
      </trkpt>
      <trkpt lat="42.12544" lon="3.123201">
        <ele>3.00778199025</ele>
        <time>2024-04-14T10:32:37.000Z</time>
      </trkpt>
      <trkpt lat="42.125412" lon="3.123308">
        <ele>3.01007801476</ele>
        <time>2024-04-14T10:32:38.000Z</time>
      </trkpt>
      <trkpt lat="42.12541" lon="3.123314">
        <ele>3.01021112681</ele>
        <time>2024-04-14T10:32:38.000Z</time>
      </trkpt>
      <trkpt lat="42.125412" lon="3.123312">
        <ele>3.01027906412</ele>
        <time>2024-04-14T10:32:38.000Z</time>
      </trkpt>
      <trkpt lat="42.125407" lon="3.123613">
        <ele>3.016371506</ele>
        <time>2024-04-14T10:32:40.000Z</time>
      </trkpt>
      <trkpt lat="42.125397" lon="3.123612">
        <ele>3.01664509055</ele>
        <time>2024-04-14T10:32:40.000Z</time>
      </trkpt>
      <trkpt lat="42.1254" lon="3.123609">
        <ele>3.01674699653</ele>
        <time>2024-04-14T10:32:40.000Z</time>
      </trkpt>
      <trkpt lat="42.125598" lon="3.124706">
        <ele>3.03959328321</ele>
        <time>2024-04-14T10:32:49.000Z</time>
      </trkpt>
    </trkseg>
  </trk>
</gpx>

<!--
Performance optimized by W3 Total Cache. Learn more: https://www.boldgrid.com/w3-total-cache/?utm_source=w3tc&utm_medium=footer_comment&utm_campaign=free_plugin

Page Caching using Disk: Enhanced{w3tc_pagecache_reject_reason} 

Served from: www.aquabike.world @ 2026-05-06 21:18:06 by W3 Total Cache
-->